Wetterdaten: Montag, 04.07.2016
Datum Zeit Temp. A. Feuchte A. Luftdruck Regen Wind Richtung Richtung Sonnenschein ET UV Solar Taupunkt Windchill Windben Empfang
04.07.2016 00:00 15,9 C 77 % 1021,6 hPa 0,0 l/m 4,4 km/h (1 Bft) SW 229 0 min 0,000 mm 0,0 UV-I 0 W/m 11,9 C 15,9 C 8,0 km/h (2 Bft) 100,00 %
04.07.2016 00:02 16,0 C 77 % 1021,6 hPa 0,0 l/m 4,1 km/h (1 Bft) SW 232 0 min 0,000 mm 0,0 UV-I 0 W/m 12,0 C 16,0 C 6,4 km/h (2 Bft) 14,29 %
04.07.2016 00:04 15,9 C 77 % 1021,6 hPa 0,0 l/m 3,6 km/h (1 Bft) W-SW 238 0 min 0,000 mm 0,0 UV-I 0 W/m 11,9 C 15,9 C 4,8 km/h (1 Bft) 72,22 %
04.07.2016 00:06 15,9 C 77 % 1021,7 hPa 0,0 l/m 4,8 km/h (1 Bft) SW 219 0 min 0,000 mm 0,0 UV-I 0 W/m 11,9 C 15,9 C 6,4 km/h (2 Bft) 100,00 %
04.07.2016 00:08 15,9 C 77 % 1021,7 hPa 0,0 l/m 4,4 km/h (1 Bft) S-SW 200 0 min 0,000 mm 0,0 UV-I 0 W/m 11,9 C 15,9 C 8,0 km/h (2 Bft) 100,00 %
04.07.2016 00:10 15,9 C 77 % 1021,6 hPa 0,0 l/m 5,1 km/h (1 Bft) S-SW 213 0 min 0,000 mm 0,0 UV-I 0 W/m 11,9 C 15,9 C 6,4 km/h (2 Bft) 93,62 %
04.07.2016 00:12 16,0 C 77 % 1021,7 hPa 0,0 l/m 4,3 km/h (1 Bft) S-SW 202 0 min 0,000 mm 0,0 UV-I 0 W/m 12,0 C 16,0 C 6,4 km/h (2 Bft) 100,00 %
04.07.2016 00:14 16,0 C 77 % 1021,7 hPa 0,0 l/m 4,1 km/h (1 Bft) S-SW 202 0 min 0,000 mm 0,0 UV-I 0 W/m 12,0 C 16,0 C 6,4 km/h (2 Bft) 95,74 %
04.07.2016 00:16 16,0 C 77 % 1021,7 hPa 0,0 l/m 4,2 km/h (1 Bft) S 180 0 min 0,000 mm 0,0 UV-I 0 W/m 12,0 C 16,0 C 6,4 km/h (2 Bft) 100,00 %
04.07.2016 00:18 16,0 C 77 % 1021,7 hPa 0,0 l/m 3,6 km/h (1 Bft) S-SW 203 0 min 0,000 mm 0,0 UV-I 0 W/m 12,0 C 16,0 C 6,4 km/h (2 Bft) 97,87 %
04.07.2016 00:20 15,9 C 77 % 1021,8 hPa 0,0 l/m 3,2 km/h (1 Bft) S-SW 198 0 min 0,000 mm 0,0 UV-I 0 W/m 11,9 C 15,9 C 4,8 km/h (1 Bft) 100,00 %
04.07.2016 00:22 15,9 C 77 % 1021,7 hPa 0,0 l/m 3,3 km/h (1 Bft) S-SW 196 0 min 0,000 mm 0,0 UV-I 0 W/m 11,9 C 15,9 C 4,8 km/h (1 Bft) 100,00 %
04.07.2016 00:24 15,9 C 77 % 1021,7 hPa 0,0 l/m 2,4 km/h (1 Bft) S-SW 196 0 min 0,000 mm 0,0 UV-I 0 W/m 11,9 C 15,9 C 3,2 km/h (1 Bft) 97,87 %
04.07.2016 00:26 15,9 C 77 % 1021,7 hPa 0,0 l/m 4,0 km/h (1 Bft) S-SW 207 0 min 0,000 mm 0,0 UV-I 0 W/m 11,9 C 15,9 C 6,4 km/h (2 Bft) 100,00 %
04.07.2016 00:28 15,9 C 77 % 1021,8 hPa 0,0 l/m 4,2 km/h (1 Bft) S-SW 205 0 min 0,000 mm 0,0 UV-I 0 W/m 11,9 C 15,9 C 6,4 km/h (2 Bft) 100,00 %
04.07.2016 00:30 15,9 C 77 % 1021,7 hPa 0,0 l/m 4,5 km/h (1 Bft) S-SW 200 0 min 0,000 mm 0,0 UV-I 0 W/m 11,9 C 15,9 C 6,4 km/h (2 Bft) 100,00 %
04.07.2016 00:32 15,9 C 78 % 1021,7 hPa 0,0 l/m 4,3 km/h (1 Bft) S-SW 195 0 min 0,000 mm 0,0 UV-I 0 W/m 12,1 C 15,9 C 6,4 km/h (2 Bft) 100,00 %
04.07.2016 00:34 15,9 C 78 % 1021,7 hPa 0,0 l/m 5,0 km/h (1 Bft) S 190 0 min 0,000 mm 0,0 UV-I 0 W/m 12,1 C 15,9 C 8,0 km/h (2 Bft) 100,00 %
04.07.2016 00:36 15,9 C 78 % 1021,7 hPa 0,0 l/m 5,3 km/h (1 Bft) S-SW 202 0 min 0,000 mm 0,0 UV-I 0 W/m 12,1 C 15,9 C 8,0 km/h (2 Bft) 100,00 %
04.07.2016 00:38 15,9 C 78 % 1021,7 hPa 0,0 l/m 5,6 km/h (1 Bft) SW 215 0 min 0,000 mm 0,0 UV-I 0 W/m 12,1 C 15,9 C 8,0 km/h (2 Bft) 97,87 %
04.07.2016 00:40 15,9 C 78 % 1021,7 hPa 0,0 l/m 4,8 km/h (1 Bft) S-SW 201 0 min 0,000 mm 0,0 UV-I 0 W/m 12,1 C 15,9 C 8,0 km/h (2 Bft) 97,87 %
04.07.2016 00:42 15,9 C 79 % 1021,7 hPa 0,0 l/m 5,4 km/h (1 Bft) S 190 0 min 0,000 mm 0,0 UV-I 0 W/m 12,3 C 15,9 C 9,7 km/h (2 Bft) 100,00 %
04.07.2016 00:44 15,8 C 78 % 1021,7 hPa 0,0 l/m 4,0 km/h (1 Bft) S 181 0 min 0,000 mm 0,0 UV-I 0 W/m 12,0 C 15,8 C 6,4 km/h (2 Bft) 95,74 %
04.07.2016 00:46 15,8 C 79 % 1021,7 hPa 0,0 l/m 3,6 km/h (1 Bft) S-SW 210 0 min 0,000 mm 0,0 UV-I 0 W/m 12,2 C 15,8 C 4,8 km/h (1 Bft) 97,44 %
04.07.2016 00:48 15,8 C 78 % 1021,6 hPa 0,0 l/m 3,9 km/h (1 Bft) S-SW 204 0 min 0,000 mm 0,0 UV-I 0 W/m 12,0 C 15,8 C 6,4 km/h (2 Bft) 100,00 %
04.07.2016 00:50 15,8 C 79 % 1021,7 hPa 0,0 l/m 3,8 km/h (1 Bft) S-SW 201 0 min 0,000 mm 0,0 UV-I 0 W/m 12,2 C 15,8 C 4,8 km/h (1 Bft) 97,87 %
04.07.2016 00:52 15,8 C 78 % 1021,6 hPa 0,0 l/m 3,5 km/h (1 Bft) S-SW 207 0 min 0,000 mm 0,0 UV-I 0 W/m 12,0 C 15,8 C 6,4 km/h (2 Bft) 100,00 %
04.07.2016 00:54 15,8 C 79 % 1021,6 hPa 0,0 l/m 3,5 km/h (1 Bft) S-SW 207 0 min 0,000 mm 0,0 UV-I 0 W/m 12,2 C 15,8 C 4,8 km/h (1 Bft) 95,74 %
04.07.2016 00:56 15,8 C 78 % 1021,6 hPa 0,0 l/m 2,7 km/h (1 Bft) S-SW 207 0 min 0,000 mm 0,0 UV-I 0 W/m 12,0 C 15,8 C 4,8 km/h (1 Bft) 100,00 %
04.07.2016 00:58 15,8 C 78 % 1021,6 hPa 0,0 l/m 1,9 km/h (1 Bft) S-SW 207 0 min 0,000 mm 0,0 UV-I 0 W/m 12,0 C 15,8 C 3,2 km/h (1 Bft) 100,00 %
04.07.2016 00:59 15,8 C 79 % 1021,6 hPa 0,0 l/m 3,1 km/h (1 Bft) S-SW 207 0 min 0,000 mm 0,0 UV-I 0 W/m 12,2 C 15,8 C 4,8 km/h (1 Bft) 97,87 %
04.07.2016 01:02 15,8 C 79 % 1021,6 hPa 0,0 l/m 2,7 km/h (1 Bft) S-SW 202 0 min 0,025 mm 0,0 UV-I 0 W/m 12,2 C 15,8 C 4,8 km/h (1 Bft) 96,00 %
04.07.2016 01:04 15,8 C 78 % 1021,6 hPa 0,0 l/m 3,7 km/h (1 Bft) S-SW 202 0 min 0,000 mm 0,0 UV-I 0 W/m 12,0 C 15,8 C 6,4 km/h (2 Bft) 93,62 %
04.07.2016 01:06 15,8 C 79 % 1021,7 hPa 0,0 l/m 4,3 km/h (1 Bft) S 184 0 min 0,000 mm 0,0 UV-I 0 W/m 12,2 C 15,8 C 6,4 km/h (2 Bft) 97,56 %
04.07.2016 01:08 15,8 C 78 % 1021,7 hPa 0,0 l/m 4,7 km/h (1 Bft) S 184 0 min 0,000 mm 0,0 UV-I 0 W/m 12,0 C 15,8 C 6,4 km/h (2 Bft) 97,87 %
04.07.2016 01:10 15,8 C 78 % 1021,7 hPa 0,0 l/m 2,9 km/h (1 Bft) S 184 0 min 0,000 mm 0,0 UV-I 0 W/m 12,0 C 15,8 C 4,8 km/h (1 Bft) 95,74 %
04.07.2016 01:12 15,8 C 78 % 1021,6 hPa 0,0 l/m 2,7 km/h (1 Bft) S 184 0 min 0,000 mm 0,0 UV-I 0 W/m 12,0 C 15,8 C 4,8 km/h (1 Bft) 97,87 %
04.07.2016 01:14 15,8 C 78 % 1021,7 hPa 0,0 l/m 3,7 km/h (1 Bft) S 184 0 min 0,000 mm 0,0 UV-I 0 W/m 12,0 C 15,8 C 4,8 km/h (1 Bft) 96,00 %
04.07.2016 01:16 15,8 C 78 % 1021,7 hPa 0,0 l/m 4,6 km/h (1 Bft) S 190 0 min 0,000 mm 0,0 UV-I 0 W/m 12,0 C 15,8 C 6,4 km/h (2 Bft) 96,00 %
04.07.2016 01:18 15,8 C 78 % 1021,6 hPa 0,0 l/m 3,8 km/h (1 Bft) S 190 0 min 0,000 mm 0,0 UV-I 0 W/m 12,0 C 15,8 C 6,4 km/h (2 Bft) 96,00 %
04.07.2016 01:20 15,8 C 78 % 1021,7 hPa 0,0 l/m 3,9 km/h (1 Bft) S-SW 200 0 min 0,000 mm 0,0 UV-I 0 W/m 12,0 C 15,8 C 6,4 km/h (2 Bft) 97,87 %
04.07.2016 01:22 15,8 C 78 % 1021,6 hPa 0,0 l/m 2,6 km/h (1 Bft) S-SW 200 0 min 0,000 mm 0,0 UV-I 0 W/m 12,0 C 15,8 C 4,8 km/h (1 Bft) 93,62 %
04.07.2016 01:24 15,8 C 77 % 1021,7 hPa 0,0 l/m 2,2 km/h (1 Bft) S-SW 200 0 min 0,000 mm 0,0 UV-I 0 W/m 11,8 C 15,8 C 3,2 km/h (1 Bft) 95,74 %
04.07.2016 01:26 15,9 C 77 % 1021,6 hPa 0,0 l/m 3,3 km/h (1 Bft) S-SW 200 0 min 0,000 mm 0,0 UV-I 0 W/m 11,9 C 15,9 C 6,4 km/h (2 Bft) 97,87 %
04.07.2016 01:28 15,9 C 78 % 1021,7 hPa 0,0 l/m 2,9 km/h (1 Bft) S-SW 200 0 min 0,000 mm 0,0 UV-I 0 W/m 12,1 C 15,9 C 4,8 km/h (1 Bft) 97,22 %
04.07.2016 01:30 15,9 C 77 % 1021,7 hPa 0,0 l/m 2,6 km/h (1 Bft) S-SW 200 0 min 0,000 mm 0,0 UV-I 0 W/m 11,9 C 15,9 C 3,2 km/h (1 Bft) 97,87 %
04.07.2016 01:32 15,8 C 78 % 1021,7 hPa 0,0 l/m 2,6 km/h (1 Bft) S-SW 200 0 min 0,000 mm 0,0 UV-I 0 W/m 12,0 C 15,8 C 4,8 km/h (1 Bft) 96,00 %
04.07.2016 01:34 15,8 C 78 % 1021,6 hPa 0,0 l/m 3,3 km/h (1 Bft) S-SW 200 0 min 0,000 mm 0,0 UV-I 0 W/m 12,0 C 15,8 C 4,8 km/h (1 Bft) 95,74 %
04.07.2016 01:36 15,8 C 79 % 1021,5 hPa 0,0 l/m 2,0 km/h (1 Bft) S-SW 200 0 min 0,000 mm 0,0 UV-I 0 W/m 12,2 C 15,8 C 3,2 km/h (1 Bft) 100,00 %
04.07.2016 01:38 15,8 C 78 % 1021,5 hPa 0,0 l/m 1,2 km/h (1 Bft) S-SW 200 0 min 0,000 mm 0,0 UV-I 0 W/m 12,0 C 15,8 C 3,2 km/h (1 Bft) 97,87 %
04.07.2016 01:40 15,9 C 80 % 1021,6 hPa 0,0 l/m 1,8 km/h (1 Bft) S-SW 200 0 min 0,000 mm 0,0 UV-I 0 W/m 12,5 C 15,9 C 3,2 km/h (1 Bft) 100,00 %
04.07.2016 01:42 15,8 C 80 % 1021,5 hPa 0,0 l/m 1,8 km/h (1 Bft) S-SW 200 0 min 0,000 mm 0,0 UV-I 0 W/m 12,4 C 15,8 C 3,2 km/h (1 Bft) 95,74 %
04.07.2016 01:44 15,8 C 80 % 1021,5 hPa 0,0 l/m 1,8 km/h (1 Bft) S-SW 200 0 min 0,000 mm 0,0 UV-I 0 W/m 12,4 C 15,8 C 3,2 km/h (1 Bft) 95,74 %
04.07.2016 01:46 15,8 C 81 % 1021,5 hPa 0,0 l/m 0,3 km/h (0 Bft) S-SW 200 0 min 0,000 mm 0,0 UV-I 0 W/m 12,5 C 15,8 C 1,6 km/h (1 Bft) 100,00 %
04.07.2016 01:48 15,8 C 81 % 1021,5 hPa 0,0 l/m 0,3 km/h (0 Bft) S-SW 200 0 min 0,000 mm 0,0 UV-I 0 W/m 12,5 C 15,8 C 1,6 km/h (1 Bft) 97,87 %
04.07.2016 01:50 15,7 C 81 % 1021,5 hPa 0,0 l/m 0,0 km/h (0 Bft) S-SW 200 0 min 0,000 mm 0,0 UV-I 0 W/m 12,4 C 15,7 C 0,0 km/h (0 Bft) 100,00 %
04.07.2016 01:52 15,7 C 80 % 1021,6 hPa 0,0 l/m 1,3 km/h (1 Bft) S-SW 200 0 min 0,000 mm 0,0 UV-I 0 W/m 12,3 C 15,7 C 3,2 km/h (1 Bft) 93,62 %
04.07.2016 01:54 15,7 C 80 % 1021,5 hPa 0,0 l/m 1,9 km/h (1 Bft) S-SW 200 0 min 0,000 mm 0,0 UV-I 0 W/m 12,3 C 15,7 C 3,2 km/h (1 Bft) 100,00 %
04.07.2016 01:56 15,7 C 81 % 1021,5 hPa 0,0 l/m 2,7 km/h (1 Bft) S-SW 200 0 min 0,000 mm 0,0 UV-I 0 W/m 12,4 C 15,7 C 3,2 km/h (1 Bft) 97,14 %
04.07.2016 01:58 15,7 C 80 % 1021,5 hPa 0,0 l/m 2,7 km/h (1 Bft) S-SW 200 0 min 0,000 mm 0,0 UV-I 0 W/m 12,3 C 15,7 C 3,2 km/h (1 Bft) 100,00 %
04.07.2016 02:00 15,7 C 80 % 1021,6 hPa 0,0 l/m 3,3 km/h (1 Bft) S-SW 200 0 min 0,000 mm 0,0 UV-I 0 W/m 12,3 C 15,7 C 4,8 km/h (1 Bft) 100,00 %
04.07.2016 02:02 15,7 C 81 % 1021,5 hPa 0,0 l/m 3,1 km/h (1 Bft) S-SW 200 0 min 0,000 mm 0,0 UV-I 0 W/m 12,4 C 15,7 C 3,2 km/h (1 Bft) 100,00 %
04.07.2016 02:04 15,6 C 82 % 1021,5 hPa 0,0 l/m 2,7 km/h (1 Bft) S-SW 200 0 min 0,000 mm 0,0 UV-I 0 W/m 12,5 C 15,6 C 3,2 km/h (1 Bft) 95,74 %
04.07.2016 02:06 15,6 C 83 % 1021,5 hPa 0,0 l/m 1,4 km/h (1 Bft) S-SW 200 0 min 0,000 mm 0,0 UV-I 0 W/m 12,7 C 15,6 C 3,2 km/h (1 Bft) 97,87 %
04.07.2016 02:08 15,5 C 83 % 1021,5 hPa 0,0 l/m 0,5 km/h (0 Bft) S-SW 200 0 min 0,000 mm 0,0 UV-I 0 W/m 12,6 C 15,5 C 1,6 km/h (1 Bft) 100,00 %
04.07.2016 02:10 15,5 C 83 % 1021,5 hPa 0,0 l/m 1,8 km/h (1 Bft) S-SW 200 0 min 0,000 mm 0,0 UV-I 0 W/m 12,6 C 15,5 C 3,2 km/h (1 Bft) 100,00 %
04.07.2016 02:12 15,5 C 84 % 1021,5 hPa 0,0 l/m 1,6 km/h (1 Bft) S-SW 200 0 min 0,000 mm 0,0 UV-I 0 W/m 12,8 C 15,5 C 3,2 km/h (1 Bft) 100,00 %
04.07.2016 02:14 15,5 C 85 % 1021,5 hPa 0,0 l/m 1,1 km/h (1 Bft) S-SW 200 0 min 0,000 mm 0,0 UV-I 0 W/m 13,0 C 15,5 C 1,6 km/h (1 Bft) 100,00 %
04.07.2016 02:16 15,4 C 84 % 1021,5 hPa 0,0 l/m 1,2 km/h (1 Bft) S-SW 200 0 min 0,000 mm 0,0 UV-I 0 W/m 12,7 C 15,4 C 3,2 km/h (1 Bft) 97,87 %
04.07.2016 02:18 15,4 C 84 % 1021,5 hPa 0,0 l/m 2,4 km/h (1 Bft) S-SW 200 0 min 0,000 mm 0,0 UV-I 0 W/m 12,7 C 15,4 C 3,2 km/h (1 Bft) 100,00 %
04.07.2016 02:20 15,4 C 83 % 1021,4 hPa 0,0 l/m 3,2 km/h (1 Bft) S-SW 200 0 min 0,000 mm 0,0 UV-I 0 W/m 12,5 C 15,4 C 4,8 km/h (1 Bft) 100,00 %
04.07.2016 02:22 15,4 C 84 % 1021,4 hPa 0,0 l/m 1,7 km/h (1 Bft) S-SW 200 0 min 0,000 mm 0,0 UV-I 0 W/m 12,7 C 15,4 C 4,8 km/h (1 Bft) 100,00 %
04.07.2016 02:24 15,4 C 84 % 1021,4 hPa 0,0 l/m 1,7 km/h (1 Bft) S-SW 200 0 min 0,000 mm 0,0 UV-I 0 W/m 12,7 C 15,4 C 3,2 km/h (1 Bft) 100,00 %
04.07.2016 02:26 15,4 C 84 % 1021,4 hPa 0,0 l/m 2,2 km/h (1 Bft) S-SW 200 0 min 0,000 mm 0,0 UV-I 0 W/m 12,7 C 15,4 C 4,8 km/h (1 Bft) 100,00 %
04.07.2016 02:28 15,4 C 84 % 1021,4 hPa 0,0 l/m 2,7 km/h (1 Bft) S-SW 200 0 min 0,000 mm 0,0 UV-I 0 W/m 12,7 C 15,4 C 4,8 km/h (1 Bft) 100,00 %
04.07.2016 02:30 15,4 C 84 % 1021,5 hPa 0,0 l/m 3,3 km/h (1 Bft) S-SW 200 0 min 0,000 mm 0,0 UV-I 0 W/m 12,7 C 15,4 C 4,8 km/h (1 Bft) 100,00 %
04.07.2016 02:32 15,4 C 83 % 1021,5 hPa 0,0 l/m 1,6 km/h (1 Bft) S-SW 200 0 min 0,000 mm 0,0 UV-I 0 W/m 12,5 C 15,4 C 3,2 km/h (1 Bft) 100,00 %
04.07.2016 02:34 15,4 C 83 % 1021,5 hPa 0,0 l/m 2,8 km/h (1 Bft) S-SW 200 0 min 0,000 mm 0,0 UV-I 0 W/m 12,5 C 15,4 C 4,8 km/h (1 Bft) 97,87 %
04.07.2016 02:36 15,4 C 84 % 1021,5 hPa 0,0 l/m 3,1 km/h (1 Bft) S-SW 200 0 min 0,000 mm 0,0 UV-I 0 W/m 12,7 C 15,4 C 6,4 km/h (2 Bft) 100,00 %
04.07.2016 02:38 15,4 C 84 % 1021,5 hPa 0,0 l/m 4,0 km/h (1 Bft) S-SW 200 0 min 0,000 mm 0,0 UV-I 0 W/m 12,7 C 15,4 C 6,4 km/h (2 Bft) 100,00 %
04.07.2016 02:40 15,3 C 84 % 1021,5 hPa 0,0 l/m 2,6 km/h (1 Bft) S-SW 200 0 min 0,000 mm 0,0 UV-I 0 W/m 12,6 C 15,3 C 4,8 km/h (1 Bft) 97,87 %
04.07.2016 02:42 15,3 C 84 % 1021,5 hPa 0,0 l/m 3,9 km/h (1 Bft) S-SW 200 0 min 0,000 mm 0,0 UV-I 0 W/m 12,6 C 15,3 C 6,4 km/h (2 Bft) 100,00 %
04.07.2016 02:44 15,3 C 85 % 1021,5 hPa 0,0 l/m 3,2 km/h (1 Bft) S-SW 200 0 min 0,000 mm 0,0 UV-I 0 W/m 12,8 C 15,3 C 4,8 km/h (1 Bft) 100,00 %
04.07.2016 02:46 15,3 C 85 % 1021,5 hPa 0,0 l/m 2,8 km/h (1 Bft) S-SW 200 0 min 0,000 mm 0,0 UV-I 0 W/m 12,8 C 15,3 C 4,8 km/h (1 Bft) 100,00 %
04.07.2016 02:48 15,3 C 86 % 1021,5 hPa 0,0 l/m 2,0 km/h (1 Bft) S-SW 200 0 min 0,000 mm 0,0 UV-I 0 W/m 13,0 C 15,3 C 3,2 km/h (1 Bft) 95,74 %
04.07.2016 02:50 15,3 C 85 % 1021,5 hPa 0,0 l/m 2,7 km/h (1 Bft) S-SW 200 0 min 0,000 mm 0,0 UV-I 0 W/m 12,8 C 15,3 C 3,2 km/h (1 Bft) 100,00 %
04.07.2016 02:52 15,3 C 85 % 1021,5 hPa 0,0 l/m 2,2 km/h (1 Bft) S-SW 200 0 min 0,000 mm 0,0 UV-I 0 W/m 12,8 C 15,3 C 3,2 km/h (1 Bft) 100,00 %
04.07.2016 02:54 15,3 C 86 % 1021,5 hPa 0,0 l/m 2,1 km/h (1 Bft) S-SW 200 0 min 0,000 mm 0,0 UV-I 0 W/m 13,0 C 15,3 C 3,2 km/h (1 Bft) 97,14 %
04.07.2016 02:56 15,2 C 86 % 1021,5 hPa 0,0 l/m 2,8 km/h (1 Bft) S-SW 200 0 min 0,000 mm 0,0 UV-I 0 W/m 12,9 C 15,2 C 3,2 km/h (1 Bft) 100,00 %
04.07.2016 02:58 15,2 C 86 % 1021,5 hPa 0,0 l/m 2,4 km/h (1 Bft) S-SW 200 0 min 0,000 mm 0,0 UV-I 0 W/m 12,9 C 15,2 C 3,2 km/h (1 Bft) 100,00 %
04.07.2016 03:00 15,2 C 86 % 1021,5 hPa 0,0 l/m 2,5 km/h (1 Bft) S-SW 200 0 min 0,000 mm 0,0 UV-I 0 W/m 12,9 C 15,2 C 4,8 km/h (1 Bft) 98,00 %
04.07.2016 03:02 15,2 C 86 % 1021,5 hPa 0,0 l/m 2,3 km/h (1 Bft) S-SW 200 0 min 0,000 mm 0,0 UV-I 0 W/m 12,9 C 15,2 C 3,2 km/h (1 Bft) 97,87 %
04.07.2016 03:04 15,2 C 86 % 1021,4 hPa 0,0 l/m 1,2 km/h (1 Bft) S-SW 200 0 min 0,000 mm 0,0 UV-I 0 W/m 12,9 C 15,2 C 1,6 km/h (1 Bft) 95,74 %
04.07.2016 03:06 15,2 C 87 % 1021,4 hPa 0,0 l/m 1,7 km/h (1 Bft) S-SW 200 0 min 0,000 mm 0,0 UV-I 0 W/m 13,0 C 15,2 C 3,2 km/h (1 Bft) 95,74 %
04.07.2016 03:08 15,2 C 87 % 1021,4 hPa 0,0 l/m 2,4 km/h (1 Bft) S-SW 200 0 min 0,000 mm 0,0 UV-I 0 W/m 13,0 C 15,2 C 4,8 km/h (1 Bft) 97,87 %
04.07.2016 03:10 15,2 C 87 % 1021,4 hPa 0,0 l/m 2,2 km/h (1 Bft) S-SW 200 0 min 0,000 mm 0,0 UV-I 0 W/m 13,0 C 15,2 C 3,2 km/h (1 Bft) 91,49 %
04.07.2016 03:12 15,2 C 87 % 1021,4 hPa 0,0 l/m 1,3 km/h (1 Bft) S-SW 200 0 min 0,000 mm 0,0 UV-I 0 W/m 13,0 C 15,2 C 3,2 km/h (1 Bft) 93,62 %
04.07.2016 03:14 15,2 C 86 % 1021,4 hPa 0,0 l/m 1,8 km/h (1 Bft) S-SW 200 0 min 0,000 mm 0,0 UV-I 0 W/m 12,9 C 15,2 C 3,2 km/h (1 Bft) 97,87 %
04.07.2016 03:16 15,2 C 86 % 1021,4 hPa 0,0 l/m 1,9 km/h (1 Bft) S-SW 200 0 min 0,000 mm 0,0 UV-I 0 W/m 12,9 C 15,2 C 3,2 km/h (1 Bft) 95,00 %
04.07.2016 03:18 15,1 C 86 % 1021,4 hPa 0,0 l/m 1,8 km/h (1 Bft) S-SW 200 0 min 0,000 mm 0,0 UV-I 0 W/m 12,8 C 15,1 C 3,2 km/h (1 Bft) 97,87 %
04.07.2016 03:20 15,1 C 86 % 1021,4 hPa 0,0 l/m 1,9 km/h (1 Bft) S-SW 200 0 min 0,000 mm 0,0 UV-I 0 W/m 12,8 C 15,1 C 3,2 km/h (1 Bft) 97,87 %
04.07.2016 03:22 15,1 C 86 % 1021,4 hPa 0,0 l/m 2,6 km/h (1 Bft) S-SW 200 0 min 0,000 mm 0,0 UV-I 0 W/m 12,8 C 15,1 C 4,8 km/h (1 Bft) 95,83 %
04.07.2016 03:24 15,1 C 86 % 1021,3 hPa 0,0 l/m 1,7 km/h (1 Bft) S-SW 200 0 min 0,000 mm 0,0 UV-I 0 W/m 12,8 C 15,1 C 3,2 km/h (1 Bft) 91,49 %
04.07.2016 03:26 15,1 C 87 % 1021,3 hPa 0,0 l/m 1,6 km/h (1 Bft) S-SW 200 0 min 0,000 mm 0,0 UV-I 0 W/m 13,0 C 15,1 C 3,2 km/h (1 Bft) 97,87 %
04.07.2016 03:28 15,1 C 87 % 1021,3 hPa 0,0 l/m 0,8 km/h (0 Bft) S-SW 200 0 min 0,000 mm 0,0 UV-I 0 W/m 13,0 C 15,1 C 3,2 km/h (1 Bft) 98,00 %
04.07.2016 03:30 15,1 C 87 % 1021,3 hPa 0,0 l/m 2,3 km/h (1 Bft) S-SW 200 0 min 0,000 mm 0,0 UV-I 0 W/m 13,0 C 15,1 C 3,2 km/h (1 Bft) 91,49 %
04.07.2016 03:32 15,1 C 87 % 1021,3 hPa 0,0 l/m 2,2 km/h (1 Bft) S-SW 200 0 min 0,000 mm 0,0 UV-I 0 W/m 13,0 C 15,1 C 3,2 km/h (1 Bft) 97,87 %
04.07.2016 03:34 15,1 C 86 % 1021,2 hPa 0,0 l/m 2,1 km/h (1 Bft) S-SW 200 0 min 0,000 mm 0,0 UV-I 0 W/m 12,8 C 15,1 C 3,2 km/h (1 Bft) 100,00 %
04.07.2016 03:36 15,1 C 86 % 1021,2 hPa 0,0 l/m 1,6 km/h (1 Bft) S-SW 200 0 min 0,000 mm 0,0 UV-I 0 W/m 12,8 C 15,1 C 3,2 km/h (1 Bft) 100,00 %
04.07.2016 03:38 15,1 C 86 % 1021,3 hPa 0,0 l/m 2,5 km/h (1 Bft) S-SW 200 0 min 0,000 mm 0,0 UV-I 0 W/m 12,8 C 15,1 C 3,2 km/h (1 Bft) 100,00 %
04.07.2016 03:40 15,1 C 86 % 1021,3 hPa 0,0 l/m 2,6 km/h (1 Bft) S-SW 200 0 min 0,000 mm 0,0 UV-I 0 W/m 12,8 C 15,1 C 3,2 km/h (1 Bft) 94,74 %
04.07.2016 03:42 15,1 C 86 % 1021,3 hPa 0,0 l/m 2,3 km/h (1 Bft) S-SW 200 0 min 0,000 mm 0,0 UV-I 0 W/m 12,8 C 15,1 C 3,2 km/h (1 Bft) 100,00 %
04.07.2016 03:44 15,1 C 86 % 1021,3 hPa 0,0 l/m 1,3 km/h (1 Bft) S-SW 200 0 min 0,000 mm 0,0 UV-I 0 W/m 12,8 C 15,1 C 3,2 km/h (1 Bft) 100,00 %
04.07.2016 03:46 15,1 C 86 % 1021,2 hPa 0,0 l/m 2,5 km/h (1 Bft) S-SW 200 0 min 0,000 mm 0,0 UV-I 0 W/m 12,8 C 15,1 C 4,8 km/h (1 Bft) 100,00 %
04.07.2016 03:48 15,0 C 86 % 1021,3 hPa 0,0 l/m 3,1 km/h (1 Bft) S-SW 200 0 min 0,000 mm 0,0 UV-I 0 W/m 12,7 C 15,0 C 4,8 km/h (1 Bft) 97,87 %
04.07.2016 03:50 15,0 C 87 % 1021,1 hPa 0,0 l/m 2,6 km/h (1 Bft) S-SW 200 0 min 0,000 mm 0,0 UV-I 0 W/m 12,9 C 15,0 C 4,8 km/h (1 Bft) 100,00 %
04.07.2016 03:52 15,0 C 87 % 1021,1 hPa 0,0 l/m 2,5 km/h (1 Bft) S-SW 200 0 min 0,000 mm 0,0 UV-I 0 W/m 12,9 C 15,0 C 4,8 km/h (1 Bft) 100,00 %
04.07.2016 03:54 14,9 C 87 % 1021,1 hPa 0,0 l/m 2,2 km/h (1 Bft) S-SW 200 0 min 0,000 mm 0,0 UV-I 0 W/m 12,8 C 14,9 C 4,8 km/h (1 Bft) 97,87 %
04.07.2016 03:56 14,9 C 87 % 1021,1 hPa 0,0 l/m 2,0 km/h (1 Bft) S-SW 200 0 min 0,000 mm 0,0 UV-I 0 W/m 12,8 C 14,9 C 3,2 km/h (1 Bft) 100,00 %
04.07.2016 03:58 14,9 C 88 % 1021,1 hPa 0,0 l/m 1,6 km/h (1 Bft) S-SW 200 0 min 0,000 mm 0,0 UV-I 0 W/m 12,9 C 14,9 C 3,2 km/h (1 Bft) 100,00 %
04.07.2016 04:00 14,9 C 88 % 1021,1 hPa 0,0 l/m 1,4 km/h (1 Bft) S-SW 200 0 min 0,000 mm 0,0 UV-I 0 W/m 12,9 C 14,9 C 3,2 km/h (1 Bft) 100,00 %
04.07.2016 04:02 14,9 C 87 % 1021,1 hPa 0,0 l/m 2,1 km/h (1 Bft) S-SW 200 0 min 0,000 mm 0,0 UV-I 0 W/m 12,8 C 14,9 C 3,2 km/h (1 Bft) 97,30 %
04.07.2016 04:04 14,8 C 88 % 1021,1 hPa 0,0 l/m 3,1 km/h (1 Bft) S-SW 200 0 min 0,000 mm 0,0 UV-I 0 W/m 12,8 C 14,8 C 4,8 km/h (1 Bft) 100,00 %
04.07.2016 04:06 14,8 C 88 % 1021,1 hPa 0,0 l/m 3,4 km/h (1 Bft) S-SW 200 0 min 0,000 mm 0,0 UV-I 0 W/m 12,8 C 14,8 C 4,8 km/h (1 Bft) 100,00 %
04.07.2016 04:08 14,8 C 88 % 1021,0 hPa 0,0 l/m 2,1 km/h (1 Bft) S-SW 200 0 min 0,000 mm 0,0 UV-I 0 W/m 12,8 C 14,8 C 3,2 km/h (1 Bft) 100,00 %
04.07.2016 04:10 14,8 C 88 % 1021,0 hPa 0,0 l/m 1,5 km/h (1 Bft) S-SW 200 0 min 0,000 mm 0,0 UV-I 0 W/m 12,8 C 14,8 C 3,2 km/h (1 Bft) 100,00 %
04.07.2016 04:12 14,8 C 88 % 1021,0 hPa 0,0 l/m 1,7 km/h (1 Bft) S-SW 200 0 min 0,000 mm 0,0 UV-I 0 W/m 12,8 C 14,8 C 3,2 km/h (1 Bft) 98,39 %
04.07.2016 04:14 14,8 C 88 % 1021,0 hPa 0,0 l/m 2,3 km/h (1 Bft) S-SW 200 0 min 0,000 mm 0,0 UV-I 0 W/m 12,8 C 14,8 C 4,8 km/h (1 Bft) 100,00 %
04.07.2016 04:16 14,8 C 88 % 1021,0 hPa 0,0 l/m 1,3 km/h (1 Bft) S-SW 200 0 min 0,000 mm 0,0 UV-I 0 W/m 12,8 C 14,8 C 3,2 km/h (1 Bft) 100,00 %
04.07.2016 04:18 14,8 C 88 % 1021,0 hPa 0,0 l/m 1,5 km/h (1 Bft) S-SW 200 0 min 0,000 mm 0,0 UV-I 0 W/m 12,8 C 14,8 C 3,2 km/h (1 Bft) 100,00 %
04.07.2016 04:20 14,8 C 88 % 1021,0 hPa 0,0 l/m 1,9 km/h (1 Bft) S-SW 200 0 min 0,000 mm 0,0 UV-I 0 W/m 12,8 C 14,8 C 3,2 km/h (1 Bft) 100,00 %
04.07.2016 04:22 14,8 C 88 % 1021,0 hPa 0,0 l/m 1,5 km/h (1 Bft) S-SW 200 0 min 0,000 mm 0,0 UV-I 0 W/m 12,8 C 14,8 C 3,2 km/h (1 Bft) 100,00 %
04.07.2016 04:24 14,8 C 88 % 1021,0 hPa 0,0 l/m 1,4 km/h (1 Bft) S-SW 200 0 min 0,000 mm 0,0 UV-I 0 W/m 12,8 C 14,8 C 3,2 km/h (1 Bft) 100,00 %
04.07.2016 04:26 14,8 C 87 % 1021,0 hPa 0,0 l/m 2,6 km/h (1 Bft) S-SW 200 0 min 0,000 mm 0,0 UV-I 0 W/m 12,7 C 14,8 C 4,8 km/h (1 Bft) 100,00 %
04.07.2016 04:28 14,8 C 88 % 1021,1 hPa 0,0 l/m 3,0 km/h (1 Bft) S-SW 200 0 min 0,000 mm 0,0 UV-I 0 W/m 12,8 C 14,8 C 4,8 km/h (1 Bft) 100,00 %
04.07.2016 04:30 14,8 C 88 % 1021,1 hPa 0,0 l/m 2,5 km/h (1 Bft) S-SW 200 0 min 0,000 mm 0,0 UV-I 0 W/m 12,8 C 14,8 C 4,8 km/h (1 Bft) 100,00 %
04.07.2016 04:32 14,8 C 88 % 1021,1 hPa 0,0 l/m 2,8 km/h (1 Bft) S-SW 200 0 min 0,000 mm 0,0 UV-I 0 W/m 12,8 C 14,8 C 4,8 km/h (1 Bft) 100,00 %
04.07.2016 04:34 14,8 C 87 % 1021,0 hPa 0,0 l/m 3,6 km/h (1 Bft) S-SW 200 0 min 0,000 mm 0,0 UV-I 0 W/m 12,7 C 14,8 C 6,4 km/h (2 Bft) 100,00 %
04.07.2016 04:36 14,8 C 88 % 1021,0 hPa 0,0 l/m 3,4 km/h (1 Bft) S-SW 200 0 min 0,000 mm 0,0 UV-I 0 W/m 12,8 C 14,8 C 4,8 km/h (1 Bft) 100,00 %
04.07.2016 04:38 14,7 C 88 % 1021,1 hPa 0,0 l/m 4,0 km/h (1 Bft) S-SW 200 0 min 0,000 mm 0,0 UV-I 0 W/m 12,7 C 14,7 C 4,8 km/h (1 Bft) 97,87 %
04.07.2016 04:40 14,8 C 88 % 1021,0 hPa 0,0 l/m 3,9 km/h (1 Bft) S-SW 200 0 min 0,000 mm 0,0 UV-I 0 W/m 12,8 C 14,8 C 6,4 km/h (2 Bft) 100,00 %
04.07.2016 04:42 14,7 C 88 % 1021,0 hPa 0,0 l/m 2,8 km/h (1 Bft) S-SW 200 0 min 0,000 mm 0,0 UV-I 0 W/m 12,7 C 14,7 C 4,8 km/h (1 Bft) 100,00 %
04.07.2016 04:44 14,7 C 88 % 1021,1 hPa 0,0 l/m 2,5 km/h (1 Bft) S-SW 200 0 min 0,000 mm 0,0 UV-I 0 W/m 12,7 C 14,7 C 3,2 km/h (1 Bft) 100,00 %
04.07.2016 04:46 14,7 C 88 % 1021,1 hPa 0,0 l/m 2,2 km/h (1 Bft) S-SW 200 0 min 0,000 mm 0,0 UV-I 0 W/m 12,7 C 14,7 C 4,8 km/h (1 Bft) 100,00 %
04.07.2016 04:48 14,7 C 88 % 1021,1 hPa 0,0 l/m 2,8 km/h (1 Bft) S-SW 200 0 min 0,000 mm 0,0 UV-I 0 W/m 12,7 C 14,7 C 4,8 km/h (1 Bft) 97,87 %
04.07.2016 04:50 14,7 C 88 % 1021,1 hPa 0,0 l/m 3,6 km/h (1 Bft) S-SW 200 0 min 0,000 mm 0,0 UV-I 0 W/m 12,7 C 14,7 C 4,8 km/h (1 Bft) 100,00 %
04.07.2016 04:52 14,7 C 88 % 1021,1 hPa 0,0 l/m 3,2 km/h (1 Bft) S-SW 200 0 min 0,000 mm 0,0 UV-I 0 W/m 12,7 C 14,7 C 4,8 km/h (1 Bft) 100,00 %
04.07.2016 04:54 14,6 C 88 % 1021,1 hPa 0,0 l/m 2,8 km/h (1 Bft) S-SW 200 0 min 0,000 mm 0,0 UV-I 0 W/m 12,6 C 14,6 C 3,2 km/h (1 Bft) 100,00 %
04.07.2016 04:56 14,6 C 89 % 1021,1 hPa 0,0 l/m 3,0 km/h (1 Bft) S-SW 200 0 min 0,000 mm 0,0 UV-I 0 W/m 12,8 C 14,6 C 4,8 km/h (1 Bft) 100,00 %
04.07.2016 04:58 14,5 C 89 % 1021,1 hPa 0,0 l/m 2,0 km/h (1 Bft) S-SW 200 0 min 0,000 mm 0,0 UV-I 0 W/m 12,7 C 14,5 C 3,2 km/h (1 Bft) 100,00 %
04.07.2016 05:00 14,5 C 89 % 1021,1 hPa 0,0 l/m 2,1 km/h (1 Bft) S-SW 198 0 min 0,000 mm 0,0 UV-I 0 W/m 12,7 C 14,5 C 4,8 km/h (1 Bft) 97,87 %
04.07.2016 05:02 14,4 C 89 % 1021,1 hPa 0,0 l/m 3,0 km/h (1 Bft) S-SW 198 0 min 0,000 mm 0,0 UV-I 0 W/m 12,6 C 14,4 C 6,4 km/h (2 Bft) 97,87 %
04.07.2016 05:04 14,4 C 89 % 1021,0 hPa 0,0 l/m 1,6 km/h (1 Bft) S-SW 198 0 min 0,000 mm 0,0 UV-I 0 W/m 12,6 C 14,4 C 3,2 km/h (1 Bft) 97,87 %
04.07.2016 05:06 14,3 C 89 % 1021,1 hPa 0,0 l/m 1,3 km/h (1 Bft) S-SW 198 0 min 0,000 mm 0,0 UV-I 0 W/m 12,5 C 14,3 C 3,2 km/h (1 Bft) 97,87 %
04.07.2016 05:08 14,2 C 89 % 1021,1 hPa 0,0 l/m 1,0 km/h (0 Bft) S-SW 198 0 min 0,000 mm 0,0 UV-I 1 W/m 12,4 C 14,2 C 3,2 km/h (1 Bft) 96,00 %
04.07.2016 05:10 14,2 C 89 % 1021,0 hPa 0,0 l/m 2,6 km/h (1 Bft) S-SW 198 0 min 0,000 mm 0,0 UV-I 5 W/m 12,4 C 14,2 C 4,8 km/h (1 Bft) 97,87 %
04.07.2016 05:12 14,2 C 89 % 1021,1 hPa 0,0 l/m 0,9 km/h (0 Bft) S-SW 198 0 min 0,000 mm 0,0 UV-I 5 W/m 12,4 C 14,2 C 3,2 km/h (1 Bft) 95,74 %
04.07.2016 05:14 14,2 C 89 % 1021,0 hPa 0,0 l/m 0,8 km/h (0 Bft) S-SW 198 0 min 0,000 mm 0,0 UV-I 5 W/m 12,4 C 14,2 C 1,6 km/h (1 Bft) 97,37 %
04.07.2016 05:16 14,1 C 89 % 1021,1 hPa 0,0 l/m 1,0 km/h (0 Bft) S-SW 198 0 min 0,000 mm 0,0 UV-I 5 W/m 12,3 C 14,1 C 3,2 km/h (1 Bft) 93,62 %
04.07.2016 05:18 14,1 C 89 % 1021,1 hPa 0,0 l/m 0,2 km/h (0 Bft) S-SW 198 0 min 0,000 mm 0,0 UV-I 5 W/m 12,3 C 14,1 C 1,6 km/h (1 Bft) 93,75 %
04.07.2016 05:20 13,9 C 89 % 1021,1 hPa 0,0 l/m 1,6 km/h (1 Bft) S-SW 198 0 min 0,000 mm 0,0 UV-I 7 W/m 12,1 C 13,9 C 4,8 km/h (1 Bft) 97,87 %
04.07.2016 05:22 13,9 C 89 % 1021,1 hPa 0,0 l/m 1,6 km/h (1 Bft) S-SW 198 0 min 0,000 mm 0,0 UV-I 7 W/m 12,1 C 13,9 C 3,2 km/h (1 Bft) 96,00 %
04.07.2016 05:24 13,9 C 89 % 1021,1 hPa 0,0 l/m 0,9 km/h (0 Bft) S-SW 198 0 min 0,000 mm 0,0 UV-I 7 W/m 12,1 C 13,9 C 3,2 km/h (1 Bft) 93,62 %
04.07.2016 05:26 13,9 C 89 % 1021,1 hPa 0,0 l/m 1,4 km/h (1 Bft) S-SW 198 0 min 0,000 mm 0,0 UV-I 8 W/m 12,1 C 13,9 C 1,6 km/h (1 Bft) 97,87 %
04.07.2016 05:28 13,9 C 89 % 1021,2 hPa 0,0 l/m 2,0 km/h (1 Bft) S-SW 198 0 min 0,000 mm 0,0 UV-I 9 W/m 12,1 C 13,9 C 3,2 km/h (1 Bft) 97,87 %
04.07.2016 05:30 14,0 C 89 % 1021,1 hPa 0,0 l/m 2,1 km/h (1 Bft) S-SW 198 0 min 0,000 mm 0,0 UV-I 9 W/m 12,2 C 14,0 C 3,2 km/h (1 Bft) 95,74 %
04.07.2016 05:32 14,0 C 89 % 1021,1 hPa 0,0 l/m 2,5 km/h (1 Bft) S-SW 198 0 min 0,000 mm 0,0 UV-I 9 W/m 12,2 C 14,0 C 3,2 km/h (1 Bft) 96,00 %
04.07.2016 05:34 14,0 C 89 % 1021,1 hPa 0,0 l/m 2,6 km/h (1 Bft) S-SW 198 0 min 0,000 mm 0,0 UV-I 11 W/m 12,2 C 14,0 C 3,2 km/h (1 Bft) 97,37 %
04.07.2016 05:36 13,9 C 89 % 1021,1 hPa 0,0 l/m 2,4 km/h (1 Bft) S-SW 198 0 min 0,000 mm 0,0 UV-I 12 W/m 12,1 C 13,9 C 3,2 km/h (1 Bft) 95,74 %
04.07.2016 05:38 13,9 C 89 % 1021,1 hPa 0,0 l/m 2,2 km/h (1 Bft) S-SW 198 0 min 0,000 mm 0,0 UV-I 14 W/m 12,1 C 13,9 C 3,2 km/h (1 Bft) 100,00 %
04.07.2016 05:40 13,9 C 90 % 1021,1 hPa 0,0 l/m 2,6 km/h (1 Bft) S-SW 198 0 min 0,000 mm 0,0 UV-I 16 W/m 12,3 C 13,9 C 3,2 km/h (1 Bft) 100,00 %
04.07.2016 05:42 13,8 C 90 % 1021,2 hPa 0,0 l/m 2,4 km/h (1 Bft) S-SW 198 0 min 0,000 mm 0,0 UV-I 17 W/m 12,2 C 13,8 C 3,2 km/h (1 Bft) 96,00 %
04.07.2016 05:44 13,8 C 90 % 1021,2 hPa 0,0 l/m 1,7 km/h (1 Bft) S-SW 198 0 min 0,000 mm 0,0 UV-I 18 W/m 12,2 C 13,8 C 3,2 km/h (1 Bft) 100,00 %
04.07.2016 05:46 13,7 C 90 % 1021,2 hPa 0,0 l/m 2,8 km/h (1 Bft) S-SW 198 0 min 0,000 mm 0,0 UV-I 18 W/m 12,1 C 13,7 C 4,8 km/h (1 Bft) 100,00 %
04.07.2016 05:48 13,7 C 91 % 1021,2 hPa 0,0 l/m 2,8 km/h (1 Bft) S-SW 198 0 min 0,000 mm 0,0 UV-I 19 W/m 12,3 C 13,7 C 3,2 km/h (1 Bft) 93,62 %
04.07.2016 05:50 13,7 C 91 % 1021,2 hPa 0,0 l/m 1,9 km/h (1 Bft) S-SW 198 0 min 0,000 mm 0,0 UV-I 20 W/m 12,3 C 13,7 C 3,2 km/h (1 Bft) 100,00 %
04.07.2016 05:52 13,6 C 91 % 1021,2 hPa 0,0 l/m 1,1 km/h (1 Bft) S-SW 198 0 min 0,000 mm 0,0 UV-I 23 W/m 12,2 C 13,6 C 3,2 km/h (1 Bft) 95,74 %
04.07.2016 05:54 13,5 C 91 % 1021,2 hPa 0,0 l/m 0,4 km/h (0 Bft) S-SW 198 0 min 0,000 mm 0,0 UV-I 23 W/m 12,1 C 13,5 C 1,6 km/h (1 Bft) 100,00 %
04.07.2016 05:56 13,4 C 91 % 1021,2 hPa 0,0 l/m 0,3 km/h (0 Bft) S-SW 198 0 min 0,000 mm 0,0 UV-I 23 W/m 12,0 C 13,4 C 1,6 km/h (1 Bft) 97,87 %
04.07.2016 05:58 13,4 C 91 % 1021,2 hPa 0,0 l/m 0,2 km/h (0 Bft) S-SW 198 0 min 0,000 mm 0,0 UV-I 23 W/m 12,0 C 13,4 C 1,6 km/h (1 Bft) 100,00 %
04.07.2016 06:00 13,4 C 91 % 1021,1 hPa 0,0 l/m 0,9 km/h (0 Bft) S-SW 198 0 min 0,000 mm 0,0 UV-I 25 W/m 12,0 C 13,4 C 1,6 km/h (1 Bft) 100,00 %
04.07.2016 06:02 13,3 C 92 % 1021,1 hPa 0,0 l/m 0,4 km/h (0 Bft) S-SW 198 0 min 0,000 mm 0,0 UV-I 26 W/m 12,0 C 13,3 C 1,6 km/h (1 Bft) 100,00 %
04.07.2016 06:04 13,4 C 92 % 1021,2 hPa 0,0 l/m 0,1 km/h (0 Bft) S-SW 198 0 min 0,000 mm 0,0 UV-I 28 W/m 12,1 C 13,4 C 1,6 km/h (1 Bft) 97,87 %
04.07.2016 06:06 13,4 C 92 % 1021,1 hPa 0,0 l/m 0,4 km/h (0 Bft) S-SW 198 0 min 0,000 mm 0,0 UV-I 32 W/m 12,1 C 13,4 C 3,2 km/h (1 Bft) 100,00 %
04.07.2016 06:08 13,4 C 92 % 1021,2 hPa 0,0 l/m 1,0 km/h (0 Bft) S-SW 198 0 min 0,000 mm 0,0 UV-I 33 W/m 12,1 C 13,4 C 3,2 km/h (1 Bft) 100,00 %
04.07.2016 06:10 13,5 C 91 % 1021,1 hPa 0,0 l/m 1,2 km/h (1 Bft) S-SW 198 0 min 0,000 mm 0,0 UV-I 33 W/m 12,1 C 13,5 C 3,2 km/h (1 Bft) 100,00 %
04.07.2016 06:12 13,5 C 91 % 1021,1 hPa 0,0 l/m 1,1 km/h (1 Bft) S-SW 198 0 min 0,000 mm 0,0 UV-I 35 W/m 12,1 C 13,5 C 1,6 km/h (1 Bft) 100,00 %
04.07.2016 06:14 13,5 C 91 % 1021,1 hPa 0,0 l/m 0,8 km/h (0 Bft) S-SW 198 0 min 0,000 mm 0,0 UV-I 35 W/m 12,1 C 13,5 C 1,6 km/h (1 Bft) 100,00 %
04.07.2016 06:16 13,5 C 91 % 1021,1 hPa 0,0 l/m 1,0 km/h (0 Bft) S-SW 198 0 min 0,000 mm 0,0 UV-I 37 W/m 12,1 C 13,5 C 1,6 km/h (1 Bft) 97,87 %
04.07.2016 06:18 13,6 C 91 % 1021,1 hPa 0,0 l/m 0,7 km/h (0 Bft) S-SW 198 0 min 0,000 mm 0,0 UV-I 38 W/m 12,2 C 13,6 C 1,6 km/h (1 Bft) 100,00 %
04.07.2016 06:20 13,6 C 91 % 1021,0 hPa 0,0 l/m 1,0 km/h (0 Bft) S-SW 198 0 min 0,000 mm 0,0 UV-I 42 W/m 12,2 C 13,6 C 3,2 km/h (1 Bft) 100,00 %
04.07.2016 06:22 13,7 C 91 % 1021,0 hPa 0,0 l/m 1,0 km/h (0 Bft) S-SW 198 0 min 0,000 mm 0,0 UV-I 46 W/m 12,3 C 13,7 C 3,2 km/h (1 Bft) 100,00 %
04.07.2016 06:24 13,7 C 91 % 1021,0 hPa 0,0 l/m 0,7 km/h (0 Bft) S-SW 198 0 min 0,000 mm 0,0 UV-I 51 W/m 12,3 C 13,7 C 3,2 km/h (1 Bft) 100,00 %
04.07.2016 06:26 13,8 C 91 % 1021,0 hPa 0,0 l/m 0,4 km/h (0 Bft) S-SW 198 0 min 0,000 mm 0,0 UV-I 53 W/m 12,4 C 13,8 C 1,6 km/h (1 Bft) 100,00 %
04.07.2016 06:28 13,9 C 91 % 1021,1 hPa 0,0 l/m 1,1 km/h (1 Bft) S-SW 198 0 min 0,000 mm 0,0 UV-I 55 W/m 12,5 C 13,9 C 3,2 km/h (1 Bft) 100,00 %
04.07.2016 06:30 14,0 C 90 % 1021,1 hPa 0,0 l/m 1,5 km/h (1 Bft) S-SW 198 0 min 0,000 mm 0,0 UV-I 57 W/m 12,4 C 14,0 C 3,2 km/h (1 Bft) 100,00 %
04.07.2016 06:32 14,1 C 89 % 1021,1 hPa 0,0 l/m 0,5 km/h (0 Bft) S-SW 198 0 min 0,000 mm 0,0 UV-I 57 W/m 12,3 C 14,1 C 1,6 km/h (1 Bft) 100,00 %
04.07.2016 06:34 14,2 C 90 % 1021,1 hPa 0,0 l/m 0,6 km/h (0 Bft) S-SW 198 0 min 0,000 mm 0,0 UV-I 56 W/m 12,6 C 14,2 C 1,6 km/h (1 Bft) 100,00 %
04.07.2016 06:36 14,1 C 91 % 1021,1 hPa 0,0 l/m 0,1 km/h (0 Bft) S-SW 198 0 min 0,000 mm 0,0 UV-I 56 W/m 12,7 C 14,1 C 1,6 km/h (1 Bft) 100,00 %
04.07.2016 06:38 14,0 C 91 % 1021,1 hPa 0,0 l/m 0,0 km/h (0 Bft) S-SW 198 0 min 0,000 mm 0,0 UV-I 57 W/m 12,6 C 14,0 C 0,0 km/h (0 Bft) 100,00 %
04.07.2016 06:40 13,9 C 91 % 1021,2 hPa 0,0 l/m 0,4 km/h (0 Bft) S-SW 198 0 min 0,000 mm 0,0 UV-I 64 W/m 12,5 C 13,9 C 1,6 km/h (1 Bft) 97,87 %
04.07.2016 06:42 13,9 C 91 % 1021,2 hPa 0,0 l/m 1,0 km/h (0 Bft) S-SW 198 0 min 0,000 mm 0,0 UV-I 70 W/m 12,5 C 13,9 C 1,6 km/h (1 Bft) 100,00 %
04.07.2016 06:44 13,9 C 91 % 1021,2 hPa 0,0 l/m 0,8 km/h (0 Bft) S-SW 198 0 min 0,000 mm 0,0 UV-I 100 W/m 12,5 C 13,9 C 1,6 km/h (1 Bft) 100,00 %
04.07.2016 06:46 14,0 C 91 % 1021,2 hPa 0,0 l/m 1,0 km/h (0 Bft) S-SW 198 2 min 0,000 mm 0,0 UV-I 132 W/m 12,6 C 14,0 C 1,6 km/h (1 Bft) 100,00 %
04.07.2016 06:48 14,1 C 91 % 1021,2 hPa 0,0 l/m 0,3 km/h (0 Bft) S-SW 198 2 min 0,000 mm 0,0 UV-I 130 W/m 12,7 C 14,1 C 1,6 km/h (1 Bft) 100,00 %
04.07.2016 06:50 14,2 C 91 % 1021,2 hPa 0,0 l/m 1,0 km/h (0 Bft) S-SW 198 2 min 0,000 mm 0,0 UV-I 136 W/m 12,8 C 14,2 C 1,6 km/h (1 Bft) 100,00 %
04.07.2016 06:52 14,3 C 91 % 1021,2 hPa 0,0 l/m 0,8 km/h (0 Bft) S-SW 198 2 min 0,000 mm 0,0 UV-I 145 W/m 12,8 C 14,3 C 3,2 km/h (1 Bft) 97,87 %
04.07.2016 06:54 14,4 C 89 % 1021,2 hPa 0,0 l/m 1,4 km/h (1 Bft) S-SW 198 2 min 0,000 mm 0,0 UV-I 158 W/m 12,6 C 14,4 C 3,2 km/h (1 Bft) 100,00 %
04.07.2016 06:56 14,6 C 88 % 1021,2 hPa 0,0 l/m 1,8 km/h (1 Bft) S-SW 198 2 min 0,000 mm 0,0 UV-I 167 W/m 12,6 C 14,6 C 3,2 km/h (1 Bft) 100,00 %
04.07.2016 06:58 14,7 C 88 % 1021,2 hPa 0,0 l/m 0,0 km/h (0 Bft) S-SW 198 2 min 0,000 mm 0,0 UV-I 176 W/m 12,7 C 14,7 C 0,0 km/h (0 Bft) 100,00 %
04.07.2016 07:00 14,8 C 88 % 1021,2 hPa 0,0 l/m 1,0 km/h (0 Bft) S-SW 198 2 min 0,051 mm 0,0 UV-I 186 W/m 12,8 C 14,8 C 3,2 km/h (1 Bft) 95,74 %
04.07.2016 07:02 14,9 C 87 % 1021,2 hPa 0,0 l/m 0,6 km/h (0 Bft) S-SW 198 2 min 0,000 mm 0,0 UV-I 196 W/m 12,8 C 14,9 C 3,2 km/h (1 Bft) 95,74 %
04.07.2016 07:04 15,1 C 86 % 1021,2 hPa 0,0 l/m 1,2 km/h (1 Bft) S-SW 198 2 min 0,000 mm 0,0 UV-I 206 W/m 12,8 C 15,1 C 1,6 km/h (1 Bft) 95,74 %
04.07.2016 07:06 15,3 C 86 % 1021,3 hPa 0,0 l/m 1,9 km/h (1 Bft) S-SW 198 2 min 0,000 mm 0,0 UV-I 198 W/m 13,0 C 15,3 C 4,8 km/h (1 Bft) 97,37 %
04.07.2016 07:08 15,4 C 86 % 1021,3 hPa 0,0 l/m 2,5 km/h (1 Bft) S-SW 198 2 min 0,000 mm 0,4 UV-I 237 W/m 13,1 C 15,4 C 4,8 km/h (1 Bft) 98,00 %
04.07.2016 07:10 15,6 C 85 % 1021,3 hPa 0,0 l/m 2,9 km/h (1 Bft) S-SW 198 2 min 0,000 mm 0,5 UV-I 249 W/m 13,1 C 15,6 C 4,8 km/h (1 Bft) 97,96 %
04.07.2016 07:12 15,7 C 84 % 1021,3 hPa 0,0 l/m 3,1 km/h (1 Bft) S-SW 198 2 min 0,000 mm 0,5 UV-I 244 W/m 13,0 C 15,7 C 4,8 km/h (1 Bft) 95,74 %
04.07.2016 07:14 15,8 C 83 % 1021,3 hPa 0,0 l/m 2,7 km/h (1 Bft) S-SW 198 2 min 0,000 mm 0,5 UV-I 179 W/m 12,9 C 15,8 C 4,8 km/h (1 Bft) 97,87 %
04.07.2016 07:16 15,8 C 81 % 1021,4 hPa 0,0 l/m 1,9 km/h (1 Bft) S-SW 198 2 min 0,000 mm 0,5 UV-I 244 W/m 12,5 C 15,8 C 3,2 km/h (1 Bft) 95,74 %
04.07.2016 07:18 15,8 C 80 % 1021,4 hPa 0,0 l/m 2,2 km/h (1 Bft) S-SW 198 2 min 0,000 mm 0,5 UV-I 270 W/m 12,4 C 15,8 C 3,2 km/h (1 Bft) 93,62 %
04.07.2016 07:20 15,8 C 81 % 1021,4 hPa 0,0 l/m 0,5 km/h (0 Bft) S-SW 198 2 min 0,000 mm 0,5 UV-I 220 W/m 12,5 C 15,8 C 3,2 km/h (1 Bft) 94,74 %
04.07.2016 07:22 16,0 C 82 % 1021,3 hPa 0,0 l/m 2,3 km/h (1 Bft) S-SW 207 2 min 0,000 mm 0,6 UV-I 268 W/m 12,9 C 16,0 C 3,2 km/h (1 Bft) 96,00 %
04.07.2016 07:24 16,1 C 79 % 1021,4 hPa 0,0 l/m 0,4 km/h (0 Bft) S-SW 207 2 min 0,000 mm 0,6 UV-I 313 W/m 12,5 C 16,1 C 1,6 km/h (1 Bft) 95,74 %
04.07.2016 07:26 16,2 C 79 % 1021,3 hPa 0,0 l/m 0,2 km/h (0 Bft) S-SW 207 2 min 0,000 mm 0,6 UV-I 289 W/m 12,6 C 16,2 C 1,6 km/h (1 Bft) 97,87 %
04.07.2016 07:28 16,3 C 78 % 1021,3 hPa 0,0 l/m 1,2 km/h (1 Bft) S-SW 207 2 min 0,000 mm 0,6 UV-I 238 W/m 12,5 C 16,3 C 3,2 km/h (1 Bft) 97,87 %
04.07.2016 07:30 16,3 C 78 % 1021,3 hPa 0,0 l/m 2,2 km/h (1 Bft) S-SW 198 2 min 0,000 mm 0,6 UV-I 243 W/m 12,5 C 16,3 C 3,2 km/h (1 Bft) 97,96 %
04.07.2016 07:32 16,3 C 80 % 1021,4 hPa 0,0 l/m 3,1 km/h (1 Bft) S-SW 198 2 min 0,000 mm 0,6 UV-I 298 W/m 12,8 C 16,3 C 4,8 km/h (1 Bft) 93,62 %
04.07.2016 07:34 16,4 C 79 % 1021,4 hPa 0,0 l/m 1,5 km/h (1 Bft) S-SW 198 2 min 0,000 mm 0,6 UV-I 224 W/m 12,7 C 16,4 C 3,2 km/h (1 Bft) 95,65 %
04.07.2016 07:36 16,4 C 78 % 1021,4 hPa 0,0 l/m 2,1 km/h (1 Bft) S-SW 198 2 min 0,000 mm 0,6 UV-I 248 W/m 12,6 C 16,4 C 3,2 km/h (1 Bft) 100,00 %
04.07.2016 07:38 16,4 C 78 % 1021,4 hPa 0,0 l/m 0,8 km/h (0 Bft) S-SW 198 2 min 0,000 mm 0,6 UV-I 222 W/m 12,6 C 16,4 C 3,2 km/h (1 Bft) 100,00 %
04.07.2016 07:40 16,6 C 79 % 1021,3 hPa 0,0 l/m 1,9 km/h (1 Bft) S-SW 198 2 min 0,000 mm 0,6 UV-I 216 W/m 12,9 C 16,6 C 3,2 km/h (1 Bft) 100,00 %
04.07.2016 07:42 16,6 C 81 % 1021,3 hPa 0,0 l/m 1,3 km/h (1 Bft) S-SW 198 2 min 0,000 mm 0,6 UV-I 210 W/m 13,3 C 16,6 C 3,2 km/h (1 Bft) 97,87 %
04.07.2016 07:44 16,6 C 78 % 1021,3 hPa 0,0 l/m 0,7 km/h (0 Bft) S-SW 198 0 min 0,000 mm 0,6 UV-I 199 W/m 12,7 C 16,6 C 1,6 km/h (1 Bft) 100,00 %
04.07.2016 07:46 16,6 C 80 % 1021,4 hPa 0,0 l/m 2,1 km/h (1 Bft) S-SW 198 0 min 0,000 mm 0,6 UV-I 194 W/m 13,1 C 16,6 C 3,2 km/h (1 Bft) 97,87 %
04.07.2016 07:48 16,6 C 77 % 1021,4 hPa 0,0 l/m 1,9 km/h (1 Bft) S-SW 198 0 min 0,000 mm 0,7 UV-I 193 W/m 12,5 C 16,6 C 4,8 km/h (1 Bft) 97,87 %
04.07.2016 07:50 16,6 C 77 % 1021,4 hPa 0,0 l/m 1,4 km/h (1 Bft) S-SW 198 0 min 0,000 mm 0,7 UV-I 195 W/m 12,5 C 16,6 C 3,2 km/h (1 Bft) 100,00 %
04.07.2016 07:52 16,6 C 76 % 1021,3 hPa 0,0 l/m 0,2 km/h (0 Bft) S-SW 198 0 min 0,000 mm 0,7 UV-I 193 W/m 12,3 C 16,6 C 1,6 km/h (1 Bft) 100,00 %
04.07.2016 07:54 16,6 C 78 % 1021,4 hPa 0,0 l/m 0,3 km/h (0 Bft) S-SW 198 0 min 0,000 mm 0,7 UV-I 194 W/m 12,7 C 16,6 C 1,6 km/h (1 Bft) 100,00 %
04.07.2016 07:56 16,6 C 75 % 1021,4 hPa 0,0 l/m 0,0 km/h (0 Bft) S-SW 198 0 min 0,000 mm 0,7 UV-I 200 W/m 12,1 C 16,6 C 1,6 km/h (1 Bft) 100,00 %
04.07.2016 07:58 16,6 C 76 % 1021,4 hPa 0,0 l/m 0,2 km/h (0 Bft) S-SW 198 0 min 0,000 mm 0,7 UV-I 205 W/m 12,3 C 16,6 C 1,6 km/h (1 Bft) 100,00 %
04.07.2016 08:00 16,6 C 76 % 1021,3 hPa 0,0 l/m 1,0 km/h (0 Bft) S-SW 198 0 min 0,127 mm 0,8 UV-I 206 W/m 12,3 C 16,6 C 3,2 km/h (1 Bft) 100,00 %
04.07.2016 08:02 16,7 C 76 % 1021,3 hPa 0,0 l/m 2,6 km/h (1 Bft) SO 140 0 min 0,000 mm 0,8 UV-I 208 W/m 12,4 C 16,7 C 4,8 km/h (1 Bft) 100,00 %
04.07.2016 08:04 16,8 C 77 % 1021,3 hPa 0,0 l/m 2,9 km/h (1 Bft) SO 140 0 min 0,000 mm 0,8 UV-I 211 W/m 12,7 C 16,8 C 4,8 km/h (1 Bft) 100,00 %
04.07.2016 08:06 16,8 C 75 % 1021,3 hPa 0,0 l/m 2,6 km/h (1 Bft) SO 137 0 min 0,000 mm 0,9 UV-I 212 W/m 12,3 C 16,8 C 4,8 km/h (1 Bft) 100,00 %
04.07.2016 08:08 16,8 C 77 % 1021,3 hPa 0,0 l/m 0,4 km/h (0 Bft) SO 137 0 min 0,000 mm 0,9 UV-I 217 W/m 12,7 C 16,8 C 1,6 km/h (1 Bft) 97,87 %
04.07.2016 08:10 16,8 C 74 % 1021,3 hPa 0,0 l/m 0,7 km/h (0 Bft) SO 137 0 min 0,000 mm 1,0 UV-I 229 W/m 12,1 C 16,8 C 1,6 km/h (1 Bft) 100,00 %
04.07.2016 08:12 16,9 C 78 % 1021,3 hPa 0,0 l/m 0,1 km/h (0 Bft) SO 137 0 min 0,000 mm 1,0 UV-I 236 W/m 13,0 C 16,9 C 1,6 km/h (1 Bft) 97,14 %
04.07.2016 08:14 17,0 C 77 % 1021,3 hPa 0,0 l/m 0,5 km/h (0 Bft) SO 137 0 min 0,000 mm 1,0 UV-I 248 W/m 12,9 C 17,0 C 1,6 km/h (1 Bft) 100,00 %
04.07.2016 08:16 17,1 C 78 % 1021,3 hPa 0,0 l/m 1,0 km/h (0 Bft) SO 137 2 min 0,000 mm 1,1 UV-I 258 W/m 13,2 C 17,1 C 3,2 km/h (1 Bft) 98,11 %
04.07.2016 08:18 17,1 C 79 % 1021,2 hPa 0,0 l/m 0,6 km/h (0 Bft) SO 136 2 min 0,000 mm 1,1 UV-I 265 W/m 13,4 C 17,1 C 3,2 km/h (1 Bft) 97,37 %
04.07.2016 08:20 17,2 C 77 % 1021,2 hPa 0,0 l/m 0,2 km/h (0 Bft) O-SO 109 2 min 0,000 mm 1,1 UV-I 262 W/m 13,1 C 17,2 C 3,2 km/h (1 Bft) 100,00 %
04.07.2016 08:22 17,2 C 77 % 1021,2 hPa 0,0 l/m 2,6 km/h (1 Bft) NO 54 2 min 0,000 mm 1,2 UV-I 267 W/m 13,1 C 17,2 C 4,8 km/h (1 Bft) 100,00 %
04.07.2016 08:24 17,3 C 75 % 1021,1 hPa 0,0 l/m 3,0 km/h (1 Bft) NO 54 0 min 0,000 mm 1,2 UV-I 255 W/m 12,8 C 17,3 C 6,4 km/h (2 Bft) 100,00 %
04.07.2016 08:26 17,2 C 75 % 1021,1 hPa 0,0 l/m 2,1 km/h (1 Bft) NO 54 0 min 0,000 mm 1,2 UV-I 260 W/m 12,7 C 17,2 C 3,2 km/h (1 Bft) 97,87 %
04.07.2016 08:28 17,2 C 74 % 1021,1 hPa 0,0 l/m 3,4 km/h (1 Bft) O 84 2 min 0,000 mm 1,3 UV-I 292 W/m 12,5 C 17,2 C 4,8 km/h (1 Bft) 97,87 %
04.07.2016 08:30 17,2 C 73 % 1021,2 hPa 0,0 l/m 2,3 km/h (1 Bft) O-NO 61 2 min 0,000 mm 1,4 UV-I 322 W/m 12,3 C 17,2 C 4,8 km/h (1 Bft) 100,00 %
04.07.2016 08:32 17,2 C 74 % 1021,1 hPa 0,0 l/m 0,4 km/h (0 Bft) O-NO 61 2 min 0,000 mm 1,4 UV-I 328 W/m 12,5 C 17,2 C 3,2 km/h (1 Bft) 100,00 %
04.07.2016 08:34 17,3 C 75 % 1021,1 hPa 0,0 l/m 1,2 km/h (1 Bft) O-NO 61 2 min 0,000 mm 1,4 UV-I 306 W/m 12,8 C 17,3 C 3,2 km/h (1 Bft) 97,87 %
04.07.2016 08:36 17,4 C 75 % 1021,1 hPa 0,0 l/m 2,0 km/h (1 Bft) NO 51 2 min 0,000 mm 1,4 UV-I 302 W/m 12,9 C 17,4 C 4,8 km/h (1 Bft) 100,00 %
04.07.2016 08:38 17,5 C 75 % 1021,1 hPa 0,0 l/m 0,9 km/h (0 Bft) NO 51 2 min 0,000 mm 1,4 UV-I 315 W/m 13,0 C 17,5 C 3,2 km/h (1 Bft) 97,87 %
04.07.2016 08:40 17,6 C 76 % 1021,1 hPa 0,0 l/m 3,0 km/h (1 Bft) NO 48 2 min 0,000 mm 1,5 UV-I 327 W/m 13,3 C 17,6 C 4,8 km/h (1 Bft) 100,00 %
04.07.2016 08:42 17,7 C 71 % 1021,1 hPa 0,0 l/m 1,3 km/h (1 Bft) NO 47 2 min 0,000 mm 1,5 UV-I 312 W/m 12,4 C 17,7 C 4,8 km/h (1 Bft) 98,00 %
04.07.2016 08:44 17,7 C 72 % 1021,0 hPa 0,0 l/m 1,6 km/h (1 Bft) O 86 2 min 0,000 mm 1,5 UV-I 295 W/m 12,6 C 17,7 C 4,8 km/h (1 Bft) 100,00 %
04.07.2016 08:46 17,7 C 71 % 1021,0 hPa 0,0 l/m 5,6 km/h (1 Bft) NO 37 2 min 0,000 mm 1,5 UV-I 296 W/m 12,4 C 17,7 C 9,7 km/h (2 Bft) 97,37 %
04.07.2016 08:48 17,7 C 65 % 1021,0 hPa 0,0 l/m 4,7 km/h (1 Bft) O-NO 73 2 min 0,000 mm 1,6 UV-I 324 W/m 11,0 C 17,7 C 6,4 km/h (2 Bft) 100,00 %
04.07.2016 08:50 17,7 C 66 % 1021,0 hPa 0,0 l/m 3,4 km/h (1 Bft) O-NO 66 2 min 0,000 mm 1,8 UV-I 382 W/m 11,3 C 17,7 C 8,0 km/h (2 Bft) 100,00 %
04.07.2016 08:52 17,8 C 68 % 1021,0 hPa 0,0 l/m 3,2 km/h (1 Bft) O-NO 58 2 min 0,000 mm 1,7 UV-I 360 W/m 11,8 C 17,8 C 6,4 km/h (2 Bft) 97,87 %
04.07.2016 08:54 17,9 C 69 % 1021,0 hPa 0,0 l/m 2,8 km/h (1 Bft) O-NO 57 2 min 0,000 mm 1,8 UV-I 375 W/m 12,1 C 17,9 C 4,8 km/h (1 Bft) 100,00 %
04.07.2016 08:56 18,0 C 65 % 1021,0 hPa 0,0 l/m 4,3 km/h (1 Bft) O-SO 109 2 min 0,000 mm 1,9 UV-I 359 W/m 11,3 C 18,0 C 6,4 km/h (2 Bft) 97,87 %
04.07.2016 08:58 17,9 C 65 % 1021,0 hPa 0,0 l/m 3,3 km/h (1 Bft) O-NO 60 2 min 0,000 mm 1,9 UV-I 350 W/m 11,2 C 17,9 C 4,8 km/h (1 Bft) 100,00 %
04.07.2016 09:00 17,9 C 64 % 1021,0 hPa 0,0 l/m 2,0 km/h (1 Bft) O-NO 67 2 min 0,178 mm 2,2 UV-I 376 W/m 11,0 C 17,9 C 4,8 km/h (1 Bft) 97,87 %
04.07.2016 09:02 18,0 C 67 % 1021,0 hPa 0,0 l/m 3,0 km/h (1 Bft) NO 44 2 min 0,000 mm 2,3 UV-I 436 W/m 11,8 C 18,0 C 6,4 km/h (2 Bft) 97,87 %
04.07.2016 09:04 18,1 C 68 % 1021,0 hPa 0,0 l/m 4,6 km/h (1 Bft) NO 54 2 min 0,000 mm 2,1 UV-I 485 W/m 12,1 C 18,1 C 8,0 km/h (2 Bft) 97,87 %
04.07.2016 09:06 18,4 C 66 % 1021,0 hPa 0,0 l/m 2,1 km/h (1 Bft) N-NO 18 2 min 0,000 mm 2,3 UV-I 485 W/m 11,9 C 18,4 C 6,4 km/h (2 Bft) 97,87 %
04.07.2016 09:08 18,5 C 66 % 1021,0 hPa 0,0 l/m 3,3 km/h (1 Bft) O-NO 65 0 min 0,000 mm 2,2 UV-I 320 W/m 12,0 C 18,5 C 8,0 km/h (2 Bft) 97,87 %
04.07.2016 09:10 18,4 C 64 % 1021,0 hPa 0,0 l/m 3,5 km/h (1 Bft) O-NO 61 2 min 0,000 mm 2,3 UV-I 331 W/m 11,5 C 18,4 C 8,0 km/h (2 Bft) 97,87 %
04.07.2016 09:12 18,4 C 64 % 1021,0 hPa 0,0 l/m 1,1 km/h (1 Bft) N 355 2 min 0,000 mm 2,5 UV-I 519 W/m 11,5 C 18,4 C 3,2 km/h (1 Bft) 98,00 %
04.07.2016 09:14 18,7 C 67 % 1020,9 hPa 0,0 l/m 3,0 km/h (1 Bft) NO 46 2 min 0,000 mm 2,6 UV-I 595 W/m 12,4 C 18,7 C 6,4 km/h (2 Bft) 97,87 %
04.07.2016 09:16 18,8 C 61 % 1020,9 hPa 0,0 l/m 4,1 km/h (1 Bft) N-NO 30 2 min 0,000 mm 2,4 UV-I 402 W/m 11,1 C 18,8 C 9,7 km/h (2 Bft) 95,74 %
04.07.2016 09:18 18,7 C 59 % 1021,0 hPa 0,0 l/m 1,3 km/h (1 Bft) N-NO 30 2 min 0,000 mm 2,8 UV-I 440 W/m 10,5 C 18,7 C 4,8 km/h (1 Bft) 97,92 %
04.07.2016 09:20 18,6 C 61 % 1021,0 hPa 0,0 l/m 0,6 km/h (0 Bft) N-NO 30 2 min 0,000 mm 2,6 UV-I 452 W/m 10,9 C 18,6 C 3,2 km/h (1 Bft) 97,37 %
04.07.2016 09:22 18,7 C 62 % 1021,0 hPa 0,0 l/m 3,0 km/h (1 Bft) NO 37 2 min 0,000 mm 3,0 UV-I 441 W/m 11,3 C 18,7 C 6,4 km/h (2 Bft) 97,87 %
04.07.2016 09:24 18,8 C 66 % 1020,9 hPa 0,0 l/m 3,8 km/h (1 Bft) N-NO 18 2 min 0,000 mm 2,9 UV-I 441 W/m 12,3 C 18,8 C 8,0 km/h (2 Bft) 97,87 %
04.07.2016 09:26 18,8 C 64 % 1021,0 hPa 0,0 l/m 3,5 km/h (1 Bft) N-NO 17 2 min 0,000 mm 2,7 UV-I 441 W/m 11,8 C 18,8 C 6,4 km/h (2 Bft) 91,49 %
04.07.2016 09:28 18,7 C 62 % 1021,0 hPa 0,0 l/m 3,3 km/h (1 Bft) N-NO 27 2 min 0,000 mm 2,3 UV-I 367 W/m 11,3 C 18,7 C 8,0 km/h (2 Bft) 91,49 %
04.07.2016 09:30 18,4 C 61 % 1020,9 hPa 0,0 l/m 0,4 km/h (0 Bft) O-NO 74 0 min 0,000 mm 2,4 UV-I 323 W/m 10,7 C 18,4 C 1,6 km/h (1 Bft) 98,00 %
04.07.2016 09:32 18,4 C 66 % 1020,9 hPa 0,0 l/m 0,5 km/h (0 Bft) O-NO 74 2 min 0,000 mm 2,9 UV-I 353 W/m 11,9 C 18,4 C 1,6 km/h (1 Bft) 95,74 %
04.07.2016 09:34 18,6 C 64 % 1020,9 hPa 0,0 l/m 1,7 km/h (1 Bft) O-SO 107 2 min 0,000 mm 3,1 UV-I 392 W/m 11,7 C 18,6 C 3,2 km/h (1 Bft) 95,74 %
04.07.2016 09:36 18,7 C 65 % 1020,9 hPa 0,0 l/m 1,9 km/h (1 Bft) N 5 2 min 0,000 mm 2,6 UV-I 428 W/m 12,0 C 18,7 C 4,8 km/h (1 Bft) 97,87 %
04.07.2016 09:38 18,8 C 66 % 1020,9 hPa 0,0 l/m 2,5 km/h (1 Bft) N-NO 30 2 min 0,000 mm 2,5 UV-I 384 W/m 12,3 C 18,8 C 6,4 km/h (2 Bft) 97,87 %
04.07.2016 09:40 18,8 C 64 % 1020,9 hPa 0,0 l/m 4,6 km/h (1 Bft) N-NO 23 0 min 0,000 mm 2,4 UV-I 354 W/m 11,8 C 18,8 C 6,4 km/h (2 Bft) 97,87 %
04.07.2016 09:42 18,8 C 67 % 1020,9 hPa 0,0 l/m 1,8 km/h (1 Bft) N 11 0 min 0,000 mm 2,5 UV-I 359 W/m 12,5 C 18,8 C 6,4 km/h (2 Bft) 100,00 %
04.07.2016 09:44 18,8 C 65 % 1020,9 hPa 0,0 l/m 1,4 km/h (1 Bft) N-NW 339 2 min 0,000 mm 3,4 UV-I 518 W/m 12,1 C 18,8 C 3,2 km/h (1 Bft) 97,87 %
04.07.2016 09:46 18,9 C 65 % 1020,8 hPa 0,0 l/m 2,3 km/h (1 Bft) N 5 2 min 0,000 mm 2,7 UV-I 659 W/m 12,2 C 18,9 C 6,4 km/h (2 Bft) 100,00 %
04.07.2016 09:48 18,9 C 60 % 1020,9 hPa 0,0 l/m 3,9 km/h (1 Bft) NO 46 2 min 0,000 mm 2,3 UV-I 458 W/m 11,0 C 18,9 C 8,0 km/h (2 Bft) 100,00 %
04.07.2016 09:50 18,8 C 63 % 1020,9 hPa 0,0 l/m 1,9 km/h (1 Bft) O 80 0 min 0,000 mm 2,5 UV-I 304 W/m 11,6 C 18,8 C 3,2 km/h (1 Bft) 100,00 %
04.07.2016 09:52 18,9 C 62 % 1021,0 hPa 0,0 l/m 5,2 km/h (1 Bft) O 97 0 min 0,000 mm 3,0 UV-I 332 W/m 11,5 C 18,9 C 9,7 km/h (2 Bft) 100,00 %
04.07.2016 09:54 18,8 C 59 % 1021,0 hPa 0,0 l/m 1,7 km/h (1 Bft) O 100 2 min 0,000 mm 3,4 UV-I 496 W/m 10,6 C 18,8 C 3,2 km/h (1 Bft) 100,00 %
04.07.2016 09:56 18,9 C 61 % 1021,0 hPa 0,0 l/m 1,3 km/h (1 Bft) O-SO 109 2 min 0,000 mm 4,0 UV-I 797 W/m 11,2 C 18,9 C 3,2 km/h (1 Bft) 100,00 %
04.07.2016 09:58 19,2 C 59 % 1021,0 hPa 0,0 l/m 1,9 km/h (1 Bft) O-SO 108 2 min 0,000 mm 4,1 UV-I 826 W/m 11,0 C 19,2 C 3,2 km/h (1 Bft) 100,00 %
04.07.2016 10:00 19,3 C 59 % 1021,0 hPa 0,0 l/m 3,0 km/h (1 Bft) O 86 2 min 0,305 mm 4,0 UV-I 842 W/m 11,1 C 19,3 C 4,8 km/h (1 Bft) 100,00 %
04.07.2016 10:02 19,4 C 58 % 1021,0 hPa 0,0 l/m 6,2 km/h (2 Bft) O-NO 63 2 min 0,000 mm 3,4 UV-I 842 W/m 10,9 C 19,4 C 11,3 km/h (2 Bft) 100,00 %
04.07.2016 10:04 19,4 C 60 % 1021,0 hPa 0,0 l/m 5,4 km/h (1 Bft) O-NO 63 2 min 0,000 mm 3,6 UV-I 692 W/m 11,4 C 19,4 C 8,0 km/h (2 Bft) 100,00 %
04.07.2016 10:06 19,3 C 58 % 1021,0 hPa 0,0 l/m 4,0 km/h (1 Bft) NO 46 2 min 0,000 mm 3,5 UV-I 449 W/m 10,8 C 19,3 C 8,0 km/h (2 Bft) 100,00 %
04.07.2016 10:08 19,3 C 61 % 1021,0 hPa 0,0 l/m 1,6 km/h (1 Bft) NO 44 2 min 0,000 mm 3,6 UV-I 446 W/m 11,6 C 19,3 C 8,0 km/h (2 Bft) 97,87 %
04.07.2016 10:10 19,3 C 62 % 1020,9 hPa 0,0 l/m 4,7 km/h (1 Bft) NO 53 2 min 0,000 mm 3,7 UV-I 514 W/m 11,8 C 19,3 C 11,3 km/h (2 Bft) 100,00 %
04.07.2016 10:12 19,4 C 62 % 1020,9 hPa 0,0 l/m 2,6 km/h (1 Bft) NO 43 2 min 0,000 mm 3,6 UV-I 580 W/m 11,9 C 19,4 C 4,8 km/h (1 Bft) 97,87 %
04.07.2016 10:14 19,4 C 61 % 1020,9 hPa 0,0 l/m 1,1 km/h (1 Bft) NO 55 2 min 0,000 mm 3,3 UV-I 539 W/m 11,7 C 19,4 C 3,2 km/h (1 Bft) 97,87 %
04.07.2016 10:16 19,6 C 64 % 1020,9 hPa 0,0 l/m 5,4 km/h (1 Bft) NO 36 2 min 0,000 mm 4,1 UV-I 614 W/m 12,6 C 19,6 C 8,0 km/h (2 Bft) 97,87 %
04.07.2016 10:18 19,7 C 61 % 1020,9 hPa 0,0 l/m 3,5 km/h (1 Bft) NO 55 2 min 0,000 mm 4,0 UV-I 693 W/m 12,0 C 19,7 C 4,8 km/h (1 Bft) 100,00 %
04.07.2016 10:20 19,6 C 57 % 1020,9 hPa 0,0 l/m 1,6 km/h (1 Bft) NO 55 2 min 0,000 mm 4,3 UV-I 691 W/m 10,8 C 19,6 C 3,2 km/h (1 Bft) 100,00 %
04.07.2016 10:22 19,5 C 56 % 1020,9 hPa 0,0 l/m 1,4 km/h (1 Bft) N-NW 329 2 min 0,000 mm 3,7 UV-I 739 W/m 10,5 C 19,5 C 4,8 km/h (1 Bft) 97,87 %
04.07.2016 10:24 19,4 C 57 % 1020,9 hPa 0,0 l/m 1,9 km/h (1 Bft) N-NO 17 2 min 0,000 mm 4,4 UV-I 749 W/m 10,7 C 19,4 C 4,8 km/h (1 Bft) 100,00 %
04.07.2016 10:26 19,4 C 61 % 1020,9 hPa 0,0 l/m 6,6 km/h (2 Bft) NO 50 2 min 0,000 mm 3,9 UV-I 749 W/m 11,7 C 19,3 C 12,9 km/h (3 Bft) 100,00 %
04.07.2016 10:28 19,6 C 57 % 1020,8 hPa 0,0 l/m 4,8 km/h (1 Bft) O-NO 57 2 min 0,000 mm 4,1 UV-I 749 W/m 10,8 C 19,6 C 8,0 km/h (2 Bft) 100,00 %
04.07.2016 10:30 19,6 C 60 % 1020,8 hPa 0,0 l/m 6,7 km/h (2 Bft) NO 47 2 min 0,000 mm 3,9 UV-I 597 W/m 11,6 C 19,5 C 9,7 km/h (2 Bft) 100,00 %
04.07.2016 10:32 19,7 C 62 % 1020,8 hPa 0,0 l/m 7,1 km/h (2 Bft) NO 35 2 min 0,000 mm 4,5 UV-I 542 W/m 12,2 C 19,4 C 9,7 km/h (2 Bft) 100,00 %
04.07.2016 10:34 19,8 C 58 % 1020,7 hPa 0,0 l/m 6,1 km/h (2 Bft) O-NO 76 2 min 0,000 mm 4,7 UV-I 759 W/m 11,3 C 19,8 C 14,5 km/h (3 Bft) 100,00 %
04.07.2016 10:36 19,9 C 57 % 1020,8 hPa 0,0 l/m 8,4 km/h (2 Bft) O-NO 57 2 min 0,000 mm 4,7 UV-I 762 W/m 11,1 C 19,1 C 11,3 km/h (2 Bft) 100,00 %
04.07.2016 10:38 20,0 C 59 % 1020,7 hPa 0,0 l/m 7,3 km/h (2 Bft) O-NO 71 2 min 0,000 mm 4,8 UV-I 755 W/m 11,7 C 19,6 C 11,3 km/h (2 Bft) 98,00 %
04.07.2016 10:40 20,0 C 58 % 1020,7 hPa 0,0 l/m 5,6 km/h (1 Bft) O 87 2 min 0,000 mm 4,7 UV-I 748 W/m 11,5 C 20,0 C 8,0 km/h (2 Bft) 100,00 %
04.07.2016 10:42 20,0 C 58 % 1020,7 hPa 0,0 l/m 4,0 km/h (1 Bft) N-NO 22 2 min 0,000 mm 4,8 UV-I 752 W/m 11,5 C 20,0 C 9,7 km/h (2 Bft) 100,00 %
04.07.2016 10:44 20,1 C 60 % 1020,7 hPa 0,0 l/m 9,5 km/h (2 Bft) NO 40 2 min 0,000 mm 4,9 UV-I 746 W/m 12,1 C 18,9 C 16,1 km/h (3 Bft) 100,00 %
04.07.2016 10:46 20,2 C 56 % 1020,7 hPa 0,0 l/m 7,8 km/h (2 Bft) O 79 2 min 0,000 mm 4,9 UV-I 749 W/m 11,1 C 19,6 C 12,9 km/h (3 Bft) 97,50 %
04.07.2016 10:48 20,2 C 55 % 1020,7 hPa 0,0 l/m 7,8 km/h (2 Bft) O-NO 78 2 min 0,000 mm 5,0 UV-I 755 W/m 10,9 C 19,6 C 12,9 km/h (3 Bft) 98,00 %
04.07.2016 10:50 20,2 C 55 % 1020,7 hPa 0,0 l/m 6,2 km/h (2 Bft) O-SO 118 2 min 0,000 mm 5,0 UV-I 757 W/m 10,9 C 20,2 C 14,5 km/h (3 Bft) 95,74 %
04.07.2016 10:52 20,0 C 56 % 1020,7 hPa 0,0 l/m 3,3 km/h (1 Bft) W 281 2 min 0,000 mm 5,1 UV-I 769 W/m 11,0 C 20,0 C 6,4 km/h (2 Bft) 97,87 %
04.07.2016 10:54 19,9 C 61 % 1020,7 hPa 0,0 l/m 4,6 km/h (1 Bft) N 9 2 min 0,000 mm 5,1 UV-I 779 W/m 12,2 C 19,9 C 14,5 km/h (3 Bft) 95,74 %
04.07.2016 10:56 20,1 C 56 % 1020,8 hPa 0,0 l/m 5,3 km/h (1 Bft) N-NO 33 2 min 0,000 mm 4,9 UV-I 795 W/m 11,0 C 20,1 C 16,1 km/h (3 Bft) 97,87 %
04.07.2016 10:58 20,1 C 58 % 1020,8 hPa 0,0 l/m 2,4 km/h (1 Bft) N-NO 19 2 min 0,000 mm 4,9 UV-I 792 W/m 11,6 C 20,1 C 4,8 km/h (1 Bft) 97,87 %
04.07.2016 11:00 20,1 C 58 % 1020,8 hPa 0,0 l/m 1,4 km/h (1 Bft) N 355 2 min 0,406 mm 5,3 UV-I 780 W/m 11,6 C 20,1 C 3,2 km/h (1 Bft) 89,36 %
04.07.2016 11:02 20,1 C 58 % 1020,8 hPa 0,0 l/m 1,5 km/h (1 Bft) N 9 2 min 0,000 mm 5,3 UV-I 779 W/m 11,6 C 20,1 C 4,8 km/h (1 Bft) 95,74 %
04.07.2016 11:04 20,2 C 62 % 1020,7 hPa 0,0 l/m 2,1 km/h (1 Bft) N-NO 23 2 min 0,000 mm 5,4 UV-I 789 W/m 12,7 C 20,2 C 3,2 km/h (1 Bft) 97,56 %
04.07.2016 11:06 20,4 C 62 % 1020,7 hPa 0,0 l/m 2,7 km/h (1 Bft) NW 304 2 min 0,000 mm 5,5 UV-I 796 W/m 12,9 C 20,4 C 4,8 km/h (1 Bft) 95,74 %
04.07.2016 11:08 20,4 C 61 % 1020,7 hPa 0,0 l/m 2,1 km/h (1 Bft) N 9 2 min 0,000 mm 5,6 UV-I 801 W/m 12,6 C 20,4 C 4,8 km/h (1 Bft) 95,74 %
04.07.2016 11:10 20,7 C 61 % 1020,7 hPa 0,0 l/m 5,4 km/h (1 Bft) NO 55 2 min 0,000 mm 5,6 UV-I 796 W/m 12,9 C 20,7 C 12,9 km/h (3 Bft) 97,92 %
04.07.2016 11:12 20,7 C 59 % 1020,7 hPa 0,0 l/m 6,5 km/h (2 Bft) NO 42 2 min 0,000 mm 5,7 UV-I 798 W/m 12,4 C 20,7 C 12,9 km/h (3 Bft) 95,74 %
04.07.2016 11:14 20,9 C 63 % 1020,7 hPa 0,0 l/m 7,9 km/h (2 Bft) NO 42 2 min 0,000 mm 5,7 UV-I 801 W/m 13,6 C 20,3 C 14,5 km/h (3 Bft) 93,62 %
04.07.2016 11:16 20,9 C 58 % 1020,7 hPa 0,0 l/m 3,2 km/h (1 Bft) N-NO 28 2 min 0,000 mm 5,7 UV-I 803 W/m 12,3 C 20,9 C 6,4 km/h (2 Bft) 97,87 %
04.07.2016 11:18 20,9 C 60 % 1020,6 hPa 0,0 l/m 6,3 km/h (2 Bft) NO 51 2 min 0,000 mm 5,8 UV-I 806 W/m 12,8 C 20,9 C 9,7 km/h (2 Bft) 97,87 %
04.07.2016 11:20 20,8 C 61 % 1020,6 hPa 0,0 l/m 4,3 km/h (1 Bft) O-NO 77 2 min 0,000 mm 5,8 UV-I 813 W/m 13,0 C 20,8 C 6,4 km/h (2 Bft) 93,62 %
04.07.2016 11:22 20,8 C 59 % 1020,6 hPa 0,0 l/m 6,6 km/h (2 Bft) NO 51 2 min 0,000 mm 5,9 UV-I 819 W/m 12,5 C 20,7 C 11,3 km/h (2 Bft) 97,87 %
04.07.2016 11:24 21,1 C 58 % 1020,6 hPa 0,0 l/m 8,8 km/h (2 Bft) O-NO 60 2 min 0,000 mm 5,9 UV-I 822 W/m 12,5 C 20,2 C 14,5 km/h (3 Bft) 95,74 %
04.07.2016 11:26 21,1 C 62 % 1020,6 hPa 0,0 l/m 7,1 km/h (2 Bft) NO 42 2 min 0,000 mm 5,9 UV-I 822 W/m 13,5 C 20,8 C 11,3 km/h (2 Bft) 97,87 %
04.07.2016 11:28 21,1 C 57 % 1020,7 hPa 0,0 l/m 5,0 km/h (1 Bft) NO 45 2 min 0,000 mm 6,0 UV-I 828 W/m 12,2 C 21,1 C 8,0 km/h (2 Bft) 98,00 %
04.07.2016 11:30 20,9 C 57 % 1020,6 hPa 0,0 l/m 2,8 km/h (1 Bft) O-NO 60 2 min 0,000 mm 6,1 UV-I 837 W/m 12,1 C 20,9 C 6,4 km/h (2 Bft) 97,87 %
04.07.2016 11:32 20,9 C 57 % 1020,6 hPa 0,0 l/m 1,7 km/h (1 Bft) O-SO 117 2 min 0,000 mm 6,1 UV-I 839 W/m 12,1 C 20,9 C 4,8 km/h (1 Bft) 100,00 %
04.07.2016 11:34 20,7 C 58 % 1020,6 hPa 0,0 l/m 1,3 km/h (1 Bft) O-SO 117 2 min 0,000 mm 5,6 UV-I 844 W/m 12,1 C 20,7 C 3,2 km/h (1 Bft) 97,87 %
04.07.2016 11:36 20,7 C 60 % 1020,6 hPa 0,0 l/m 2,7 km/h (1 Bft) O-NO 70 2 min 0,000 mm 6,2 UV-I 851 W/m 12,7 C 20,7 C 6,4 km/h (2 Bft) 97,87 %
04.07.2016 11:38 20,9 C 61 % 1020,6 hPa 0,0 l/m 3,4 km/h (1 Bft) O-NO 65 2 min 0,000 mm 6,3 UV-I 862 W/m 13,1 C 20,9 C 6,4 km/h (2 Bft) 93,62 %
04.07.2016 11:40 20,9 C 56 % 1020,6 hPa 0,0 l/m 0,9 km/h (0 Bft) O-NO 71 2 min 0,000 mm 6,4 UV-I 885 W/m 11,8 C 20,9 C 3,2 km/h (1 Bft) 100,00 %
04.07.2016 11:42 20,9 C 62 % 1020,6 hPa 0,0 l/m 1,4 km/h (1 Bft) O-NO 59 2 min 0,000 mm 6,3 UV-I 883 W/m 13,3 C 20,9 C 3,2 km/h (1 Bft) 100,00 %
04.07.2016 11:44 21,2 C 60 % 1020,5 hPa 0,0 l/m 1,8 km/h (1 Bft) N-NO 19 2 min 0,000 mm 6,3 UV-I 862 W/m 13,1 C 21,2 C 3,2 km/h (1 Bft) 97,87 %
04.07.2016 11:46 21,3 C 60 % 1020,5 hPa 0,0 l/m 5,7 km/h (1 Bft) NO 40 2 min 0,000 mm 4,9 UV-I 785 W/m 13,2 C 21,3 C 11,3 km/h (2 Bft) 100,00 %
04.07.2016 11:48 21,2 C 57 % 1020,5 hPa 0,0 l/m 3,8 km/h (1 Bft) NW 311 2 min 0,000 mm 5,2 UV-I 784 W/m 12,3 C 21,2 C 8,0 km/h (2 Bft) 95,74 %
04.07.2016 11:50 21,1 C 59 % 1020,5 hPa 0,0 l/m 2,8 km/h (1 Bft) N-NW 330 2 min 0,000 mm 6,0 UV-I 682 W/m 12,8 C 21,1 C 6,4 km/h (2 Bft) 100,00 %
04.07.2016 11:52 21,2 C 61 % 1020,4 hPa 0,0 l/m 4,6 km/h (1 Bft) N-NW 334 2 min 0,000 mm 5,6 UV-I 809 W/m 13,4 C 21,2 C 8,0 km/h (2 Bft) 100,00 %
04.07.2016 11:54 21,1 C 56 % 1020,5 hPa 0,0 l/m 5,6 km/h (1 Bft) N-NW 331 0 min 0,000 mm 4,5 UV-I 469 W/m 12,0 C 21,1 C 8,0 km/h (2 Bft) 100,00 %
04.07.2016 11:56 20,9 C 63 % 1020,4 hPa 0,0 l/m 2,7 km/h (1 Bft) NW 319 0 min 0,000 mm 4,1 UV-I 444 W/m 13,6 C 20,9 C 6,4 km/h (2 Bft) 100,00 %
04.07.2016 11:58 20,8 C 61 % 1020,4 hPa 0,0 l/m 2,3 km/h (1 Bft) N-NW 335 0 min 0,000 mm 4,3 UV-I 457 W/m 13,0 C 20,8 C 4,8 km/h (1 Bft) 100,00 %
04.07.2016 12:00 20,9 C 59 % 1020,4 hPa 0,0 l/m 1,7 km/h (1 Bft) N-NW 337 2 min 0,457 mm 5,8 UV-I 547 W/m 12,6 C 20,9 C 3,2 km/h (1 Bft) 100,00 %
04.07.2016 12:02 21,0 C 61 % 1020,4 hPa 0,0 l/m 1,3 km/h (1 Bft) N-NW 342 2 min 0,000 mm 7,0 UV-I 596 W/m 13,2 C 21,0 C 3,2 km/h (1 Bft) 98,00 %
04.07.2016 12:04 21,1 C 58 % 1020,4 hPa 0,0 l/m 1,9 km/h (1 Bft) N-NW 337 2 min 0,000 mm 6,9 UV-I 545 W/m 12,5 C 21,1 C 3,2 km/h (1 Bft) 100,00 %
04.07.2016 12:06 21,3 C 59 % 1020,4 hPa 0,0 l/m 2,7 km/h (1 Bft) W-NW 296 2 min 0,000 mm 7,0 UV-I 601 W/m 13,0 C 21,3 C 6,4 km/h (2 Bft) 97,87 %
04.07.2016 12:08 21,4 C 61 % 1020,4 hPa 0,0 l/m 3,8 km/h (1 Bft) NO 34 2 min 0,000 mm 6,8 UV-I 738 W/m 13,6 C 21,4 C 8,0 km/h (2 Bft) 100,00 %
04.07.2016 12:10 21,7 C 56 % 1020,4 hPa 0,0 l/m 4,6 km/h (1 Bft) N 9 2 min 0,000 mm 6,7 UV-I 802 W/m 12,5 C 21,7 C 12,9 km/h (3 Bft) 100,00 %
04.07.2016 12:12 21,8 C 59 % 1020,3 hPa 0,0 l/m 2,4 km/h (1 Bft) N-NW 327 2 min 0,000 mm 7,6 UV-I 1123 W/m 13,4 C 21,8 C 8,0 km/h (2 Bft) 100,00 %
04.07.2016 12:14 21,8 C 58 % 1020,3 hPa 0,0 l/m 1,8 km/h (1 Bft) N 5 2 min 0,000 mm 7,6 UV-I 1115 W/m 13,2 C 21,8 C 4,8 km/h (1 Bft) 100,00 %
04.07.2016 12:16 21,8 C 61 % 1020,3 hPa 0,0 l/m 2,9 km/h (1 Bft) N-NO 19 2 min 0,000 mm 5,4 UV-I 758 W/m 13,9 C 21,8 C 8,0 km/h (2 Bft) 97,87 %
04.07.2016 12:18 21,8 C 55 % 1020,1 hPa 0,0 l/m 6,3 km/h (2 Bft) N-NO 14 2 min 0,000 mm 4,9 UV-I 569 W/m 12,4 C 21,8 C 12,9 km/h (3 Bft) 97,87 %
04.07.2016 12:20 21,6 C 54 % 1020,2 hPa 0,0 l/m 2,7 km/h (1 Bft) NO 34 0 min 0,000 mm 3,9 UV-I 403 W/m 11,9 C 21,6 C 4,8 km/h (1 Bft) 97,87 %
04.07.2016 12:22 21,3 C 58 % 1020,2 hPa 0,0 l/m 1,5 km/h (1 Bft) NW 311 0 min 0,000 mm 4,1 UV-I 422 W/m 12,7 C 21,3 C 3,2 km/h (1 Bft) 95,74 %
04.07.2016 12:24 21,3 C 62 % 1020,2 hPa 0,0 l/m 0,5 km/h (0 Bft) NW 310 0 min 0,000 mm 4,3 UV-I 426 W/m 13,7 C 21,3 C 3,2 km/h (1 Bft) 100,00 %
04.07.2016 12:26 21,4 C 56 % 1020,3 hPa 0,0 l/m 6,1 km/h (2 Bft) NO 42 0 min 0,000 mm 3,6 UV-I 350 W/m 12,3 C 21,4 C 9,7 km/h (2 Bft) 97,87 %
04.07.2016 12:28 21,3 C 56 % 1020,1 hPa 0,0 l/m 1,9 km/h (1 Bft) O-NO 59 0 min 0,000 mm 4,0 UV-I 367 W/m 12,2 C 21,3 C 4,8 km/h (1 Bft) 97,87 %
04.07.2016 12:30 21,2 C 58 % 1020,1 hPa 0,0 l/m 1,1 km/h (1 Bft) N-NW 344 2 min 0,000 mm 5,9 UV-I 582 W/m 12,6 C 21,2 C 3,2 km/h (1 Bft) 100,00 %
04.07.2016 12:32 21,4 C 58 % 1020,2 hPa 0,0 l/m 1,8 km/h (1 Bft) N-NW 336 2 min 0,000 mm 6,7 UV-I 1051 W/m 12,8 C 21,4 C 6,4 km/h (2 Bft) 100,00 %
04.07.2016 12:34 21,4 C 54 % 1020,1 hPa 0,0 l/m 5,3 km/h (1 Bft) W-NW 284 2 min 0,000 mm 6,6 UV-I 1015 W/m 11,7 C 21,4 C 8,0 km/h (2 Bft) 100,00 %
04.07.2016 12:36 21,4 C 55 % 1020,1 hPa 0,0 l/m 6,2 km/h (2 Bft) SW 222 2 min 0,000 mm 7,0 UV-I 884 W/m 12,0 C 21,4 C 11,3 km/h (2 Bft) 100,00 %
04.07.2016 12:38 21,7 C 58 % 1020,0 hPa 0,0 l/m 2,7 km/h (1 Bft) N-NW 348 2 min 0,000 mm 7,4 UV-I 982 W/m 13,1 C 21,7 C 6,4 km/h (2 Bft) 100,00 %
04.07.2016 12:40 21,8 C 54 % 1020,0 hPa 0,0 l/m 3,7 km/h (1 Bft) W-NW 293 2 min 0,000 mm 7,3 UV-I 1079 W/m 12,1 C 21,8 C 8,0 km/h (2 Bft) 100,00 %
04.07.2016 12:42 21,8 C 57 % 1020,0 hPa 0,0 l/m 2,5 km/h (1 Bft) N-NO 20 2 min 0,000 mm 6,9 UV-I 1015 W/m 12,9 C 21,8 C 6,4 km/h (2 Bft) 97,87 %
04.07.2016 12:44 21,9 C 56 % 1020,0 hPa 0,0 l/m 3,1 km/h (1 Bft) SO 132 2 min 0,000 mm 7,0 UV-I 998 W/m 12,7 C 21,9 C 6,4 km/h (2 Bft) 100,00 %
04.07.2016 12:46 22,1 C 56 % 1020,0 hPa 0,0 l/m 2,1 km/h (1 Bft) N-NW 329 2 min 0,000 mm 7,5 UV-I 990 W/m 12,9 C 22,1 C 4,8 km/h (1 Bft) 95,74 %
04.07.2016 12:48 22,1 C 52 % 1019,9 hPa 0,0 l/m 4,1 km/h (1 Bft) W 278 2 min 0,000 mm 6,7 UV-I 962 W/m 11,8 C 22,1 C 6,4 km/h (2 Bft) 97,87 %
04.07.2016 12:50 22,1 C 56 % 1019,9 hPa 0,0 l/m 2,8 km/h (1 Bft) N-NW 336 2 min 0,000 mm 7,0 UV-I 809 W/m 12,9 C 22,1 C 6,4 km/h (2 Bft) 97,87 %
04.07.2016 12:52 22,2 C 59 % 1019,9 hPa 0,0 l/m 4,7 km/h (1 Bft) NO 40 2 min 0,000 mm 5,9 UV-I 780 W/m 13,8 C 22,2 C 9,7 km/h (2 Bft) 97,87 %
04.07.2016 12:54 22,1 C 53 % 1019,9 hPa 0,0 l/m 7,1 km/h (2 Bft) NO 42 2 min 0,000 mm 5,5 UV-I 673 W/m 12,1 C 21,9 C 12,9 km/h (3 Bft) 98,00 %
04.07.2016 12:56 22,0 C 54 % 1019,9 hPa 0,0 l/m 4,4 km/h (1 Bft) N 5 2 min 0,000 mm 5,4 UV-I 693 W/m 12,3 C 22,0 C 8,0 km/h (2 Bft) 97,14 %
04.07.2016 12:58 21,9 C 56 % 1019,8 hPa 0,0 l/m 7,9 km/h (2 Bft) N 5 2 min 0,000 mm 5,2 UV-I 605 W/m 12,7 C 21,4 C 17,7 km/h (3 Bft) 95,38 %
04.07.2016 13:00 21,7 C 60 % 1019,9 hPa 0,0 l/m 2,0 km/h (1 Bft) N-NO 26 0 min 0,483 mm 4,4 UV-I 399 W/m 13,6 C 21,7 C 3,2 km/h (1 Bft) 93,62 %
04.07.2016 13:02 21,5 C 52 % 1019,9 hPa 0,0 l/m 2,7 km/h (1 Bft) N 5 0 min 0,000 mm 4,4 UV-I 426 W/m 11,2 C 21,5 C 8,0 km/h (2 Bft) 97,14 %
04.07.2016 13:04 21,4 C 57 % 1019,9 hPa 0,0 l/m 1,2 km/h (1 Bft) NW 326 0 min 0,000 mm 4,5 UV-I 476 W/m 12,5 C 21,4 C 3,2 km/h (1 Bft) 97,92 %
04.07.2016 13:06 21,4 C 59 % 1019,8 hPa 0,0 l/m 2,2 km/h (1 Bft) NW 309 0 min 0,000 mm 4,4 UV-I 483 W/m 13,0 C 21,4 C 4,8 km/h (1 Bft) 95,92 %
04.07.2016 13:08 21,5 C 55 % 1019,8 hPa 0,0 l/m 3,8 km/h (1 Bft) W-NW 302 2 min 0,000 mm 4,4 UV-I 498 W/m 12,1 C 21,5 C 8,0 km/h (2 Bft) 97,92 %
04.07.2016 13:10 21,6 C 60 % 1019,8 hPa 0,0 l/m 2,4 km/h (1 Bft) NW 324 2 min 0,000 mm 5,6 UV-I 541 W/m 13,5 C 21,6 C 4,8 km/h (1 Bft) 93,62 %
04.07.2016 13:12 21,7 C 59 % 1019,8 hPa 0,0 l/m 1,5 km/h (1 Bft) N-NW 333 2 min 0,000 mm 5,4 UV-I 700 W/m 13,3 C 21,7 C 4,8 km/h (1 Bft) 95,74 %
04.07.2016 13:14 21,8 C 59 % 1019,8 hPa 0,0 l/m 1,9 km/h (1 Bft) N-NW 344 0 min 0,000 mm 4,2 UV-I 457 W/m 13,4 C 21,8 C 3,2 km/h (1 Bft) 97,87 %
04.07.2016 13:16 21,7 C 61 % 1019,8 hPa 0,0 l/m 3,9 km/h (1 Bft) NW 316 0 min 0,000 mm 4,2 UV-I 474 W/m 13,8 C 21,7 C 8,0 km/h (2 Bft) 97,87 %
04.07.2016 13:18 21,7 C 60 % 1019,8 hPa 0,0 l/m 2,5 km/h (1 Bft) NO 37 2 min 0,000 mm 4,3 UV-I 489 W/m 13,6 C 21,7 C 9,7 km/h (2 Bft) 97,87 %
04.07.2016 13:20 21,7 C 58 % 1019,8 hPa 0,0 l/m 3,9 km/h (1 Bft) N-NW 337 0 min 0,000 mm 3,5 UV-I 384 W/m 13,1 C 21,7 C 11,3 km/h (2 Bft) 95,74 %
04.07.2016 13:22 21,5 C 58 % 1019,8 hPa 0,0 l/m 1,9 km/h (1 Bft) N-NO 25 0 min 0,000 mm 3,6 UV-I 403 W/m 12,9 C 21,5 C 8,0 km/h (2 Bft) 98,00 %
04.07.2016 13:24 21,4 C 58 % 1019,8 hPa 0,0 l/m 6,0 km/h (2 Bft) N-NO 24 0 min 0,000 mm 3,8 UV-I 435 W/m 12,8 C 21,4 C 11,3 km/h (2 Bft) 100,00 %
04.07.2016 13:26 21,4 C 62 % 1019,7 hPa 0,0 l/m 2,1 km/h (1 Bft) N 360 0 min 0,000 mm 4,0 UV-I 446 W/m 13,8 C 21,4 C 4,8 km/h (1 Bft) 97,87 %
04.07.2016 13:28 21,3 C 62 % 1019,7 hPa 0,0 l/m 6,2 km/h (2 Bft) NO 36 0 min 0,000 mm 4,4 UV-I 475 W/m 13,7 C 21,3 C 12,9 km/h (3 Bft) 100,00 %
04.07.2016 13:30 21,4 C 58 % 1019,7 hPa 0,0 l/m 7,4 km/h (2 Bft) N-NO 19 2 min 0,000 mm 4,3 UV-I 501 W/m 12,8 C 21,0 C 14,5 km/h (3 Bft) 97,37 %
04.07.2016 13:32 21,4 C 62 % 1019,7 hPa 0,0 l/m 3,9 km/h (1 Bft) N-NW 327 0 min 0,000 mm 4,1 UV-I 466 W/m 13,8 C 21,4 C 8,0 km/h (2 Bft) 95,74 %
04.07.2016 13:34 21,5 C 62 % 1019,7 hPa 0,0 l/m 1,9 km/h (1 Bft) NW 325 0 min 0,000 mm 4,7 UV-I 462 W/m 13,9 C 21,5 C 4,8 km/h (1 Bft) 100,00 %
04.07.2016 13:36 21,7 C 63 % 1019,7 hPa 0,0 l/m 4,7 km/h (1 Bft) N-NO 23 0 min 0,000 mm 4,9 UV-I 468 W/m 14,3 C 21,7 C 12,9 km/h (3 Bft) 97,87 %
04.07.2016 13:38 21,7 C 60 % 1019,7 hPa 0,0 l/m 6,4 km/h (2 Bft) N-NO 21 2 min 0,000 mm 5,3 UV-I 542 W/m 13,6 C 21,7 C 11,3 km/h (2 Bft) 97,87 %
04.07.2016 13:40 21,8 C 61 % 1019,7 hPa 0,0 l/m 5,0 km/h (1 Bft) NO 37 2 min 0,000 mm 4,5 UV-I 589 W/m 13,9 C 21,8 C 6,4 km/h (2 Bft) 100,00 %
04.07.2016 13:42 21,7 C 55 % 1019,7 hPa 0,0 l/m 3,2 km/h (1 Bft) N-NO 22 2 min 0,000 mm 4,6 UV-I 498 W/m 12,3 C 21,7 C 6,4 km/h (2 Bft) 100,00 %
04.07.2016 13:44 21,8 C 63 % 1019,7 hPa 0,0 l/m 5,0 km/h (1 Bft) N-NO 24 2 min 0,000 mm 5,1 UV-I 596 W/m 14,4 C 21,8 C 8,0 km/h (2 Bft) 100,00 %
04.07.2016 13:46 21,7 C 56 % 1019,7 hPa 0,0 l/m 2,8 km/h (1 Bft) N-NO 32 2 min 0,000 mm 4,7 UV-I 545 W/m 12,5 C 21,7 C 4,8 km/h (1 Bft) 97,87 %
04.07.2016 13:48 21,7 C 53 % 1019,7 hPa 0,0 l/m 3,6 km/h (1 Bft) SO 142 2 min 0,000 mm 4,9 UV-I 592 W/m 11,7 C 21,7 C 8,0 km/h (2 Bft) 95,74 %
04.07.2016 13:50 21,8 C 52 % 1019,6 hPa 0,0 l/m 2,6 km/h (1 Bft) NO 50 2 min 0,000 mm 5,2 UV-I 635 W/m 11,5 C 21,8 C 6,4 km/h (2 Bft) 97,92 %
04.07.2016 13:52 21,9 C 55 % 1019,5 hPa 0,0 l/m 4,9 km/h (1 Bft) O 82 2 min 0,000 mm 5,7 UV-I 663 W/m 12,4 C 21,9 C 6,4 km/h (2 Bft) 100,00 %
04.07.2016 13:54 22,1 C 53 % 1019,5 hPa 0,0 l/m 4,9 km/h (1 Bft) O-NO 59 2 min 0,000 mm 5,6 UV-I 665 W/m 12,1 C 22,1 C 6,4 km/h (2 Bft) 100,00 %
04.07.2016 13:56 22,2 C 56 % 1019,5 hPa 0,0 l/m 1,1 km/h (1 Bft) O-NO 58 2 min 0,000 mm 5,8 UV-I 749 W/m 13,0 C 22,2 C 4,8 km/h (1 Bft) 100,00 %
04.07.2016 13:58 22,1 C 54 % 1019,6 hPa 0,0 l/m 1,1 km/h (1 Bft) NO 52 2 min 0,000 mm 5,4 UV-I 747 W/m 12,3 C 22,1 C 3,2 km/h (1 Bft) 97,87 %
04.07.2016 14:00 22,1 C 56 % 1019,5 hPa 0,0 l/m 1,2 km/h (1 Bft) N-NW 330 2 min 0,356 mm 5,8 UV-I 681 W/m 12,9 C 22,1 C 3,2 km/h (1 Bft) 100,00 %
04.07.2016 14:02 22,0 C 53 % 1019,5 hPa 0,0 l/m 4,0 km/h (1 Bft) O-NO 62 2 min 0,000 mm 5,9 UV-I 667 W/m 12,0 C 22,0 C 8,0 km/h (2 Bft) 93,62 %
04.07.2016 14:04 22,2 C 55 % 1019,5 hPa 0,0 l/m 5,4 km/h (1 Bft) NO 54 2 min 0,000 mm 6,2 UV-I 649 W/m 12,7 C 22,2 C 8,0 km/h (2 Bft) 100,00 %
04.07.2016 14:06 22,3 C 52 % 1019,5 hPa 0,0 l/m 3,8 km/h (1 Bft) SO 125 2 min 0,000 mm 6,2 UV-I 746 W/m 12,0 C 22,3 C 6,4 km/h (2 Bft) 97,87 %
04.07.2016 14:08 22,4 C 51 % 1019,5 hPa 0,0 l/m 1,8 km/h (1 Bft) S 190 2 min 0,000 mm 5,7 UV-I 743 W/m 11,8 C 22,4 C 3,2 km/h (1 Bft) 100,00 %
04.07.2016 14:10 22,4 C 50 % 1019,5 hPa 0,0 l/m 3,9 km/h (1 Bft) O-NO 63 2 min 0,000 mm 5,2 UV-I 714 W/m 11,5 C 22,4 C 6,4 km/h (2 Bft) 100,00 %
04.07.2016 14:12 22,3 C 52 % 1019,5 hPa 0,0 l/m 4,2 km/h (1 Bft) NO 42 2 min 0,000 mm 5,4 UV-I 843 W/m 12,0 C 22,3 C 6,4 km/h (2 Bft) 97,87 %
04.07.2016 14:14 22,4 C 55 % 1019,5 hPa 0,0 l/m 3,6 km/h (1 Bft) NO 51 2 min 0,000 mm 5,0 UV-I 685 W/m 12,9 C 22,4 C 4,8 km/h (1 Bft) 100,00 %
04.07.2016 14:16 22,3 C 50 % 1019,5 hPa 0,0 l/m 1,8 km/h (1 Bft) NW 311 2 min 0,000 mm 4,7 UV-I 732 W/m 11,4 C 22,3 C 4,8 km/h (1 Bft) 100,00 %
04.07.2016 14:18 22,2 C 52 % 1019,5 hPa 0,0 l/m 1,1 km/h (1 Bft) NW 326 2 min 0,000 mm 5,1 UV-I 612 W/m 11,9 C 22,2 C 3,2 km/h (1 Bft) 100,00 %
04.07.2016 14:20 22,4 C 59 % 1019,4 hPa 0,0 l/m 1,9 km/h (1 Bft) N-NO 26 2 min 0,000 mm 5,3 UV-I 608 W/m 14,0 C 22,4 C 4,8 km/h (1 Bft) 100,00 %
04.07.2016 14:22 22,4 C 55 % 1019,4 hPa 0,0 l/m 2,7 km/h (1 Bft) W-NW 302 2 min 0,000 mm 5,7 UV-I 661 W/m 12,9 C 22,4 C 4,8 km/h (1 Bft) 97,87 %
04.07.2016 14:24 22,3 C 51 % 1019,4 hPa 0,0 l/m 2,2 km/h (1 Bft) W-NW 302 2 min 0,000 mm 5,3 UV-I 712 W/m 11,7 C 22,3 C 4,8 km/h (1 Bft) 100,00 %
04.07.2016 14:26 22,3 C 54 % 1019,3 hPa 0,0 l/m 2,7 km/h (1 Bft) W 278 2 min 0,000 mm 5,1 UV-I 712 W/m 12,5 C 22,3 C 4,8 km/h (1 Bft) 97,87 %
04.07.2016 14:28 22,3 C 50 % 1019,3 hPa 0,0 l/m 4,5 km/h (1 Bft) W 261 2 min 0,000 mm 4,8 UV-I 655 W/m 11,4 C 22,3 C 6,4 km/h (2 Bft) 100,00 %
04.07.2016 14:30 22,3 C 51 % 1019,3 hPa 0,0 l/m 4,8 km/h (1 Bft) W-SW 253 2 min 0,000 mm 5,1 UV-I 577 W/m 11,7 C 22,3 C 6,4 km/h (2 Bft) 95,74 %
04.07.2016 14:32 22,2 C 51 % 1019,3 hPa 0,0 l/m 3,1 km/h (1 Bft) W-SW 251 2 min 0,000 mm 5,5 UV-I 695 W/m 11,6 C 22,2 C 4,8 km/h (1 Bft) 100,00 %
04.07.2016 14:34 22,2 C 53 % 1019,3 hPa 0,0 l/m 3,3 km/h (1 Bft) W-SW 251 2 min 0,000 mm 5,7 UV-I 634 W/m 12,2 C 22,2 C 6,4 km/h (2 Bft) 97,87 %
04.07.2016 14:36 22,2 C 52 % 1019,3 hPa 0,0 l/m 2,0 km/h (1 Bft) W-SW 252 2 min 0,000 mm 5,3 UV-I 687 W/m 11,9 C 22,2 C 3,2 km/h (1 Bft) 100,00 %
04.07.2016 14:38 22,3 C 53 % 1019,2 hPa 0,0 l/m 3,0 km/h (1 Bft) N-NO 28 2 min 0,000 mm 5,4 UV-I 703 W/m 12,2 C 22,3 C 8,0 km/h (2 Bft) 100,00 %
04.07.2016 14:40 22,5 C 59 % 1019,2 hPa 0,0 l/m 5,1 km/h (1 Bft) N-NO 27 2 min 0,000 mm 4,9 UV-I 621 W/m 14,1 C 22,5 C 14,5 km/h (3 Bft) 100,00 %
04.07.2016 14:42 22,4 C 56 % 1019,3 hPa 0,0 l/m 5,1 km/h (1 Bft) N-NO 15 2 min 0,000 mm 4,5 UV-I 520 W/m 13,2 C 22,4 C 12,9 km/h (3 Bft) 100,00 %
04.07.2016 14:44 22,3 C 53 % 1019,3 hPa 0,0 l/m 1,3 km/h (1 Bft) N-NO 16 2 min 0,000 mm 5,1 UV-I 530 W/m 12,2 C 22,3 C 3,2 km/h (1 Bft) 97,87 %
04.07.2016 14:46 22,5 C 54 % 1019,2 hPa 0,0 l/m 3,9 km/h (1 Bft) N-NO 24 2 min 0,000 mm 5,6 UV-I 492 W/m 12,7 C 22,5 C 8,0 km/h (2 Bft) 91,49 %
04.07.2016 14:48 22,6 C 50 % 1019,2 hPa 0,0 l/m 2,9 km/h (1 Bft) O-NO 76 2 min 0,000 mm 6,7 UV-I 492 W/m 11,6 C 22,6 C 4,8 km/h (1 Bft) 97,87 %
04.07.2016 14:50 22,5 C 51 % 1019,2 hPa 0,0 l/m 2,3 km/h (1 Bft) NW 310 2 min 0,000 mm 5,3 UV-I 492 W/m 11,8 C 22,5 C 4,8 km/h (1 Bft) 97,87 %
04.07.2016 14:52 22,4 C 50 % 1019,2 hPa 0,0 l/m 2,2 km/h (1 Bft) SW 217 2 min 0,000 mm 4,9 UV-I 540 W/m 11,5 C 22,4 C 4,8 km/h (1 Bft) 97,87 %
04.07.2016 14:54 22,5 C 53 % 1019,2 hPa 0,0 l/m 5,1 km/h (1 Bft) S-SO 168 2 min 0,000 mm 5,3 UV-I 588 W/m 12,4 C 22,5 C 9,7 km/h (2 Bft) 97,87 %
04.07.2016 14:56 22,7 C 55 % 1019,1 hPa 0,0 l/m 1,2 km/h (1 Bft) S-SO 167 2 min 0,000 mm 6,1 UV-I 615 W/m 13,2 C 22,7 C 4,8 km/h (1 Bft) 97,87 %
04.07.2016 14:58 22,8 C 50 % 1019,1 hPa 0,0 l/m 2,3 km/h (1 Bft) S 169 2 min 0,000 mm 5,6 UV-I 615 W/m 11,8 C 22,8 C 6,4 km/h (2 Bft) 98,00 %
04.07.2016 15:00 22,8 C 52 % 1019,0 hPa 0,0 l/m 4,0 km/h (1 Bft) SW 220 2 min 0,000 mm 5,8 UV-I 615 W/m 12,4 C 22,8 C 6,4 km/h (2 Bft) 95,74 %
04.07.2016 15:02 22,9 C 53 % 1019,1 hPa 0,0 l/m 1,6 km/h (1 Bft) S-SW 213 2 min 0,457 mm 4,2 UV-I 540 W/m 12,8 C 22,9 C 4,8 km/h (1 Bft) 95,74 %
04.07.2016 15:04 22,8 C 53 % 1019,1 hPa 0,0 l/m 2,6 km/h (1 Bft) NO 46 0 min 0,000 mm 3,7 UV-I 416 W/m 12,7 C 22,8 C 4,8 km/h (1 Bft) 97,87 %
04.07.2016 15:06 22,8 C 55 % 1019,1 hPa 0,0 l/m 5,0 km/h (1 Bft) N 5 0 min 0,000 mm 4,2 UV-I 400 W/m 13,3 C 22,8 C 9,7 km/h (2 Bft) 97,22 %
04.07.2016 15:08 23,0 C 57 % 1019,0 hPa 0,0 l/m 4,9 km/h (1 Bft) N-NO 28 0 min 0,000 mm 4,7 UV-I 410 W/m 14,0 C 23,0 C 6,4 km/h (2 Bft) 98,11 %
04.07.2016 15:10 23,1 C 51 % 1019,0 hPa 0,0 l/m 4,2 km/h (1 Bft) NO 34 2 min 0,000 mm 5,7 UV-I 455 W/m 12,4 C 23,1 C 6,4 km/h (2 Bft) 96,00 %
04.07.2016 15:12 23,2 C 56 % 1019,0 hPa 0,0 l/m 4,6 km/h (1 Bft) NO 37 2 min 0,000 mm 5,4 UV-I 1071 W/m 13,9 C 23,2 C 11,3 km/h (2 Bft) 97,37 %
04.07.2016 15:14 23,4 C 53 % 1018,9 hPa 0,0 l/m 7,2 km/h (2 Bft) NO 42 2 min 0,000 mm 5,7 UV-I 1071 W/m 13,3 C 23,2 C 11,3 km/h (2 Bft) 93,62 %
04.07.2016 15:16 23,4 C 52 % 1018,9 hPa 0,0 l/m 2,8 km/h (1 Bft) O-NO 67 2 min 0,000 mm 5,7 UV-I 1071 W/m 13,0 C 23,4 C 6,4 km/h (2 Bft) 97,87 %
04.07.2016 15:18 23,6 C 51 % 1018,9 hPa 0,0 l/m 9,4 km/h (2 Bft) O 80 2 min 0,000 mm 5,7 UV-I 1071 W/m 12,9 C 22,8 C 14,5 km/h (3 Bft) 97,87 %
04.07.2016 15:20 23,4 C 49 % 1018,9 hPa 0,0 l/m 4,2 km/h (1 Bft) O-SO 114 2 min 0,000 mm 5,2 UV-I 1065 W/m 12,1 C 23,4 C 6,4 km/h (2 Bft) 95,74 %
04.07.2016 15:22 23,2 C 50 % 1018,9 hPa 0,0 l/m 5,0 km/h (1 Bft) O-NO 68 2 min 0,000 mm 4,6 UV-I 1012 W/m 12,2 C 23,2 C 12,9 km/h (3 Bft) 97,87 %
04.07.2016 15:24 23,2 C 51 % 1018,9 hPa 0,0 l/m 6,0 km/h (2 Bft) O-NO 65 2 min 0,000 mm 5,0 UV-I 536 W/m 12,5 C 23,2 C 8,0 km/h (2 Bft) 100,00 %
04.07.2016 15:26 23,2 C 52 % 1018,8 hPa 0,0 l/m 4,3 km/h (1 Bft) O-NO 65 2 min 0,000 mm 5,5 UV-I 536 W/m 12,8 C 23,2 C 6,4 km/h (2 Bft) 100,00 %
04.07.2016 15:28 23,2 C 49 % 1018,8 hPa 0,0 l/m 3,7 km/h (1 Bft) NO 54 2 min 0,000 mm 4,9 UV-I 850 W/m 11,9 C 23,2 C 6,4 km/h (2 Bft) 97,87 %
04.07.2016 15:30 23,3 C 52 % 1018,7 hPa 0,0 l/m 5,3 km/h (1 Bft) O-SO 109 2 min 0,000 mm 5,2 UV-I 755 W/m 12,9 C 23,3 C 9,7 km/h (2 Bft) 97,87 %
04.07.2016 15:32 23,3 C 51 % 1018,7 hPa 0,0 l/m 3,3 km/h (1 Bft) O-SO 103 2 min 0,000 mm 4,9 UV-I 922 W/m 12,6 C 23,3 C 4,8 km/h (1 Bft) 100,00 %
04.07.2016 15:34 23,5 C 55 % 1018,7 hPa 0,0 l/m 1,0 km/h (0 Bft) O-SO 103 2 min 0,000 mm 5,0 UV-I 768 W/m 13,9 C 23,5 C 4,8 km/h (1 Bft) 100,00 %
04.07.2016 15:36 23,5 C 51 % 1018,7 hPa 0,0 l/m 1,3 km/h (1 Bft) W 267 2 min 0,000 mm 4,1 UV-I 584 W/m 12,8 C 23,5 C 3,2 km/h (1 Bft) 100,00 %
04.07.2016 15:38 23,6 C 54 % 1018,7 hPa 0,0 l/m 1,5 km/h (1 Bft) W 269 2 min 0,000 mm 4,9 UV-I 745 W/m 13,7 C 23,6 C 3,2 km/h (1 Bft) 100,00 %
04.07.2016 15:40 23,6 C 50 % 1018,7 hPa 0,0 l/m 0,6 km/h (0 Bft) W 269 2 min 0,000 mm 4,8 UV-I 865 W/m 12,6 C 23,6 C 1,6 km/h (1 Bft) 100,00 %
04.07.2016 15:42 23,4 C 49 % 1018,7 hPa 0,0 l/m 1,0 km/h (0 Bft) W 269 2 min 0,000 mm 4,3 UV-I 830 W/m 12,1 C 23,4 C 3,2 km/h (1 Bft) 100,00 %
04.07.2016 15:44 23,3 C 54 % 1018,6 hPa 0,0 l/m 1,0 km/h (0 Bft) W 269 2 min 0,000 mm 4,1 UV-I 522 W/m 13,5 C 23,3 C 3,2 km/h (1 Bft) 97,87 %
04.07.2016 15:46 23,3 C 51 % 1018,5 hPa 0,0 l/m 2,6 km/h (1 Bft) N-NO 13 2 min 0,000 mm 4,1 UV-I 522 W/m 12,6 C 23,3 C 6,4 km/h (2 Bft) 95,83 %
04.07.2016 15:48 23,4 C 54 % 1018,5 hPa 0,0 l/m 1,6 km/h (1 Bft) N-NW 333 2 min 0,000 mm 3,7 UV-I 484 W/m 13,6 C 23,4 C 4,8 km/h (1 Bft) 100,00 %
04.07.2016 15:50 23,4 C 52 % 1018,5 hPa 0,0 l/m 2,5 km/h (1 Bft) W-NW 292 2 min 0,000 mm 4,0 UV-I 429 W/m 13,0 C 23,4 C 4,8 km/h (1 Bft) 100,00 %
04.07.2016 15:52 23,4 C 50 % 1018,5 hPa 0,0 l/m 2,0 km/h (1 Bft) NW 319 2 min 0,000 mm 4,4 UV-I 586 W/m 12,4 C 23,4 C 4,8 km/h (1 Bft) 95,74 %
04.07.2016 15:54 23,4 C 53 % 1018,5 hPa 0,0 l/m 1,9 km/h (1 Bft) W-NW 296 2 min 0,000 mm 4,3 UV-I 710 W/m 13,3 C 23,4 C 4,8 km/h (1 Bft) 100,00 %
04.07.2016 15:56 23,5 C 52 % 1018,4 hPa 0,0 l/m 2,3 km/h (1 Bft) W-NW 303 2 min 0,000 mm 4,3 UV-I 815 W/m 13,1 C 23,5 C 4,8 km/h (1 Bft) 100,00 %
04.07.2016 15:58 23,6 C 52 % 1018,5 hPa 0,0 l/m 1,2 km/h (1 Bft) W-NW 303 2 min 0,000 mm 4,5 UV-I 834 W/m 13,2 C 23,6 C 3,2 km/h (1 Bft) 93,62 %
04.07.2016 16:00 23,7 C 52 % 1018,5 hPa 0,0 l/m 1,0 km/h (0 Bft) NW 310 2 min 0,000 mm 4,5 UV-I 802 W/m 13,2 C 23,7 C 3,2 km/h (1 Bft) 97,87 %
04.07.2016 16:02 23,7 C 52 % 1018,4 hPa 0,0 l/m 1,7 km/h (1 Bft) W 260 2 min 0,457 mm 4,4 UV-I 767 W/m 13,2 C 23,7 C 4,8 km/h (1 Bft) 100,00 %
04.07.2016 16:04 23,8 C 51 % 1018,4 hPa 0,0 l/m 2,2 km/h (1 Bft) NO 44 2 min 0,000 mm 4,3 UV-I 736 W/m 13,0 C 23,8 C 4,8 km/h (1 Bft) 97,87 %
04.07.2016 16:06 23,9 C 52 % 1018,3 hPa 0,0 l/m 4,5 km/h (1 Bft) N 9 2 min 0,000 mm 4,2 UV-I 724 W/m 13,4 C 23,9 C 8,0 km/h (2 Bft) 100,00 %
04.07.2016 16:08 24,0 C 54 % 1018,3 hPa 0,0 l/m 1,6 km/h (1 Bft) N-NW 329 2 min 0,000 mm 4,2 UV-I 720 W/m 14,1 C 24,0 C 4,8 km/h (1 Bft) 100,00 %
04.07.2016 16:10 23,9 C 52 % 1018,3 hPa 0,0 l/m 3,5 km/h (1 Bft) N-NO 24 2 min 0,000 mm 4,1 UV-I 717 W/m 13,4 C 23,9 C 6,4 km/h (2 Bft) 100,00 %
04.07.2016 16:12 23,8 C 53 % 1018,3 hPa 0,0 l/m 4,2 km/h (1 Bft) N-NO 17 2 min 0,000 mm 4,1 UV-I 715 W/m 13,6 C 23,8 C 8,0 km/h (2 Bft) 97,87 %
04.07.2016 16:14 23,7 C 51 % 1018,3 hPa 0,0 l/m 3,1 km/h (1 Bft) W-NW 300 2 min 0,000 mm 4,0 UV-I 710 W/m 13,0 C 23,7 C 6,4 km/h (2 Bft) 97,87 %
04.07.2016 16:16 23,7 C 50 % 1018,3 hPa 0,0 l/m 5,8 km/h (2 Bft) W-NW 286 2 min 0,000 mm 4,0 UV-I 703 W/m 12,6 C 23,7 C 12,9 km/h (3 Bft) 97,37 %
04.07.2016 16:18 23,6 C 50 % 1018,2 hPa 0,0 l/m 6,0 km/h (2 Bft) W 273 2 min 0,000 mm 3,9 UV-I 695 W/m 12,6 C 23,6 C 11,3 km/h (2 Bft) 96,00 %
04.07.2016 16:20 23,6 C 52 % 1018,2 hPa 0,0 l/m 4,4 km/h (1 Bft) W-NW 299 2 min 0,000 mm 3,8 UV-I 694 W/m 13,2 C 23,6 C 6,4 km/h (2 Bft) 100,00 %
04.07.2016 16:22 23,7 C 51 % 1018,2 hPa 0,0 l/m 3,1 km/h (1 Bft) NW 305 2 min 0,000 mm 3,8 UV-I 693 W/m 13,0 C 23,7 C 6,4 km/h (2 Bft) 100,00 %
04.07.2016 16:24 23,7 C 54 % 1018,2 hPa 0,0 l/m 1,4 km/h (1 Bft) N-NW 335 2 min 0,000 mm 3,5 UV-I 689 W/m 13,8 C 23,7 C 4,8 km/h (1 Bft) 100,00 %
04.07.2016 16:26 23,6 C 49 % 1018,1 hPa 0,0 l/m 2,1 km/h (1 Bft) NW 325 2 min 0,000 mm 3,6 UV-I 699 W/m 12,2 C 23,6 C 4,8 km/h (1 Bft) 100,00 %
04.07.2016 16:28 23,5 C 52 % 1018,1 hPa 0,0 l/m 1,1 km/h (1 Bft) N-NW 340 2 min 0,000 mm 3,5 UV-I 724 W/m 13,1 C 23,5 C 3,2 km/h (1 Bft) 100,00 %
04.07.2016 16:30 23,6 C 49 % 1018,1 hPa 0,0 l/m 3,5 km/h (1 Bft) NW 311 2 min 0,000 mm 3,5 UV-I 727 W/m 12,2 C 23,6 C 6,4 km/h (2 Bft) 100,00 %
04.07.2016 16:32 23,7 C 50 % 1018,1 hPa 0,0 l/m 2,0 km/h (1 Bft) NW 311 2 min 0,000 mm 3,4 UV-I 682 W/m 12,6 C 23,7 C 3,2 km/h (1 Bft) 100,00 %
04.07.2016 16:34 23,7 C 52 % 1018,1 hPa 0,0 l/m 5,0 km/h (1 Bft) W-SW 242 2 min 0,000 mm 3,4 UV-I 667 W/m 13,2 C 23,7 C 9,7 km/h (2 Bft) 97,87 %
04.07.2016 16:36 23,7 C 50 % 1018,0 hPa 0,0 l/m 7,3 km/h (2 Bft) SW 233 2 min 0,000 mm 3,3 UV-I 665 W/m 12,6 C 23,4 C 11,3 km/h (2 Bft) 97,87 %
04.07.2016 16:38 23,7 C 50 % 1018,0 hPa 0,0 l/m 5,0 km/h (1 Bft) W 261 2 min 0,000 mm 3,2 UV-I 649 W/m 12,6 C 23,7 C 6,4 km/h (2 Bft) 97,14 %
04.07.2016 16:40 23,8 C 50 % 1018,0 hPa 0,0 l/m 4,7 km/h (1 Bft) W-SW 255 2 min 0,000 mm 3,1 UV-I 635 W/m 12,7 C 23,8 C 6,4 km/h (2 Bft) 96,00 %
04.07.2016 16:42 23,7 C 49 % 1018,0 hPa 0,0 l/m 4,5 km/h (1 Bft) W-NW 298 2 min 0,000 mm 3,1 UV-I 636 W/m 12,3 C 23,7 C 9,7 km/h (2 Bft) 95,74 %
04.07.2016 16:44 23,6 C 51 % 1018,0 hPa 0,0 l/m 1,7 km/h (1 Bft) W-NW 298 2 min 0,000 mm 3,0 UV-I 641 W/m 12,9 C 23,6 C 3,2 km/h (1 Bft) 93,62 %
04.07.2016 16:46 23,6 C 50 % 1017,9 hPa 0,0 l/m 3,1 km/h (1 Bft) NW 317 2 min 0,000 mm 3,0 UV-I 582 W/m 12,6 C 23,6 C 6,4 km/h (2 Bft) 97,87 %
04.07.2016 16:48 23,7 C 49 % 1017,9 hPa 0,0 l/m 3,6 km/h (1 Bft) SW 236 2 min 0,000 mm 2,9 UV-I 603 W/m 12,3 C 23,7 C 6,4 km/h (2 Bft) 97,87 %
04.07.2016 16:50 23,8 C 52 % 1017,9 hPa 0,0 l/m 3,6 km/h (1 Bft) W 281 2 min 0,000 mm 2,6 UV-I 611 W/m 13,3 C 23,8 C 8,0 km/h (2 Bft) 95,74 %
04.07.2016 16:52 23,8 C 51 % 1018,0 hPa 0,0 l/m 5,4 km/h (1 Bft) W-SW 251 0 min 0,000 mm 2,5 UV-I 270 W/m 13,0 C 23,8 C 11,3 km/h (2 Bft) 95,74 %
04.07.2016 16:54 23,8 C 51 % 1018,0 hPa 0,0 l/m 3,2 km/h (1 Bft) SW 235 2 min 0,000 mm 2,8 UV-I 663 W/m 13,0 C 23,8 C 6,4 km/h (2 Bft) 98,00 %
04.07.2016 16:56 24,0 C 55 % 1017,9 hPa 0,0 l/m 3,9 km/h (1 Bft) W-SW 250 2 min 0,000 mm 2,8 UV-I 656 W/m 14,4 C 24,0 C 8,0 km/h (2 Bft) 97,87 %
04.07.2016 16:58 24,2 C 53 % 1017,9 hPa 0,0 l/m 4,4 km/h (1 Bft) NW 306 2 min 0,000 mm 2,6 UV-I 590 W/m 14,0 C 24,2 C 6,4 km/h (2 Bft) 97,87 %
04.07.2016 17:00 24,2 C 51 % 1017,9 hPa 0,0 l/m 1,9 km/h (1 Bft) W-NW 289 2 min 0,000 mm 2,4 UV-I 509 W/m 13,4 C 24,2 C 4,8 km/h (1 Bft) 95,74 %
04.07.2016 17:02 24,0 C 52 % 1017,9 hPa 0,0 l/m 2,8 km/h (1 Bft) W-NW 297 2 min 0,432 mm 2,3 UV-I 516 W/m 13,5 C 24,0 C 4,8 km/h (1 Bft) 96,00 %
04.07.2016 17:04 23,7 C 50 % 1017,9 hPa 0,0 l/m 2,1 km/h (1 Bft) NW 316 0 min 0,000 mm 2,1 UV-I 286 W/m 12,6 C 23,7 C 4,8 km/h (1 Bft) 95,74 %
04.07.2016 17:06 23,5 C 51 % 1017,9 hPa 0,0 l/m 2,2 km/h (1 Bft) W-NW 299 0 min 0,000 mm 2,4 UV-I 250 W/m 12,8 C 23,5 C 4,8 km/h (1 Bft) 97,92 %
04.07.2016 17:08 23,6 C 52 % 1017,9 hPa 0,0 l/m 1,6 km/h (1 Bft) W-NW 299 2 min 0,000 mm 2,4 UV-I 366 W/m 13,2 C 23,6 C 3,2 km/h (1 Bft) 97,37 %
04.07.2016 17:10 23,6 C 49 % 1017,9 hPa 0,0 l/m 0,7 km/h (0 Bft) W-NW 299 2 min 0,000 mm 2,5 UV-I 574 W/m 12,2 C 23,6 C 1,6 km/h (1 Bft) 97,87 %
04.07.2016 17:12 23,7 C 53 % 1017,8 hPa 0,0 l/m 1,1 km/h (1 Bft) W-NW 299 2 min 0,000 mm 1,9 UV-I 610 W/m 13,5 C 23,7 C 3,2 km/h (1 Bft) 100,00 %
04.07.2016 17:14 23,7 C 54 % 1017,9 hPa 0,0 l/m 2,4 km/h (1 Bft) NW 313 2 min 0,000 mm 2,3 UV-I 623 W/m 13,8 C 23,7 C 4,8 km/h (1 Bft) 100,00 %
04.07.2016 17:16 23,7 C 51 % 1017,8 hPa 0,0 l/m 4,8 km/h (1 Bft) W-NW 303 2 min 0,000 mm 1,7 UV-I 507 W/m 13,0 C 23,7 C 8,0 km/h (2 Bft) 98,00 %
04.07.2016 17:18 23,6 C 51 % 1017,8 hPa 0,0 l/m 2,6 km/h (1 Bft) NW 310 0 min 0,000 mm 1,9 UV-I 193 W/m 12,9 C 23,6 C 4,8 km/h (1 Bft) 100,00 %
04.07.2016 17:20 23,6 C 52 % 1017,8 hPa 0,0 l/m 2,2 km/h (1 Bft) NW 310 2 min 0,000 mm 2,0 UV-I 377 W/m 13,2 C 23,6 C 4,8 km/h (1 Bft) 95,74 %
04.07.2016 17:22 23,5 C 53 % 1017,8 hPa 0,0 l/m 1,5 km/h (1 Bft) NW 311 2 min 0,000 mm 1,6 UV-I 563 W/m 13,4 C 23,5 C 3,2 km/h (1 Bft) 95,74 %
04.07.2016 17:24 23,4 C 52 % 1017,8 hPa 0,0 l/m 3,1 km/h (1 Bft) W 276 0 min 0,000 mm 1,6 UV-I 251 W/m 13,0 C 23,4 C 4,8 km/h (1 Bft) 95,74 %
04.07.2016 17:26 23,3 C 52 % 1017,8 hPa 0,0 l/m 2,1 km/h (1 Bft) NW 323 0 min 0,000 mm 1,4 UV-I 262 W/m 12,9 C 23,3 C 3,2 km/h (1 Bft) 95,74 %
04.07.2016 17:28 23,2 C 53 % 1017,8 hPa 0,0 l/m 2,3 km/h (1 Bft) NW 304 0 min 0,000 mm 1,3 UV-I 158 W/m 13,1 C 23,2 C 3,2 km/h (1 Bft) 100,00 %
04.07.2016 17:30 23,1 C 53 % 1017,8 hPa 0,0 l/m 2,0 km/h (1 Bft) W-NW 302 0 min 0,000 mm 1,3 UV-I 155 W/m 13,0 C 23,1 C 3,2 km/h (1 Bft) 96,00 %
04.07.2016 17:32 23,0 C 54 % 1017,8 hPa 0,0 l/m 0,8 km/h (0 Bft) W-NW 302 0 min 0,000 mm 1,3 UV-I 168 W/m 13,2 C 23,0 C 1,6 km/h (1 Bft) 100,00 %
04.07.2016 17:34 22,8 C 62 % 1017,8 hPa 0,0 l/m 0,4 km/h (0 Bft) NW 307 0 min 0,000 mm 1,3 UV-I 174 W/m 15,1 C 22,8 C 1,6 km/h (1 Bft) 97,87 %
04.07.2016 17:36 22,6 C 56 % 1017,8 hPa 0,0 l/m 0,3 km/h (0 Bft) NW 307 0 min 0,000 mm 1,3 UV-I 203 W/m 13,4 C 22,6 C 1,6 km/h (1 Bft) 100,00 %
04.07.2016 17:38 22,6 C 63 % 1017,8 hPa 0,0 l/m 0,8 km/h (0 Bft) NW 323 0 min 0,000 mm 1,4 UV-I 200 W/m 15,2 C 22,6 C 3,2 km/h (1 Bft) 97,37 %
04.07.2016 17:40 22,8 C 60 % 1017,8 hPa 0,0 l/m 1,5 km/h (1 Bft) N-NW 343 2 min 0,000 mm 1,7 UV-I 458 W/m 14,6 C 22,8 C 3,2 km/h (1 Bft) 97,92 %
04.07.2016 17:42 23,0 C 60 % 1017,8 hPa 0,0 l/m 1,3 km/h (1 Bft) N-NO 12 2 min 0,000 mm 1,5 UV-I 455 W/m 14,8 C 23,0 C 4,8 km/h (1 Bft) 100,00 %
04.07.2016 17:44 22,9 C 62 % 1017,8 hPa 0,0 l/m 2,0 km/h (1 Bft) N-NO 12 0 min 0,000 mm 1,3 UV-I 158 W/m 15,2 C 22,9 C 4,8 km/h (1 Bft) 100,00 %
04.07.2016 17:46 23,0 C 60 % 1017,8 hPa 0,0 l/m 1,4 km/h (1 Bft) N-NO 12 2 min 0,000 mm 1,5 UV-I 412 W/m 14,8 C 23,0 C 3,2 km/h (1 Bft) 100,00 %
04.07.2016 17:48 23,2 C 57 % 1017,8 hPa 0,0 l/m 2,4 km/h (1 Bft) N-NO 20 2 min 0,000 mm 1,5 UV-I 499 W/m 14,2 C 23,2 C 4,8 km/h (1 Bft) 97,87 %
04.07.2016 17:50 23,3 C 58 % 1017,8 hPa 0,0 l/m 5,8 km/h (2 Bft) N-NO 32 2 min 0,000 mm 1,5 UV-I 487 W/m 14,6 C 23,3 C 8,0 km/h (2 Bft) 100,00 %
04.07.2016 17:52 23,4 C 55 % 1017,8 hPa 0,0 l/m 2,7 km/h (1 Bft) N 11 2 min 0,000 mm 1,4 UV-I 499 W/m 13,8 C 23,4 C 6,4 km/h (2 Bft) 100,00 %
04.07.2016 17:54 23,4 C 57 % 1017,8 hPa 0,0 l/m 2,0 km/h (1 Bft) N-NO 18 2 min 0,000 mm 1,4 UV-I 495 W/m 14,4 C 23,4 C 4,8 km/h (1 Bft) 97,87 %
04.07.2016 17:56 23,6 C 58 % 1017,8 hPa 0,0 l/m 2,6 km/h (1 Bft) N-NO 18 2 min 0,000 mm 1,3 UV-I 509 W/m 14,8 C 23,6 C 3,2 km/h (1 Bft) 100,00 %
04.07.2016 17:58 23,7 C 56 % 1017,8 hPa 0,0 l/m 3,9 km/h (1 Bft) N-NO 19 2 min 0,000 mm 1,3 UV-I 509 W/m 14,4 C 23,7 C 6,4 km/h (2 Bft) 100,00 %
04.07.2016 18:00 23,8 C 54 % 1017,8 hPa 0,0 l/m 3,6 km/h (1 Bft) N-NO 19 2 min 0,000 mm 1,3 UV-I 507 W/m 13,9 C 23,8 C 8,0 km/h (2 Bft) 95,74 %
04.07.2016 18:02 23,8 C 53 % 1017,8 hPa 0,0 l/m 4,4 km/h (1 Bft) N-NO 24 2 min 0,254 mm 1,2 UV-I 498 W/m 13,6 C 23,8 C 6,4 km/h (2 Bft) 97,87 %
04.07.2016 18:04 23,8 C 51 % 1017,8 hPa 0,0 l/m 3,9 km/h (1 Bft) NO 44 2 min 0,000 mm 1,2 UV-I 490 W/m 13,0 C 23,8 C 6,4 km/h (2 Bft) 97,87 %
04.07.2016 18:06 23,8 C 54 % 1017,8 hPa 0,0 l/m 5,2 km/h (1 Bft) NO 46 2 min 0,000 mm 1,2 UV-I 484 W/m 13,9 C 23,8 C 8,0 km/h (2 Bft) 97,87 %
04.07.2016 18:08 23,9 C 54 % 1017,8 hPa 0,0 l/m 6,1 km/h (2 Bft) N-NO 24 2 min 0,000 mm 1,1 UV-I 481 W/m 14,0 C 23,9 C 11,3 km/h (2 Bft) 100,00 %
04.07.2016 18:10 23,9 C 51 % 1017,8 hPa 0,0 l/m 3,5 km/h (1 Bft) N-NO 27 2 min 0,000 mm 1,1 UV-I 479 W/m 13,1 C 23,9 C 6,4 km/h (2 Bft) 100,00 %
04.07.2016 18:12 23,8 C 51 % 1017,7 hPa 0,0 l/m 2,0 km/h (1 Bft) N-NO 13 2 min 0,000 mm 1,1 UV-I 470 W/m 13,0 C 23,8 C 3,2 km/h (1 Bft) 100,00 %
04.07.2016 18:14 23,8 C 55 % 1017,7 hPa 0,0 l/m 1,8 km/h (1 Bft) N 10 2 min 0,000 mm 1,1 UV-I 460 W/m 14,2 C 23,8 C 3,2 km/h (1 Bft) 98,00 %
04.07.2016 18:16 23,7 C 54 % 1017,7 hPa 0,0 l/m 1,2 km/h (1 Bft) N 355 2 min 0,000 mm 1,1 UV-I 451 W/m 13,8 C 23,7 C 3,2 km/h (1 Bft) 100,00 %
04.07.2016 18:18 23,7 C 51 % 1017,7 hPa 0,0 l/m 1,8 km/h (1 Bft) N-NW 347 2 min 0,000 mm 1,0 UV-I 448 W/m 13,0 C 23,7 C 4,8 km/h (1 Bft) 100,00 %
04.07.2016 18:20 23,7 C 56 % 1017,7 hPa 0,0 l/m 1,5 km/h (1 Bft) N-NO 19 2 min 0,000 mm 1,0 UV-I 455 W/m 14,4 C 23,7 C 4,8 km/h (1 Bft) 100,00 %
04.07.2016 18:22 23,7 C 53 % 1017,7 hPa 0,0 l/m 4,3 km/h (1 Bft) N-NO 19 2 min 0,000 mm 0,9 UV-I 456 W/m 13,5 C 23,7 C 8,0 km/h (2 Bft) 100,00 %
04.07.2016 18:24 23,7 C 57 % 1017,7 hPa 0,0 l/m 3,8 km/h (1 Bft) NW 319 2 min 0,000 mm 0,9 UV-I 454 W/m 14,7 C 23,7 C 11,3 km/h (2 Bft) 100,00 %
04.07.2016 18:26 23,7 C 54 % 1017,7 hPa 0,0 l/m 2,4 km/h (1 Bft) NW 311 2 min 0,000 mm 0,9 UV-I 447 W/m 13,8 C 23,7 C 6,4 km/h (2 Bft) 100,00 %
04.07.2016 18:28 23,8 C 54 % 1017,7 hPa 0,0 l/m 1,0 km/h (0 Bft) NW 311 2 min 0,000 mm 0,9 UV-I 430 W/m 13,9 C 23,8 C 3,2 km/h (1 Bft) 97,87 %
04.07.2016 18:30 23,9 C 52 % 1017,7 hPa 0,0 l/m 1,3 km/h (1 Bft) N-NO 28 2 min 0,000 mm 0,9 UV-I 414 W/m 13,4 C 23,9 C 3,2 km/h (1 Bft) 100,00 %
04.07.2016 18:32 23,9 C 54 % 1017,7 hPa 0,0 l/m 5,1 km/h (1 Bft) N 360 2 min 0,000 mm 0,9 UV-I 406 W/m 14,0 C 23,9 C 6,4 km/h (2 Bft) 92,00 %
04.07.2016 18:34 23,9 C 52 % 1017,6 hPa 0,0 l/m 3,8 km/h (1 Bft) N-NO 21 2 min 0,000 mm 0,9 UV-I 391 W/m 13,4 C 23,9 C 6,4 km/h (2 Bft) 98,11 %
04.07.2016 18:36 23,8 C 56 % 1017,7 hPa 0,0 l/m 2,5 km/h (1 Bft) N-NO 24 2 min 0,000 mm 0,8 UV-I 373 W/m 14,5 C 23,8 C 4,8 km/h (1 Bft) 97,87 %
04.07.2016 18:38 23,8 C 52 % 1017,6 hPa 0,0 l/m 1,5 km/h (1 Bft) N-NO 24 2 min 0,000 mm 0,8 UV-I 360 W/m 13,3 C 23,8 C 3,2 km/h (1 Bft) 95,74 %
04.07.2016 18:40 23,8 C 54 % 1017,7 hPa 0,0 l/m 2,2 km/h (1 Bft) NW 315 2 min 0,000 mm 0,8 UV-I 351 W/m 13,9 C 23,8 C 4,8 km/h (1 Bft) 94,74 %
04.07.2016 18:42 23,9 C 51 % 1017,6 hPa 0,0 l/m 1,6 km/h (1 Bft) NW 306 2 min 0,000 mm 0,8 UV-I 334 W/m 13,1 C 23,9 C 4,8 km/h (1 Bft) 96,00 %
04.07.2016 18:44 23,9 C 53 % 1017,6 hPa 0,0 l/m 2,5 km/h (1 Bft) W-NW 282 2 min 0,000 mm 0,7 UV-I 321 W/m 13,7 C 23,9 C 4,8 km/h (1 Bft) 95,74 %
04.07.2016 18:46 23,9 C 53 % 1017,6 hPa 0,0 l/m 1,4 km/h (1 Bft) W-NW 294 2 min 0,000 mm 0,7 UV-I 311 W/m 13,7 C 23,9 C 3,2 km/h (1 Bft) 96,00 %
04.07.2016 18:48 23,8 C 50 % 1017,6 hPa 0,0 l/m 2,0 km/h (1 Bft) NW 311 2 min 0,000 mm 0,7 UV-I 303 W/m 12,7 C 23,8 C 4,8 km/h (1 Bft) 95,74 %
04.07.2016 18:50 23,8 C 53 % 1017,6 hPa 0,0 l/m 2,3 km/h (1 Bft) NW 319 2 min 0,000 mm 0,6 UV-I 262 W/m 13,6 C 23,8 C 4,8 km/h (1 Bft) 100,00 %
04.07.2016 18:52 23,7 C 57 % 1017,6 hPa 0,0 l/m 1,3 km/h (1 Bft) NW 323 2 min 0,000 mm 0,6 UV-I 289 W/m 14,7 C 23,7 C 3,2 km/h (1 Bft) 95,74 %
04.07.2016 18:54 23,6 C 56 % 1017,6 hPa 0,0 l/m 0,9 km/h (0 Bft) N-NW 327 2 min 0,000 mm 0,6 UV-I 291 W/m 14,3 C 23,6 C 3,2 km/h (1 Bft) 97,87 %
04.07.2016 18:56 23,5 C 49 % 1017,6 hPa 0,0 l/m 1,1 km/h (1 Bft) N-NW 327 2 min 0,000 mm 0,6 UV-I 279 W/m 12,2 C 23,5 C 3,2 km/h (1 Bft) 97,92 %
04.07.2016 18:58 23,6 C 51 % 1017,6 hPa 0,0 l/m 1,5 km/h (1 Bft) W-NW 296 2 min 0,000 mm 0,5 UV-I 254 W/m 12,9 C 23,6 C 4,8 km/h (1 Bft) 95,74 %
04.07.2016 19:00 23,6 C 53 % 1017,6 hPa 0,0 l/m 0,7 km/h (0 Bft) W-NW 296 2 min 0,000 mm 0,5 UV-I 244 W/m 13,4 C 23,6 C 1,6 km/h (1 Bft) 97,87 %
04.07.2016 19:02 23,6 C 49 % 1017,6 hPa 0,0 l/m 1,5 km/h (1 Bft) W-NW 286 2 min 0,254 mm 0,5 UV-I 237 W/m 12,2 C 23,6 C 3,2 km/h (1 Bft) 100,00 %
04.07.2016 19:04 23,5 C 52 % 1017,6 hPa 0,0 l/m 0,5 km/h (0 Bft) W-NW 286 2 min 0,000 mm 0,5 UV-I 239 W/m 13,1 C 23,5 C 1,6 km/h (1 Bft) 97,87 %
04.07.2016 19:06 23,4 C 51 % 1017,6 hPa 0,0 l/m 1,0 km/h (0 Bft) W-NW 286 2 min 0,000 mm 0,4 UV-I 210 W/m 12,7 C 23,4 C 3,2 km/h (1 Bft) 100,00 %
04.07.2016 19:08 23,4 C 50 % 1017,6 hPa 0,0 l/m 1,0 km/h (0 Bft) W-NW 286 0 min 0,000 mm 0,0 UV-I 101 W/m 12,4 C 23,4 C 1,6 km/h (1 Bft) 100,00 %
04.07.2016 19:10 23,3 C 53 % 1017,6 hPa 0,0 l/m 1,1 km/h (1 Bft) W-NW 286 0 min 0,000 mm 0,0 UV-I 69 W/m 13,2 C 23,3 C 3,2 km/h (1 Bft) 100,00 %
04.07.2016 19:12 23,4 C 52 % 1017,7 hPa 0,0 l/m 2,1 km/h (1 Bft) W-NW 303 2 min 0,000 mm 0,0 UV-I 178 W/m 13,0 C 23,4 C 6,4 km/h (2 Bft) 97,96 %
04.07.2016 19:14 23,3 C 52 % 1017,6 hPa 0,0 l/m 3,7 km/h (1 Bft) W-NW 289 2 min 0,000 mm 0,0 UV-I 179 W/m 12,9 C 23,3 C 8,0 km/h (2 Bft) 97,87 %
04.07.2016 19:16 23,3 C 53 % 1017,6 hPa 0,0 l/m 3,4 km/h (1 Bft) W 281 2 min 0,000 mm 0,0 UV-I 192 W/m 13,2 C 23,3 C 6,4 km/h (2 Bft) 98,00 %
04.07.2016 19:18 23,3 C 53 % 1017,5 hPa 0,0 l/m 2,4 km/h (1 Bft) W 280 2 min 0,000 mm 0,0 UV-I 188 W/m 13,2 C 23,3 C 6,4 km/h (2 Bft) 100,00 %
04.07.2016 19:20 23,3 C 51 % 1017,5 hPa 0,0 l/m 2,4 km/h (1 Bft) W-NW 282 2 min 0,000 mm 0,0 UV-I 186 W/m 12,6 C 23,3 C 4,8 km/h (1 Bft) 100,00 %
04.07.2016 19:22 23,4 C 52 % 1017,5 hPa 0,0 l/m 0,8 km/h (0 Bft) W-NW 282 2 min 0,000 mm 0,0 UV-I 178 W/m 13,0 C 23,4 C 1,6 km/h (1 Bft) 97,30 %
04.07.2016 19:24 23,4 C 54 % 1017,6 hPa 0,0 l/m 1,2 km/h (1 Bft) W-NW 282 2 min 0,000 mm 0,0 UV-I 170 W/m 13,6 C 23,4 C 3,2 km/h (1 Bft) 95,74 %
04.07.2016 19:26 23,4 C 54 % 1017,6 hPa 0,0 l/m 3,2 km/h (1 Bft) W-NW 288 2 min 0,000 mm 0,0 UV-I 159 W/m 13,6 C 23,4 C 4,8 km/h (1 Bft) 100,00 %
04.07.2016 19:28 23,3 C 52 % 1017,6 hPa 0,0 l/m 3,5 km/h (1 Bft) W 275 2 min 0,000 mm 0,0 UV-I 162 W/m 12,9 C 23,3 C 6,4 km/h (2 Bft) 100,00 %
04.07.2016 19:30 23,3 C 52 % 1017,6 hPa 0,0 l/m 3,6 km/h (1 Bft) W 259 2 min 0,000 mm 0,0 UV-I 147 W/m 12,9 C 23,3 C 6,4 km/h (2 Bft) 100,00 %
04.07.2016 19:32 23,3 C 52 % 1017,6 hPa 0,0 l/m 3,1 km/h (1 Bft) W 259 2 min 0,000 mm 0,0 UV-I 145 W/m 12,9 C 23,3 C 6,4 km/h (2 Bft) 100,00 %
04.07.2016 19:34 23,3 C 53 % 1017,6 hPa 0,0 l/m 3,1 km/h (1 Bft) W 269 2 min 0,000 mm 0,0 UV-I 154 W/m 13,2 C 23,3 C 6,4 km/h (2 Bft) 97,87 %
04.07.2016 19:36 23,3 C 56 % 1017,5 hPa 0,0 l/m 1,9 km/h (1 Bft) W 269 2 min 0,000 mm 0,0 UV-I 138 W/m 14,0 C 23,3 C 4,8 km/h (1 Bft) 98,00 %
04.07.2016 19:38 23,2 C 56 % 1017,6 hPa 0,0 l/m 0,7 km/h (0 Bft) W 269 2 min 0,000 mm 0,0 UV-I 120 W/m 13,9 C 23,2 C 1,6 km/h (1 Bft) 100,00 %
04.07.2016 19:40 23,1 C 54 % 1017,5 hPa 0,0 l/m 1,5 km/h (1 Bft) W 269 2 min 0,000 mm 0,0 UV-I 126 W/m 13,3 C 23,1 C 3,2 km/h (1 Bft) 100,00 %
04.07.2016 19:42 23,1 C 55 % 1017,5 hPa 0,0 l/m 1,1 km/h (1 Bft) W 269 2 min 0,000 mm 0,0 UV-I 122 W/m 13,6 C 23,1 C 3,2 km/h (1 Bft) 100,00 %
04.07.2016 19:44 23,2 C 54 % 1017,5 hPa 0,0 l/m 1,0 km/h (0 Bft) W 269 2 min 0,000 mm 0,0 UV-I 120 W/m 13,4 C 23,2 C 3,2 km/h (1 Bft) 95,74 %
04.07.2016 19:46 23,2 C 55 % 1017,5 hPa 0,0 l/m 1,6 km/h (1 Bft) W 269 2 min 0,000 mm 0,0 UV-I 113 W/m 13,6 C 23,2 C 3,2 km/h (1 Bft) 100,00 %
04.07.2016 19:48 23,2 C 56 % 1017,5 hPa 0,0 l/m 0,8 km/h (0 Bft) W 269 2 min 0,000 mm 0,0 UV-I 105 W/m 13,9 C 23,2 C 1,6 km/h (1 Bft) 100,00 %
04.07.2016 19:50 23,1 C 55 % 1017,5 hPa 0,0 l/m 2,1 km/h (1 Bft) W 269 0 min 0,000 mm 0,0 UV-I 86 W/m 13,6 C 23,1 C 4,8 km/h (1 Bft) 94,59 %
04.07.2016 19:52 23,1 C 55 % 1017,5 hPa 0,0 l/m 0,4 km/h (0 Bft) W 269 0 min 0,000 mm 0,0 UV-I 70 W/m 13,6 C 23,1 C 1,6 km/h (1 Bft) 97,87 %
04.07.2016 19:54 23,1 C 55 % 1017,6 hPa 0,0 l/m 0,1 km/h (0 Bft) W 269 0 min 0,000 mm 0,0 UV-I 68 W/m 13,6 C 23,1 C 1,6 km/h (1 Bft) 100,00 %
04.07.2016 19:56 23,1 C 56 % 1017,6 hPa 0,0 l/m 0,6 km/h (0 Bft) W 269 0 min 0,000 mm 0,0 UV-I 79 W/m 13,8 C 23,1 C 1,6 km/h (1 Bft) 97,87 %
04.07.2016 19:58 22,9 C 59 % 1017,6 hPa 0,0 l/m 0,4 km/h (0 Bft) W 269 0 min 0,000 mm 0,0 UV-I 75 W/m 14,5 C 22,9 C 1,6 km/h (1 Bft) 97,87 %
04.07.2016 20:00 22,7 C 63 % 1017,6 hPa 0,0 l/m 0,7 km/h (0 Bft) W 269 0 min 0,000 mm 0,0 UV-I 81 W/m 15,3 C 22,7 C 1,6 km/h (1 Bft) 97,87 %
04.07.2016 20:02 22,4 C 61 % 1017,6 hPa 0,0 l/m 0,1 km/h (0 Bft) W 269 0 min 0,101 mm 0,0 UV-I 77 W/m 14,5 C 22,4 C 1,6 km/h (1 Bft) 100,00 %
04.07.2016 20:04 22,4 C 60 % 1017,6 hPa 0,0 l/m 0,1 km/h (0 Bft) W 269 0 min 0,000 mm 0,0 UV-I 70 W/m 14,2 C 22,4 C 1,6 km/h (1 Bft) 98,00 %
04.07.2016 20:06 22,4 C 58 % 1017,6 hPa 0,0 l/m 0,2 km/h (0 Bft) W 269 0 min 0,000 mm 0,0 UV-I 70 W/m 13,7 C 22,4 C 1,6 km/h (1 Bft) 100,00 %
04.07.2016 20:08 22,6 C 58 % 1017,6 hPa 0,0 l/m 0,2 km/h (0 Bft) W 269 0 min 0,000 mm 0,0 UV-I 68 W/m 13,9 C 22,6 C 1,6 km/h (1 Bft) 91,49 %
04.07.2016 20:10 22,6 C 57 % 1017,6 hPa 0,0 l/m 0,1 km/h (0 Bft) W 269 0 min 0,000 mm 0,0 UV-I 63 W/m 13,6 C 22,6 C 1,6 km/h (1 Bft) 100,00 %
04.07.2016 20:12 22,7 C 57 % 1017,6 hPa 0,0 l/m 0,7 km/h (0 Bft) W 269 0 min 0,000 mm 0,0 UV-I 54 W/m 13,7 C 22,7 C 1,6 km/h (1 Bft) 100,00 %
04.07.2016 20:14 22,7 C 57 % 1017,6 hPa 0,0 l/m 0,0 km/h (0 Bft) W 269 0 min 0,000 mm 0,0 UV-I 53 W/m 13,7 C 22,7 C 0,0 km/h (0 Bft) 100,00 %
04.07.2016 20:16 22,7 C 57 % 1017,5 hPa 0,0 l/m 0,0 km/h (0 Bft) W 269 0 min 0,000 mm 0,0 UV-I 53 W/m 13,7 C 22,7 C 1,6 km/h (1 Bft) 100,00 %
04.07.2016 20:18 22,7 C 57 % 1017,5 hPa 0,0 l/m 0,1 km/h (0 Bft) W 269 0 min 0,000 mm 0,0 UV-I 52 W/m 13,7 C 22,7 C 1,6 km/h (1 Bft) 97,92 %
04.07.2016 20:20 22,6 C 58 % 1017,5 hPa 0,0 l/m 0,4 km/h (0 Bft) W 269 0 min 0,000 mm 0,0 UV-I 47 W/m 13,9 C 22,6 C 1,6 km/h (1 Bft) 95,65 %
04.07.2016 20:22 22,6 C 57 % 1017,5 hPa 0,0 l/m 0,3 km/h (0 Bft) W 269 0 min 0,000 mm 0,0 UV-I 44 W/m 13,6 C 22,6 C 1,6 km/h (1 Bft) 95,83 %
04.07.2016 20:24 22,5 C 57 % 1017,6 hPa 0,0 l/m 0,3 km/h (0 Bft) W 269 0 min 0,000 mm 0,0 UV-I 39 W/m 13,5 C 22,5 C 1,6 km/h (1 Bft) 97,87 %
04.07.2016 20:26 22,4 C 56 % 1017,6 hPa 0,0 l/m 0,6 km/h (0 Bft) W 269 0 min 0,000 mm 0,0 UV-I 31 W/m 13,2 C 22,4 C 1,6 km/h (1 Bft) 93,62 %
04.07.2016 20:28 22,3 C 56 % 1017,6 hPa 0,0 l/m 0,6 km/h (0 Bft) W 269 0 min 0,000 mm 0,0 UV-I 27 W/m 13,1 C 22,3 C 1,6 km/h (1 Bft) 93,62 %
04.07.2016 20:30 22,2 C 56 % 1017,6 hPa 0,0 l/m 1,0 km/h (0 Bft) W 269 0 min 0,000 mm 0,0 UV-I 25 W/m 13,0 C 22,2 C 1,6 km/h (1 Bft) 81,58 %
04.07.2016 20:32 22,1 C 57 % 1017,6 hPa 0,0 l/m 1,2 km/h (1 Bft) W 269 0 min 0,000 mm 0,0 UV-I 23 W/m 13,2 C 22,1 C 3,2 km/h (1 Bft) 95,74 %
04.07.2016 20:34 22,1 C 60 % 1017,6 hPa 0,0 l/m 0,3 km/h (0 Bft) W 269 0 min 0,000 mm 0,0 UV-I 23 W/m 14,0 C 22,1 C 1,6 km/h (1 Bft) 97,87 %
04.07.2016 20:36 21,9 C 58 % 1017,5 hPa 0,0 l/m 0,7 km/h (0 Bft) W 269 0 min 0,000 mm 0,0 UV-I 21 W/m 13,3 C 21,9 C 1,6 km/h (1 Bft) 95,74 %
04.07.2016 20:38 21,9 C 57 % 1017,5 hPa 0,0 l/m 0,2 km/h (0 Bft) W 269 0 min 0,000 mm 0,0 UV-I 20 W/m 13,0 C 21,9 C 1,6 km/h (1 Bft) 98,00 %
04.07.2016 20:40 21,9 C 57 % 1017,5 hPa 0,0 l/m 1,1 km/h (1 Bft) W 269 0 min 0,000 mm 0,0 UV-I 19 W/m 13,0 C 21,9 C 3,2 km/h (1 Bft) 94,00 %
04.07.2016 20:42 21,8 C 63 % 1017,5 hPa 0,0 l/m 1,2 km/h (1 Bft) W 269 0 min 0,000 mm 0,0 UV-I 19 W/m 14,4 C 21,8 C 3,2 km/h (1 Bft) 93,62 %
04.07.2016 20:44 21,5 C 63 % 1017,5 hPa 0,0 l/m 1,2 km/h (1 Bft) W 269 0 min 0,000 mm 0,0 UV-I 18 W/m 14,2 C 21,5 C 3,2 km/h (1 Bft) 97,87 %
04.07.2016 20:46 21,2 C 67 % 1017,5 hPa 0,0 l/m 0,0 km/h (0 Bft) W 269 0 min 0,000 mm 0,0 UV-I 17 W/m 14,8 C 21,2 C 0,0 km/h (0 Bft) 97,87 %
04.07.2016 20:48 20,9 C 68 % 1017,6 hPa 0,0 l/m 0,0 km/h (0 Bft) W 269 0 min 0,000 mm 0,0 UV-I 15 W/m 14,8 C 20,9 C 0,0 km/h (0 Bft) 97,87 %
04.07.2016 20:50 20,6 C 70 % 1017,5 hPa 0,0 l/m 0,0 km/h (0 Bft) W 269 2 min 0,000 mm 0,0 UV-I 14 W/m 14,9 C 20,6 C 1,6 km/h (1 Bft) 93,62 %
04.07.2016 20:52 20,4 C 68 % 1017,5 hPa 0,0 l/m 0,1 km/h (0 Bft) W 269 2 min 0,000 mm 0,0 UV-I 13 W/m 14,3 C 20,4 C 1,6 km/h (1 Bft) 100,00 %
04.07.2016 20:54 20,3 C 70 % 1017,5 hPa 0,0 l/m 0,0 km/h (0 Bft) W 269 0 min 0,000 mm 0,0 UV-I 12 W/m 14,6 C 20,3 C 0,0 km/h (0 Bft) 93,75 %
04.07.2016 20:56 20,1 C 70 % 1017,5 hPa 0,0 l/m 0,0 km/h (0 Bft) W 269 0 min 0,000 mm 0,0 UV-I 11 W/m 14,5 C 20,1 C 0,0 km/h (0 Bft) 97,87 %
04.07.2016 20:58 19,9 C 71 % 1017,5 hPa 0,0 l/m 0,0 km/h (0 Bft) W 269 0 min 0,000 mm 0,0 UV-I 11 W/m 14,5 C 19,9 C 0,0 km/h (0 Bft) 100,00 %
04.07.2016 21:00 19,8 C 72 % 1017,5 hPa 0,0 l/m 0,0 km/h (0 Bft) W 269 0 min 0,000 mm 0,0 UV-I 9 W/m 14,6 C 19,8 C 0,0 km/h (0 Bft) 97,87 %
04.07.2016 21:02 19,6 C 74 % 1017,5 hPa 0,0 l/m 0,1 km/h (0 Bft) W 269 0 min 0,026 mm 0,0 UV-I 9 W/m 14,8 C 19,6 C 1,6 km/h (1 Bft) 97,87 %
04.07.2016 21:04 19,4 C 76 % 1017,5 hPa 0,0 l/m 0,6 km/h (0 Bft) W 269 0 min 0,000 mm 0,0 UV-I 7 W/m 15,1 C 19,4 C 1,6 km/h (1 Bft) 93,62 %
04.07.2016 21:06 19,2 C 75 % 1017,5 hPa 0,0 l/m 0,6 km/h (0 Bft) W 269 0 min 0,000 mm 0,0 UV-I 7 W/m 14,7 C 19,2 C 3,2 km/h (1 Bft) 95,74 %
04.07.2016 21:08 19,0 C 76 % 1017,5 hPa 0,0 l/m 1,1 km/h (1 Bft) W 269 0 min 0,000 mm 0,0 UV-I 5 W/m 14,7 C 19,0 C 3,2 km/h (1 Bft) 97,87 %
04.07.2016 21:10 18,9 C 76 % 1017,5 hPa 0,0 l/m 1,5 km/h (1 Bft) W 269 0 min 0,000 mm 0,0 UV-I 5 W/m 14,6 C 18,9 C 3,2 km/h (1 Bft) 100,00 %
04.07.2016 21:12 18,8 C 76 % 1017,5 hPa 0,0 l/m 0,7 km/h (0 Bft) W 269 0 min 0,000 mm 0,0 UV-I 5 W/m 14,5 C 18,8 C 1,6 km/h (1 Bft) 97,87 %
04.07.2016 21:14 18,7 C 75 % 1017,6 hPa 0,0 l/m 0,0 km/h (0 Bft) W 269 0 min 0,000 mm 0,0 UV-I 5 W/m 14,2 C 18,7 C 0,0 km/h (0 Bft) 100,00 %
04.07.2016 21:16 18,7 C 75 % 1017,5 hPa 0,0 l/m 0,0 km/h (0 Bft) W 269 0 min 0,000 mm 0,0 UV-I 1 W/m 14,2 C 18,7 C 0,0 km/h (0 Bft) 95,74 %
04.07.2016 21:18 18,7 C 73 % 1017,6 hPa 0,0 l/m 0,0 km/h (0 Bft) W 269 0 min 0,000 mm 0,0 UV-I 0 W/m 13,8 C 18,7 C 0,0 km/h (0 Bft) 100,00 %
04.07.2016 21:20 18,7 C 73 % 1017,6 hPa 0,0 l/m 0,1 km/h (0 Bft) W 269 0 min 0,000 mm 0,0 UV-I 0 W/m 13,8 C 18,7 C 1,6 km/h (1 Bft) 100,00 %
04.07.2016 21:22 18,6 C 75 % 1017,6 hPa 0,0 l/m 1,2 km/h (1 Bft) W 269 0 min 0,000 mm 0,0 UV-I 0 W/m 14,1 C 18,6 C 1,6 km/h (1 Bft) 97,87 %
04.07.2016 21:24 18,5 C 77 % 1017,6 hPa 0,0 l/m 2,6 km/h (1 Bft) W 269 0 min 0,000 mm 0,0 UV-I 0 W/m 14,4 C 18,5 C 3,2 km/h (1 Bft) 97,87 %
04.07.2016 21:26 18,3 C 77 % 1017,6 hPa 0,0 l/m 2,8 km/h (1 Bft) W 269 0 min 0,000 mm 0,0 UV-I 0 W/m 14,2 C 18,3 C 4,8 km/h (1 Bft) 100,00 %
04.07.2016 21:28 18,2 C 75 % 1017,6 hPa 0,0 l/m 3,0 km/h (1 Bft) W 269 0 min 0,000 mm 0,0 UV-I 0 W/m 13,7 C 18,2 C 4,8 km/h (1 Bft) 95,74 %
04.07.2016 21:30 18,2 C 74 % 1017,7 hPa 0,0 l/m 1,1 km/h (1 Bft) W 269 0 min 0,000 mm 0,0 UV-I 0 W/m 13,5 C 18,2 C 1,6 km/h (1 Bft) 100,00 %
04.07.2016 21:32 18,3 C 73 % 1017,7 hPa 0,0 l/m 0,5 km/h (0 Bft) W 269 0 min 0,000 mm 0,0 UV-I 0 W/m 13,4 C 18,3 C 1,6 km/h (1 Bft) 100,00 %
04.07.2016 21:34 18,3 C 74 % 1017,7 hPa 0,0 l/m 1,0 km/h (0 Bft) W 269 0 min 0,000 mm 0,0 UV-I 0 W/m 13,6 C 18,3 C 3,2 km/h (1 Bft) 97,87 %
04.07.2016 21:36 18,4 C 73 % 1017,7 hPa 0,0 l/m 0,4 km/h (0 Bft) W 269 0 min 0,000 mm 0,0 UV-I 0 W/m 13,5 C 18,4 C 1,6 km/h (1 Bft) 100,00 %
04.07.2016 21:38 18,4 C 74 % 1017,7 hPa 0,0 l/m 0,5 km/h (0 Bft) W 269 0 min 0,000 mm 0,0 UV-I 0 W/m 13,7 C 18,4 C 1,6 km/h (1 Bft) 97,87 %
04.07.2016 21:40 18,3 C 75 % 1017,7 hPa 0,0 l/m 0,0 km/h (0 Bft) W 269 0 min 0,000 mm 0,0 UV-I 0 W/m 13,8 C 18,3 C 1,6 km/h (1 Bft) 100,00 %
04.07.2016 21:42 18,3 C 76 % 1017,7 hPa 0,0 l/m 0,0 km/h (0 Bft) W 269 0 min 0,000 mm 0,0 UV-I 0 W/m 14,0 C 18,3 C 0,0 km/h (0 Bft) 100,00 %
04.07.2016 21:44 18,3 C 76 % 1017,7 hPa 0,0 l/m 0,0 km/h (0 Bft) W 269 0 min 0,000 mm 0,0 UV-I 0 W/m 14,0 C 18,3 C 1,6 km/h (1 Bft) 100,00 %
04.07.2016 21:46 18,2 C 77 % 1017,7 hPa 0,0 l/m 0,0 km/h (0 Bft) W 269 0 min 0,000 mm 0,0 UV-I 0 W/m 14,1 C 18,2 C 0,0 km/h (0 Bft) 100,00 %
04.07.2016 21:48 18,1 C 77 % 1017,8 hPa 0,0 l/m 0,0 km/h (0 Bft) W 269 0 min 0,000 mm 0,0 UV-I 0 W/m 14,0 C 18,1 C 0,0 km/h (0 Bft) 100,00 %
04.07.2016 21:50 18,1 C 78 % 1017,7 hPa 0,0 l/m 0,0 km/h (0 Bft) W 269 0 min 0,000 mm 0,0 UV-I 0 W/m 14,2 C 18,1 C 1,6 km/h (1 Bft) 97,87 %
04.07.2016 21:52 18,0 C 78 % 1017,7 hPa 0,0 l/m 0,0 km/h (0 Bft) W 269 0 min 0,000 mm 0,0 UV-I 0 W/m 14,1 C 18,0 C 1,6 km/h (1 Bft) 97,87 %
04.07.2016 21:54 18,0 C 78 % 1017,7 hPa 0,0 l/m 0,8 km/h (0 Bft) W 269 0 min 0,000 mm 0,0 UV-I 0 W/m 14,1 C 18,0 C 1,6 km/h (1 Bft) 100,00 %
04.07.2016 21:56 17,9 C 78 % 1017,8 hPa 0,0 l/m 0,8 km/h (0 Bft) W 269 0 min 0,000 mm 0,0 UV-I 0 W/m 14,0 C 17,9 C 1,6 km/h (1 Bft) 97,87 %
04.07.2016 21:58 17,8 C 78 % 1017,8 hPa 0,0 l/m 1,0 km/h (0 Bft) W 269 0 min 0,000 mm 0,0 UV-I 0 W/m 13,9 C 17,8 C 3,2 km/h (1 Bft) 97,87 %
04.07.2016 22:00 17,7 C 78 % 1017,8 hPa 0,0 l/m 2,0 km/h (1 Bft) W 269 0 min 0,000 mm 0,0 UV-I 0 W/m 13,8 C 17,7 C 3,2 km/h (1 Bft) 100,00 %
04.07.2016 22:02 17,6 C 78 % 1017,7 hPa 0,0 l/m 1,9 km/h (1 Bft) W 269 0 min 0,000 mm 0,0 UV-I 0 W/m 13,7 C 17,6 C 3,2 km/h (1 Bft) 98,00 %
04.07.2016 22:04 17,5 C 78 % 1017,8 hPa 0,0 l/m 1,8 km/h (1 Bft) W 269 0 min 0,000 mm 0,0 UV-I 0 W/m 13,6 C 17,5 C 3,2 km/h (1 Bft) 97,87 %
04.07.2016 22:06 17,4 C 78 % 1017,7 hPa 0,0 l/m 1,7 km/h (1 Bft) W 269 0 min 0,000 mm 0,0 UV-I 0 W/m 13,5 C 17,4 C 3,2 km/h (1 Bft) 95,74 %
04.07.2016 22:08 17,4 C 77 % 1017,7 hPa 0,0 l/m 1,6 km/h (1 Bft) W 269 0 min 0,000 mm 0,0 UV-I 0 W/m 13,3 C 17,4 C 3,2 km/h (1 Bft) 100,00 %
04.07.2016 22:10 17,4 C 77 % 1017,8 hPa 0,0 l/m 2,1 km/h (1 Bft) W 269 0 min 0,000 mm 0,0 UV-I 0 W/m 13,3 C 17,4 C 3,2 km/h (1 Bft) 100,00 %
04.07.2016 22:12 17,3 C 78 % 1017,7 hPa 0,0 l/m 2,2 km/h (1 Bft) W 269 0 min 0,000 mm 0,0 UV-I 0 W/m 13,4 C 17,3 C 3,2 km/h (1 Bft) 100,00 %
04.07.2016 22:14 17,3 C 77 % 1017,8 hPa 0,0 l/m 2,3 km/h (1 Bft) W 269 0 min 0,000 mm 0,0 UV-I 0 W/m 13,2 C 17,3 C 3,2 km/h (1 Bft) 100,00 %
04.07.2016 22:16 17,3 C 78 % 1017,7 hPa 0,0 l/m 1,9 km/h (1 Bft) W 269 0 min 0,000 mm 0,0 UV-I 0 W/m 13,4 C 17,3 C 3,2 km/h (1 Bft) 100,00 %
04.07.2016 22:18 17,2 C 79 % 1017,7 hPa 0,0 l/m 2,0 km/h (1 Bft) W 269 0 min 0,000 mm 0,0 UV-I 0 W/m 13,5 C 17,2 C 3,2 km/h (1 Bft) 97,87 %
04.07.2016 22:20 17,2 C 78 % 1017,7 hPa 0,0 l/m 1,8 km/h (1 Bft) W 269 0 min 0,000 mm 0,0 UV-I 0 W/m 13,3 C 17,2 C 3,2 km/h (1 Bft) 100,00 %
04.07.2016 22:22 17,1 C 79 % 1017,7 hPa 0,0 l/m 2,4 km/h (1 Bft) W 269 0 min 0,000 mm 0,0 UV-I 0 W/m 13,4 C 17,1 C 3,2 km/h (1 Bft) 97,87 %
04.07.2016 22:24 17,0 C 79 % 1017,7 hPa 0,0 l/m 1,6 km/h (1 Bft) W 269 0 min 0,000 mm 0,0 UV-I 0 W/m 13,3 C 17,0 C 3,2 km/h (1 Bft) 100,00 %
04.07.2016 22:26 16,9 C 79 % 1017,7 hPa 0,0 l/m 1,7 km/h (1 Bft) W 269 0 min 0,000 mm 0,0 UV-I 0 W/m 13,2 C 16,9 C 3,2 km/h (1 Bft) 97,87 %
04.07.2016 22:28 17,0 C 79 % 1017,7 hPa 0,0 l/m 1,4 km/h (1 Bft) W 269 0 min 0,000 mm 0,0 UV-I 0 W/m 13,3 C 17,0 C 1,6 km/h (1 Bft) 97,87 %
04.07.2016 22:30 17,0 C 78 % 1017,7 hPa 0,0 l/m 1,7 km/h (1 Bft) W 269 0 min 0,000 mm 0,0 UV-I 0 W/m 13,1 C 17,0 C 3,2 km/h (1 Bft) 97,87 %
04.07.2016 22:32 17,1 C 78 % 1017,6 hPa 0,0 l/m 1,6 km/h (1 Bft) W 269 0 min 0,000 mm 0,0 UV-I 0 W/m 13,2 C 17,1 C 3,2 km/h (1 Bft) 97,87 %
04.07.2016 22:34 17,0 C 79 % 1017,6 hPa 0,0 l/m 1,9 km/h (1 Bft) W 269 0 min 0,000 mm 0,0 UV-I 0 W/m 13,3 C 17,0 C 3,2 km/h (1 Bft) 97,37 %
04.07.2016 22:36 17,1 C 79 % 1017,6 hPa 0,0 l/m 2,6 km/h (1 Bft) W 269 0 min 0,000 mm 0,0 UV-I 0 W/m 13,4 C 17,1 C 4,8 km/h (1 Bft) 97,87 %
04.07.2016 22:38 17,1 C 79 % 1017,6 hPa 0,0 l/m 2,5 km/h (1 Bft) W 269 0 min 0,000 mm 0,0 UV-I 0 W/m 13,4 C 17,1 C 3,2 km/h (1 Bft) 95,74 %
04.07.2016 22:40 17,0 C 79 % 1017,6 hPa 0,0 l/m 2,4 km/h (1 Bft) W 269 0 min 0,000 mm 0,0 UV-I 0 W/m 13,3 C 17,0 C 3,2 km/h (1 Bft) 97,87 %
04.07.2016 22:42 16,9 C 79 % 1017,6 hPa 0,0 l/m 1,2 km/h (1 Bft) W 269 0 min 0,000 mm 0,0 UV-I 0 W/m 13,2 C 16,9 C 3,2 km/h (1 Bft) 98,00 %
04.07.2016 22:44 16,9 C 78 % 1017,6 hPa 0,0 l/m 0,6 km/h (0 Bft) W 269 0 min 0,000 mm 0,0 UV-I 0 W/m 13,0 C 16,9 C 1,6 km/h (1 Bft) 98,00 %
04.07.2016 22:46 16,8 C 79 % 1017,6 hPa 0,0 l/m 1,8 km/h (1 Bft) W 269 0 min 0,000 mm 0,0 UV-I 0 W/m 13,1 C 16,8 C 3,2 km/h (1 Bft) 97,96 %
04.07.2016 22:48 16,8 C 80 % 1017,6 hPa 0,0 l/m 1,6 km/h (1 Bft) W 269 0 min 0,000 mm 0,0 UV-I 0 W/m 13,3 C 16,8 C 3,2 km/h (1 Bft) 97,87 %
04.07.2016 22:50 16,8 C 79 % 1017,6 hPa 0,0 l/m 1,1 km/h (1 Bft) W 269 0 min 0,000 mm 0,0 UV-I 0 W/m 13,1 C 16,8 C 3,2 km/h (1 Bft) 95,74 %
04.07.2016 22:52 16,8 C 79 % 1017,6 hPa 0,0 l/m 2,3 km/h (1 Bft) W 269 0 min 0,000 mm 0,0 UV-I 0 W/m 13,1 C 16,8 C 3,2 km/h (1 Bft) 95,74 %
04.07.2016 22:54 16,8 C 79 % 1017,6 hPa 0,0 l/m 2,3 km/h (1 Bft) W 269 0 min 0,000 mm 0,0 UV-I 0 W/m 13,1 C 16,8 C 3,2 km/h (1 Bft) 97,87 %
04.07.2016 22:56 16,8 C 79 % 1017,6 hPa 0,0 l/m 2,2 km/h (1 Bft) W 269 0 min 0,000 mm 0,0 UV-I 0 W/m 13,1 C 16,8 C 3,2 km/h (1 Bft) 93,62 %
04.07.2016 22:58 16,8 C 80 % 1017,7 hPa 0,0 l/m 2,5 km/h (1 Bft) W 269 0 min 0,000 mm 0,0 UV-I 0 W/m 13,3 C 16,8 C 3,2 km/h (1 Bft) 97,44 %
04.07.2016 23:00 16,7 C 81 % 1017,6 hPa 0,0 l/m 2,5 km/h (1 Bft) W 269 0 min 0,000 mm 0,0 UV-I 0 W/m 13,4 C 16,7 C 3,2 km/h (1 Bft) 95,74 %
04.07.2016 23:02 16,6 C 81 % 1017,7 hPa 0,0 l/m 2,0 km/h (1 Bft) W 269 0 min 0,000 mm 0,0 UV-I 0 W/m 13,3 C 16,6 C 3,2 km/h (1 Bft) 100,00 %
04.07.2016 23:04 16,6 C 81 % 1017,7 hPa 0,0 l/m 1,4 km/h (1 Bft) W 269 0 min 0,000 mm 0,0 UV-I 0 W/m 13,3 C 16,6 C 1,6 km/h (1 Bft) 100,00 %
04.07.2016 23:06 16,4 C 81 % 1017,7 hPa 0,0 l/m 2,1 km/h (1 Bft) W 269 0 min 0,000 mm 0,0 UV-I 0 W/m 13,1 C 16,4 C 3,2 km/h (1 Bft) 97,87 %
04.07.2016 23:08 16,3 C 81 % 1017,7 hPa 0,0 l/m 2,7 km/h (1 Bft) W 269 0 min 0,000 mm 0,0 UV-I 0 W/m 13,0 C 16,3 C 4,8 km/h (1 Bft) 100,00 %
04.07.2016 23:10 16,2 C 81 % 1017,7 hPa 0,0 l/m 1,2 km/h (1 Bft) W 269 0 min 0,000 mm 0,0 UV-I 0 W/m 12,9 C 16,2 C 3,2 km/h (1 Bft) 95,74 %
04.07.2016 23:12 16,3 C 81 % 1017,7 hPa 0,0 l/m 0,7 km/h (0 Bft) W 269 0 min 0,000 mm 0,0 UV-I 0 W/m 13,0 C 16,3 C 1,6 km/h (1 Bft) 97,87 %
04.07.2016 23:14 16,4 C 80 % 1017,7 hPa 0,0 l/m 0,2 km/h (0 Bft) W 269 0 min 0,000 mm 0,0 UV-I 0 W/m 12,9 C 16,4 C 1,6 km/h (1 Bft) 98,00 %
04.07.2016 23:16 16,6 C 80 % 1017,7 hPa 0,0 l/m 0,7 km/h (0 Bft) W 269 0 min 0,000 mm 0,0 UV-I 0 W/m 13,1 C 16,6 C 3,2 km/h (1 Bft) 100,00 %
04.07.2016 23:18 16,6 C 80 % 1017,7 hPa 0,0 l/m 0,5 km/h (0 Bft) W 269 0 min 0,000 mm 0,0 UV-I 0 W/m 13,1 C 16,6 C 1,6 km/h (1 Bft) 100,00 %
04.07.2016 23:20 16,6 C 80 % 1017,7 hPa 0,0 l/m 0,1 km/h (0 Bft) W 269 0 min 0,000 mm 0,0 UV-I 0 W/m 13,1 C 16,6 C 1,6 km/h (1 Bft) 97,87 %
04.07.2016 23:22 16,5 C 81 % 1017,7 hPa 0,0 l/m 0,0 km/h (0 Bft) W 269 0 min 0,000 mm 0,0 UV-I 0 W/m 13,2 C 16,5 C 0,0 km/h (0 Bft) 100,00 %
04.07.2016 23:24 16,4 C 81 % 1017,7 hPa 0,0 l/m 0,1 km/h (0 Bft) W 269 0 min 0,000 mm 0,0 UV-I 0 W/m 13,1 C 16,4 C 1,6 km/h (1 Bft) 100,00 %
04.07.2016 23:26 16,3 C 81 % 1017,8 hPa 0,0 l/m 1,6 km/h (1 Bft) W 267 0 min 0,000 mm 0,0 UV-I 0 W/m 13,0 C 16,3 C 3,2 km/h (1 Bft) 100,00 %
04.07.2016 23:28 16,3 C 81 % 1017,8 hPa 0,0 l/m 2,2 km/h (1 Bft) SW 223 0 min 0,000 mm 0,0 UV-I 0 W/m 13,0 C 16,3 C 4,8 km/h (1 Bft) 100,00 %
04.07.2016 23:30 16,3 C 81 % 1017,8 hPa 0,0 l/m 1,6 km/h (1 Bft) SW 221 0 min 0,000 mm 0,0 UV-I 0 W/m 13,0 C 16,3 C 3,2 km/h (1 Bft) 100,00 %
04.07.2016 23:32 16,4 C 81 % 1017,8 hPa 0,0 l/m 1,9 km/h (1 Bft) SW 221 0 min 0,000 mm 0,0 UV-I 0 W/m 13,1 C 16,4 C 3,2 km/h (1 Bft) 100,00 %
04.07.2016 23:34 16,4 C 80 % 1017,8 hPa 0,0 l/m 1,5 km/h (1 Bft) SW 221 0 min 0,000 mm 0,0 UV-I 0 W/m 12,9 C 16,4 C 3,2 km/h (1 Bft) 97,87 %
04.07.2016 23:36 16,4 C 81 % 1017,8 hPa 0,0 l/m 1,5 km/h (1 Bft) SW 221 0 min 0,000 mm 0,0 UV-I 0 W/m 13,1 C 16,4 C 1,6 km/h (1 Bft) 100,00 %
04.07.2016 23:38 16,4 C 81 % 1017,8 hPa 0,0 l/m 1,3 km/h (1 Bft) SW 221 0 min 0,000 mm 0,0 UV-I 0 W/m 13,1 C 16,4 C 3,2 km/h (1 Bft) 97,87 %
04.07.2016 23:40 16,3 C 81 % 1017,8 hPa 0,0 l/m 1,6 km/h (1 Bft) SW 221 0 min 0,000 mm 0,0 UV-I 0 W/m 13,0 C 16,3 C 3,2 km/h (1 Bft) 97,87 %
04.07.2016 23:42 16,2 C 82 % 1017,8 hPa 0,0 l/m 2,0 km/h (1 Bft) SW 221 0 min 0,000 mm 0,0 UV-I 0 W/m 13,1 C 16,2 C 3,2 km/h (1 Bft) 100,00 %
04.07.2016 23:44 16,1 C 83 % 1017,8 hPa 0,0 l/m 2,0 km/h (1 Bft) SW 221 0 min 0,000 mm 0,0 UV-I 0 W/m 13,2 C 16,1 C 3,2 km/h (1 Bft) 100,00 %
04.07.2016 23:46 15,9 C 83 % 1017,8 hPa 0,0 l/m 2,1 km/h (1 Bft) SW 221 0 min 0,000 mm 0,0 UV-I 0 W/m 13,0 C 15,9 C 3,2 km/h (1 Bft) 100,00 %
04.07.2016 23:48 15,9 C 84 % 1017,8 hPa 0,0 l/m 2,9 km/h (1 Bft) SW 221 0 min 0,000 mm 0,0 UV-I 0 W/m 13,2 C 15,9 C 4,8 km/h (1 Bft) 100,00 %
04.07.2016 23:50 15,9 C 84 % 1017,8 hPa 0,0 l/m 2,3 km/h (1 Bft) SW 221 0 min 0,000 mm 0,0 UV-I 0 W/m 13,2 C 15,9 C 4,8 km/h (1 Bft) 100,00 %
04.07.2016 23:52 15,9 C 83 % 1017,8 hPa 0,0 l/m 1,9 km/h (1 Bft) SW 221 0 min 0,000 mm 0,0 UV-I 0 W/m 13,0 C 15,9 C 3,2 km/h (1 Bft) 100,00 %
04.07.2016 23:54 15,9 C 83 % 1017,8 hPa 0,0 l/m 1,0 km/h (0 Bft) SW 221 0 min 0,000 mm 0,0 UV-I 0 W/m 13,0 C 15,9 C 1,6 km/h (1 Bft) 100,00 %
04.07.2016 23:56 16,0 C 84 % 1017,8 hPa 0,0 l/m 1,8 km/h (1 Bft) SW 219 0 min 0,000 mm 0,0 UV-I 0 W/m 13,3 C 16,0 C 4,8 km/h (1 Bft) 100,00 %
04.07.2016 23:58 16,1 C 83 % 1017,8 hPa 0,0 l/m 1,9 km/h (1 Bft) SW 218 0 min 0,000 mm 0,0 UV-I 0 W/m 13,2 C 16,1 C 3,2 km/h (1 Bft) 100,00 %
_ Min-Zeit 06:00 15:20 19:18 - 01:50 - - - - - - 10:22 06:02 01:50 00:02
Minimum _ 13,3 C 49 % 1017,5 hPa - 0,0 km/h (0 Bft) - - - - - - 10,5 C 13,3 C 0,0 km/h (0 Bft) 14,29 %
_ Max-Zeit 16:58 06:02 00:20 00:00 10:44 - - 06:46 13:00 12:12 12:12 20:00 16:58 12:58 00:00
Maximum _ 24,2 C 92 % 1021,8 hPa 0,0 l/m 9,5 km/h
NO (2 Bft)
- - 2 min 0,483 mm 7,6 UV-I 1123 W/m 15,3 C 24,2 C 17,7 km/h
N-NO (3 Bft)
100,00 %
Durchschnitt _ 18,9 C 69 % 1019,8 hPa #0,0 l/m 2,4 km/h (1 Bft) S-SW - #11:00 h #4,369 mm 3,5 UV-I 420 W/m 12,8 C 18,9 C 4,7 km/h (1 Bft) 98,11 %